[[[{"header":{"parameterUnit":"kt","parameterCategory":2,"dx":1,"dy":1,"la1":29.285339999999998,"la2":30.599998999999997,"lo1":-89.70041500000002,"lo2":-87.6738589999976,"nx":112,"ny":82,"refTime":"2022-09-27T06:00:00:Z","depth":0,"parameterNumber":1,"parameterNumberName":"U-component_of_WINDS"},"data":[16.073,16.0963,16.1762,16.5355,16.7717,17.0516,17.5667,17.8466,18.0267,18.1354,18.2583,0.0,0.0,18.2674,18.2114,18.264,18.0667,17.9088,0.0,17.9849,18.0939,18.2319,18.169,18.1362,18.1925,18.2254,18.2714,18.3429,18.386,18.3509,18.2188,17.798,17.4273,17.1431,16.6799,16.5505,16.8043,16.6801,16.6203,16.6203,16.6203,16.3438,15.8344,15.9558,15.8691,15.6251,15.75,15.7577,15.6775,15.6775,15.6057,15.5195,15.7379,15.8977,16.0386,16.3832,16.7075,17.0292,17.3036,17.3958,17.4221,17.5641,17.5744,17.5613,17.7022,17.6824,17.6298,17.7219,17.6824,17.5969,17.5482,17.4983,17.4325,17.3432,17.3169,17.3169,17.3169,17.3169,17.2869,17.1623,16.9621,16.7753,16.6629,16.3646,16.2206,16.4325,16.2805,16.1029,15.9803,15.7787,15.6464,15.6464,15.4463,15.3188,15.3188,15.3188,15.3188,15.3188,15.3188,15.3188,15.3188,15.3188,15.3188,15.3188,15.3188,15.3188,15.3188,15.3188,15.3188,15.3188,15.3188,15.3188,15.9719,15.9973,16.1118,16.4695,16.6948,16.9887,17.5956,17.857,18.0482,0.0,0.0,0.0,0.0,18.3232,18.1916,18.1916,18.0272,17.9023,0.0,17.9783,18.0939,18.2385,18.2217,18.142,18.0214,18.2499,18.3162,18.1026,18.1785,18.1511,17.9626,17.5486,17.1462,16.7723,16.5527,16.4462,16.4462,16.4462,16.4462,16.4462,16.4462,16.255,15.9006,15.9006,15.7806,15.5793,15.5793,15.5072,15.3851,15.3851,15.356,15.3398,15.5674,15.7212,15.8516,16.0769,16.3646,16.6986,17.0312,17.2215,17.3366,17.4325,17.4589,17.4786,17.5734,17.6035,17.6035,17.6035,17.6035,17.5838,17.4852,17.4589,17.4325,17.3432,17.3169,17.3169,17.3169,17.3169,17.3301,17.3827,17.1725,17.0015,17.0532,16.8371,16.6956,16.7958,16.633,16.4541,16.3429,16.035,15.8218,15.8218,15.5195,15.3188,15.3188,15.3188,15.3188,15.3188,15.3188,15.3188,15.3188,15.3188,15.3188,15.3188,15.3188,15.3188,15.3188,15.3188,15.3188,15.3188,15.3188,15.3188,15.797,15.8031,15.9952,16.3551,16.6874,17.0176,17.3741,17.61,17.7942,0.0,0.0,0.0,0.0,18.1851,18.1851,18.1916,18.1851,0.0,0.0,18.1851,18.1239,17.9537,18.0767,18.1499,18.0871,18.2641,18.2307,17.8857,17.8673,17.8035,17.6442,16.9869,16.6133,16.6029,16.2719,16.0963,16.0963,16.0963,16.0963,16.0963,16.0963,16.0323,15.9064,15.9006,15.8272,15.705,15.6992,15.6294,15.5037,15.5037,15.4316,15.3188,15.3188,15.5161,15.8086,15.8284,16.0415,16.3646,16.7104,17.0369,17.306,17.3142,17.3169,17.3169,17.3169,17.5142,17.6759,17.4024,17.5274,17.6852,17.3958,17.3301,17.3301,17.3235,17.3169,17.3235,17.3235,17.3235,17.3629,17.5049,17.4128,17.3629,17.5049,17.4221,17.2208,16.8843,16.8408,16.7227,16.4018,16.0515,15.8384,15.8384,15.5264,15.3188,15.3188,15.3188,15.3188,15.3188,15.3188,15.3188,15.3188,15.3188,15.3188,15.3188,15.3188,15.3188,15.3188,15.3188,15.3188,15.3188,15.3188,15.3188,15.7701,15.9103,16.236,16.6895,16.9773,17.2559,17.7119,0.0,0.0,0.0,17.9783,0.0,0.0,0.0,17.9417,18.1588,0.0,17.7876,17.9952,18.0215,17.864,17.4184,17.6338,17.8078,17.7898,17.7038,17.5639,17.3605,17.4451,17.328,16.9289,16.7249,16.5038,16.2466,16.1455,16.0963,16.0963,16.0963,16.0963,16.0963,16.0963,16.073,16.0381,15.9413,15.8272,15.6992,15.6026,15.4862,15.3676,15.3676,15.3502,15.3188,15.3188,15.3724,15.5161,16.0063,16.0901,16.0772,16.8988,17.0801,16.9943,17.2418,17.3169,17.3169,17.3169,17.3761,17.4419,17.4654,17.6035,17.7022,17.5246,17.5509,17.58,17.3695,17.3169,17.3498,17.4523,17.3958,17.3629,17.5049,17.4128,17.3301,17.3695,17.5208,17.5626,17.3637,17.3366,17.2694,17.0705,16.5456,16.1889,16.1889,15.6674,15.3188,15.3188,15.3188,15.3188,15.3188,15.3188,15.3188,15.3188,15.3188,15.3188,15.3188,15.3188,15.3188,15.3188,15.3188,15.3188,15.3188,15.3188,15.3188,15.8624,15.9774,16.2667,16.4994,16.7823,0.0,17.4732,0.0,17.689,0.0,0.0,0.0,0.0,0.0,0.0,0.0,17.9812,17.8148,17.8328,17.8413,17.6669,17.1981,17.3234,17.4505,17.4505,17.3941,17.2384,16.9457,17.059,16.989,16.6402,16.4791,16.3057,16.1036,16.0963,16.0963,16.0963,16.0963,16.0963,16.0963,16.0963,16.0672,16.0148,15.9355,15.8272,15.6992,15.6294,15.5189,15.4025,15.4025,15.3676,15.3188,15.3188,15.4071,15.564,15.8119,16.0483,16.3024,16.7493,16.96,17.0604,17.2556,17.3169,17.3169,17.3169,17.3629,17.4128,17.4325,17.5443,17.6232,17.4786,17.5049,17.5274,17.3564,17.3169,17.3432,17.426,17.3761,17.3629,17.5049,17.4654,17.426,17.4879,17.6364,17.7153,17.6364,17.5679,17.5049,17.4194,16.8932,16.4817,16.3429,15.8516,15.4739,15.3293,15.3188,15.3188,15.3188,15.3188,15.3188,15.3188,15.3188,15.3188,15.3188,15.3188,15.3188,15.3188,15.3188,15.3188,15.3188,15.3188,15.3188,16.0483,16.0771,0.0,0.0,16.4506,0.0,17.0237,0.0,17.4024,17.5115,0.0,17.6796,17.9229,0.0,0.0,18.1916,18.1916,18.0557,17.7368,17.6133,17.4189,17.0698,17.0632,17.0698,17.0301,17.178,17.0787,16.5975,16.6796,16.6916,16.5635,16.2647,16.0963,16.0963,16.0963,16.0963,16.0963,16.0963,16.0963,16.0963,16.0963,16.0264,15.9006,15.8831,15.8039,15.6817,15.6701,15.6003,15.4921,15.4921,15.4258,15.3188,15.3188,15.5503,15.845,15.5435,15.9937,16.7282,16.5183,16.7993,17.2666,17.306,17.3169,17.3169,17.3169,17.409,17.4852,17.3564,17.4194,17.4983,17.3564,17.3301,17.3366,17.3235,17.3169,17.3235,17.3432,17.3432,17.3893,17.5312,17.5547,17.5969,17.7219,17.7773,17.7876,17.7745,17.6496,17.5482,17.535,17.1134,16.7045,16.4172,16.045,15.7011,15.4037,15.3398,15.3188,15.3188,15.3188,15.3188,15.3188,15.3188,15.3188,15.3188,15.3188,15.3188,15.3188,15.3188,15.3188,15.3188,15.3188,15.3188,0.0,0.0,0.0,0.0,0.0,17.2386,0.0,0.0,0.0,17.5482,17.8205,18.0441,17.9755,17.9595,18.0544,18.324,18.1596,17.9679,17.8554,17.2531,16.6905,16.3416,16.547,16.6133,16.3272,16.578,16.605,16.2271,16.2215,16.2251,16.198,16.1308,16.0963,16.0963,16.0963,16.0963,16.0963,16.0963,16.0963,16.0963,16.0963,16.0264,15.8948,15.7923,15.6759,15.5444,15.4374,15.3793,15.356,15.356,15.3421,15.3188,15.3188,15.6943,16.2238,16.1572,16.2584,16.4908,16.9657,17.0377,16.9564,17.227,17.3169,17.3169,17.3169,17.3366,17.3564,17.3301,17.4194,17.4983,17.3564,17.4062,17.4654,17.3498,17.3169,17.3498,17.4654,17.4917,17.5378,17.6759,17.7087,17.7153,17.7416,17.9483,18.0667,17.9361,17.798,17.6627,17.5482,17.1134,16.787,16.7282,16.1796,15.792,15.7312,15.4773,15.3188,15.3188,15.3188,15.3188,15.3188,15.3188,15.3188,15.3188,15.3188,15.3188,15.3188,15.3188,15.3188,15.3188,15.3188,15.3188,16.6629,16.7375,0.0,16.7162,0.0,0.0,0.0,17.4188,17.5721,17.3189,17.5017,17.7058,17.6993,17.5502,17.5668,17.9739,17.7623,17.481,17.2787,16.8879,16.4897,16.1382,16.2502,16.29,16.1147,16.2538,16.2864,16.111,16.0963,16.0963,16.0963,16.0963,16.0963,16.0963,16.0963,16.0963,16.0963,16.0963,16.0963,16.0963,16.0963,15.9879,15.8017,15.7341,15.6003,15.4142,15.3444,15.3188,15.3188,15.3188,15.3188,15.3363,15.5024,15.8785,16.3304,16.3304,16.5395,16.8495,17.0085,17.0689,17.0942,17.2638,17.3169,17.3169,17.3169,17.3169,17.3169,17.3169,17.3695,17.426,17.426,17.426,17.426,17.426,17.3695,17.3366,17.4128,17.426,17.4457,17.5208,17.7087,17.8506,17.8506,18.0441,18.1653,18.0901,17.8863,17.7219,17.6496,17.3049,17.0028,16.8344,16.518,16.1828,15.8516,15.664,15.4955,15.3293,15.3188,15.3188,15.3188,15.3188,15.3188,15.3188,15.3188,15.3188,15.3188,15.3188,15.3188,15.3188,15.3188,15.3188,16.9756,16.9876,16.9666,16.5312,16.7738,0.0,16.8606,17.2304,17.531,17.2146,17.2339,17.3457,17.4576,17.1917,17.0893,17.4973,17.3298,16.9969,16.5785,16.5179,16.4142,16.1272,16.0963,16.0963,16.0963,16.0963,16.0963,16.0963,16.0963,16.0963,16.0963,16.0963,16.0963,16.0963,16.0963,16.0963,16.0963,16.0963,16.0963,16.0963,16.0963,15.9741,15.7457,15.7457,15.6003,15.356,15.356,15.3386,15.3188,15.3188,15.3549,15.4428,15.7145,16.0676,16.4264,16.4264,16.8022,17.2841,17.0085,17.0914,17.3169,17.3169,17.3169,17.3169,17.3169,17.3169,17.3169,17.3169,17.3169,17.3498,17.4589,17.4062,17.3498,17.4654,17.4024,17.3169,17.3169,17.3432,17.3498,17.3235,17.6232,17.8741,17.8741,18.031,18.1522,18.1522,17.9455,17.7811,17.7482,17.5208,17.2459,16.942,16.8547,16.5966,16.0612,15.8949,15.7044,15.4325,15.3514,15.3188,15.3188,15.3188,15.3188,15.3188,15.3188,15.3188,15.3188,15.3188,15.3188,15.3188,15.3188,15.3188,17.2393,17.2742,17.2023,16.8495,17.1214,0.0,16.913,17.3826,17.8656,17.6996,17.6416,17.6237,17.643,17.3587,17.1398,17.1913,17.1715,16.9132,16.2466,16.1528,16.1382,16.1,16.0963,16.0963,16.0963,16.0963,16.0963,16.0963,16.0963,16.0963,16.0963,16.0963,16.0963,16.0963,16.0963,16.0963,16.0963,16.0963,16.0963,16.0963,16.0963,16.0206,15.8773,15.8773,15.7341,15.4921,15.4921,15.4258,15.3188,15.3188,15.4921,15.7747,15.8052,16.2049,16.7577,16.7577,16.9971,17.3142,17.2786,17.2896,17.3169,17.3169,17.3169,17.3169,17.3169,17.3169,17.3169,17.3169,17.3169,17.3235,17.3366,17.3301,17.3235,17.3366,17.3301,17.3169,17.3169,17.4194,17.472,17.3432,17.4589,17.581,17.581,17.8046,17.9887,17.9887,17.9624,17.89,17.7613,17.6101,17.4451,17.277,16.9971,16.7841,16.7134,16.1606,15.8052,15.7713,15.4877,15.3188,15.3188,15.3188,15.3188,15.3188,15.3188,15.3188,15.3188,15.3188,15.3188,15.3188,15.3188,15.3188,17.2774,17.1772,16.9449,16.615,0.0,0.0,16.3273,16.7639,17.17,16.9086,16.9622,17.0566,17.0566,16.7702,16.5969,16.8043,16.6663,16.4296,16.1345,16.0963,16.0963,16.0963,16.0963,16.0963,16.0963,16.0963,16.1798,16.3821,16.2126,16.1835,16.3893,16.2089,16.0963,16.0963,16.0963,16.0963,16.0963,16.0963,16.0963,16.0963,16.0963,16.0264,15.9006,15.9006,15.7574,15.5095,15.5095,15.4339,15.3188,15.3188,15.4037,15.5503,15.748,16.1125,16.5577,16.7429,17.0284,17.3169,17.3169,17.3169,17.3169,17.3169,17.3169,17.3169,17.3169,17.3169,17.3169,17.3169,17.3169,17.3366,17.4194,17.3827,17.3432,17.426,17.3827,17.3169,17.3169,17.3695,17.3893,17.3301,17.4325,17.535,17.535,17.7717,17.9595,17.9595,17.9595,17.9426,17.8769,17.6731,17.5115,17.4523,17.2461,17.0284,16.8344,16.3863,16.035,15.8351,15.5024,15.3188,15.3188,15.3188,15.3188,15.3188,15.3188,15.3188,15.3188,15.3188,15.3188,15.3188,15.3188,15.3188,17.1722,0.0,0.0,0.0,0.0,0.0,15.9103,16.3259,16.7106,16.4209,16.4987,16.6203,16.6203,16.3308,16.1762,16.4355,16.2611,16.0846,16.0497,16.073,16.0788,16.0497,16.073,16.0963,16.0963,16.0963,16.2017,16.4508,16.2357,16.2053,16.4579,16.2321,16.0963,16.0963,16.0963,16.0963,16.0963,16.0963,16.0963,16.0963,16.0963,16.0497,15.953,15.953,15.8133,15.5677,15.5677,15.4956,15.3676,15.3327,15.3188,15.3479,15.6876,15.9734,16.2395,16.6629,16.9678,17.1938,17.2896,17.3169,17.3169,17.3169,17.3169,17.3169,17.3169,17.3169,17.3169,17.3169,17.3169,17.3432,17.4457,17.3958,17.3432,17.4523,17.3958,17.3169,17.3169,17.3169,17.3301,17.3695,17.4325,17.4852,17.5219,17.7059,17.844,17.844,17.8769,17.9032,17.9032,17.7191,17.5772,17.535,17.4391,17.2618,16.98,16.6539,16.318,15.9831,15.6464,15.4117,15.3223,15.3188,15.3188,15.3188,15.3188,15.3188,15.3188,15.3188,15.3188,15.3188,15.3188,15.3188,0.0,0.0,0.0,16.2206,16.318,16.4069,15.9318,16.4059,16.903,16.7499,16.6624,16.6203,16.6203,16.3308,16.1,16.111,16.1036,16.0497,15.9239,16.0148,16.0497,15.9239,16.0206,16.0963,16.0963,16.0963,16.1,16.1147,16.1036,16.1,16.1147,16.1036,16.0963,16.0963,16.0963,16.0963,16.0963,16.0963,16.0963,16.0963,16.0963,16.0905,16.0905,16.0905,15.9471,15.6992,15.6992,15.6294,15.4979,15.3676,15.3188,15.3479,15.6876,15.8284,15.9146,16.5725,16.8163,16.875,17.2049,17.3169,17.3169,17.3169,17.3169,17.3169,17.3169,17.3169,17.3169,17.3169,17.3169,17.3235,17.3235,17.3235,17.3235,17.3235,17.3235,17.3169,17.3169,17.3169,17.3629,17.4983,17.4221,17.3695,17.5115,17.5416,17.5416,17.5416,17.6627,17.7548,17.7548,17.7416,17.689,17.5482,17.5284,17.4693,17.3191,16.9971,16.6629,16.3366,15.9961,15.6633,15.3328,15.3188,15.3188,15.3188,15.3188,15.3188,15.3188,15.3188,15.3188,15.3188,15.3188,15.3188,16.8907,16.8518,16.6958,16.2143,16.0801,15.9383,15.4668,15.7563,16.0838,15.9552,16.1096,16.2719,16.2719,16.1082,15.9937,16.0788,16.0963,16.0497,15.9181,16.0148,16.0497,15.9181,16.0148,16.0963,16.0963,16.0963,16.1908,16.4284,16.2249,16.198,16.432,16.2235,16.0963,16.0963,16.0963,16.0963,16.0963,16.0963,16.0963,16.0963,16.0963,16.0497,15.9646,16.0555,15.953,15.705,15.705,15.6316,15.5037,15.3735,15.3188,15.3293,15.4428,15.6261,15.8516,16.074,16.4356,16.8314,16.9449,17.1316,17.3169,17.3169,17.3169,17.3169,17.3169,17.3169,17.3169,17.3169,17.3169,17.3169,17.3169,17.3169,17.3169,17.3169,17.3169,17.3169,17.3169,17.3169,17.3301,17.3827,17.3498,17.3366,17.3827,17.472,17.535,17.535,17.6561,17.7482,17.7482,17.6627,17.5876,17.5378,17.4457,17.3695,17.3235,17.0085,16.7665,16.6599,16.3398,16.1061,15.99,15.772,15.6565,15.6565,15.4325,15.4255,15.6531,15.4255,15.3188,15.3188,15.3188,15.3188,16.6913,16.6422,16.5133,15.9827,15.7427,15.5641,15.2603,15.4258,15.6142,15.527,15.7457,15.9704,16.0206,15.953,15.9413,16.073,16.0963,16.0323,15.8599,15.9857,16.0323,15.8541,15.9879,16.0963,16.0963,16.0963,16.1871,16.4178,16.1765,16.1475,16.4213,16.1729,16.0497,16.0905,16.0963,16.0963,16.0963,16.0963,16.0963,16.0963,16.0963,16.0264,15.9006,15.9879,15.9064,15.705,15.705,15.6316,15.5037,15.4258,15.3618,15.3188,15.3188,15.4497,15.6539,15.7813,16.0933,16.4937,16.7311,16.9564,17.1567,17.2841,17.3169,17.3169,17.3169,17.3169,17.3169,17.3169,17.3169,17.3169,17.3169,17.3169,17.3169,17.3169,17.3169,17.3169,17.3169,17.3169,17.3366,17.3893,17.3564,17.3366,17.3893,17.4325,17.4589,17.4589,17.5312,17.6101,17.6627,17.5904,17.535,17.535,17.4523,17.3761,17.3235,17.1232,16.9449,16.8256,16.621,16.4541,16.3335,16.1189,16.0059,16.0059,15.6708,15.664,16.0059,15.7853,15.6193,15.4955,15.4955,15.4325,16.3081,16.2559,16.1811,15.5684,15.3763,15.3281,15.3107,15.4142,15.5095,15.5037,15.6119,15.7399,15.8599,15.8831,15.9239,16.0614,16.0788,15.9879,15.7399,15.9181,15.9762,15.7225,15.9239,16.0846,16.0846,16.0905,16.0905,16.0846,15.9704,15.953,16.0672,15.953,15.9471,16.0788,16.0846,16.0846,16.0963,16.0963,16.0963,16.0963,16.0963,16.0264,15.889,15.8948,15.8272,15.705,15.6992,15.6294,15.5095,15.5095,15.4374,15.3188,15.3188,15.3188,15.3549,15.6775,15.8052,15.9146,16.5635,16.8051,16.8692,17.2077,17.3169,17.3169,17.3169,17.3169,17.3169,17.3169,17.3169,17.3169,17.3169,17.3169,17.3169,17.3169,17.3169,17.3169,17.3169,17.3169,17.3629,17.4983,17.4156,17.3629,17.4956,17.409,17.3169,17.3169,17.3169,17.3695,17.5021,17.5219,17.5219,17.5219,17.5219,17.4654,17.3301,17.3169,17.1855,16.8605,16.8431,16.7015,16.3925,16.3646,16.3553,16.3553,16.0415,16.035,16.3553,16.3366,16.154,15.8218,15.8218,15.643,16.1287,16.2058,16.2293,15.5806,15.4822,15.4816,15.2263,15.3467,15.4862,15.3851,15.548,15.6876,15.62,15.6084,15.6876,15.9122,15.8715,15.7806,15.7166,15.7632,15.7457,15.5793,15.7923,15.9471,15.9471,16.0381,16.0555,15.953,15.9181,15.8715,15.8133,15.7748,15.8191,15.9471,15.9471,15.9937,16.0963,16.0963,16.0963,16.0963,16.0963,15.9762,15.7574,15.8599,15.8272,15.6992,15.6026,15.5444,15.5095,15.5095,15.4374,15.3188,15.3188,15.3188,15.3293,15.4175,15.6057,15.8845,16.3024,16.612,16.8692,17.2077,17.3169,17.3169,17.3169,17.3169,17.3169,17.3169,17.3169,17.3169,17.3169,17.3169,17.3169,17.3169,17.3169,17.3169,17.3169,17.3169,17.3301,17.3695,17.3432,17.3301,17.3695,17.3432,17.3169,17.3169,17.3169,17.3301,17.3695,17.3761,17.3761,17.3761,17.3761,17.3564,17.3235,17.3169,17.2869,17.1966,17.191,17.1511,17.0689,16.8256,16.6926,16.6926,16.6056,16.6026,16.6926,16.448,16.154,15.8218,15.8218,15.643,16.229,16.1408,15.9856,15.5346,15.4122,15.3964,15.3527,15.3869,15.3909,15.2571,15.3502,15.4316,15.3525,15.3874,15.4956,15.6992,15.8443,15.8762,15.7266,15.8361,15.8491,15.624,15.7748,15.8773,15.825,15.9297,15.953,15.825,15.7632,15.7225,15.705,15.6527,15.6817,15.8133,15.8191,15.9511,16.235,16.087,16.1162,16.3236,16.1652,15.9879,15.7923,15.8039,15.7457,15.6178,15.5444,15.5095,15.5095,15.5095,15.4688,15.3967,15.3421,15.3188,15.3188,15.3188,15.4359,15.6531,15.9896,16.3211,16.6569,16.9914,17.1994,17.3169,17.3169,17.3169,17.3169,17.3169,17.3169,17.3169,17.3169,17.3169,17.3169,17.3169,17.3169,17.3169,17.3169,17.3169,17.3169,17.3169,17.3169,17.3169,17.3169,17.3169,17.3169,17.3169,17.3169,17.3169,17.3169,17.3169,17.3169,17.3169,17.3169,17.3169,17.3169,17.3169,17.3169,17.3169,17.3169,17.3169,17.3169,17.1372,17.0341,17.0341,17.0341,17.0341,17.0341,16.8553,16.5909,16.2585,16.2585,16.0775,16.3824,16.0304,15.621,15.4508,15.2819,15.2291,15.5012,15.4328,15.2804,15.1524,15.1117,15.1001,15.1001,15.1873,15.3095,15.4397,15.821,16.0075,15.7351,15.9834,16.0698,15.7351,15.827,15.8558,15.697,15.7981,15.825,15.6934,15.5735,15.5502,15.6468,15.5444,15.5444,15.6759,15.6817,15.8891,16.3251,16.0431,16.1114,16.5195,16.2335,16.0264,15.8948,15.7668,15.6433,15.5386,15.5211,15.5037,15.4862,15.5037,15.5037,15.4746,15.3618,15.3188,15.3188,15.3188,15.3188,15.3654,15.7044,16.0479,16.3832,16.7075,17.0397,17.3169,17.3169,17.3169,17.3169,17.3169,17.3169,17.3169,17.3169,17.3169,17.3169,17.3169,17.3169,17.3169,17.3169,17.3169,17.3169,17.3169,17.3169,17.3169,17.3169,17.3169,17.3169,17.3169,17.3169,17.3169,17.3169,17.3169,17.3169,17.3169,17.3169,17.3169,17.3169,17.3038,17.2972,17.3169,17.3038,17.2972,17.3169,17.3169,17.3103,17.2906,17.3103,17.3169,17.3169,17.3169,17.1455,16.8104,16.8104,16.6419,16.0726,15.8162,15.4972,15.3049,15.3125,15.3395,15.2359,15.2616,15.2804,15.1524,15.0385,14.9594,14.9594,14.9803,15.0385,15.1699,15.3905,15.5723,15.6175,15.9058,15.9954,15.6627,15.8476,15.8782,15.5728,15.6643,15.6876,15.556,15.527,15.4746,15.3909,15.3618,15.4142,15.5386,15.5444,15.6382,15.8286,15.875,15.9391,16.0254,16.0732,16.0264,15.8948,15.7668,15.6934,15.6701,15.556,15.4514,15.356,15.463,15.4455,15.3502,15.3304,15.3188,15.3188,15.3188,15.3188,15.3654,15.7044,16.0479,16.3832,16.7075,17.0397,17.3169,17.3169,17.3169,17.3169,17.3169,17.3169,17.3169,17.3169,17.3169,17.3169,17.3169,17.3169,17.3169,17.3169,17.3169,17.3169,17.3169,17.3169,17.3169,17.3169,17.3169,17.3169,17.3169,17.3169,17.3169,17.3169,17.3169,17.3169,17.3169,17.3169,17.3169,17.3169,17.2117,17.1919,17.3103,17.2117,17.1985,17.3103,17.3169,17.2643,17.1432,17.2577,17.3169,17.3169,17.3169,17.1455,16.8104,16.8104,16.6419,16.1213,15.7173,15.291,15.2593,15.282,15.3969,15.7185,15.5726,15.3223,15.1555,15.1561,15.1124,14.8805,14.9749,15.1005,15.1656,15.3139,15.5278,15.8093,15.9394,15.9673,15.8629,15.8265,15.7393,15.576,15.5288,15.4782,15.4142,15.4142,15.3851,15.3211,15.3188,15.3444,15.4084,15.4142,15.5593,15.8758,15.8263,15.8907,16.0714,16.0159,15.9588,15.9079,16.027,15.9056,15.5967,15.4665,15.4142,15.42,15.4142,15.4142,15.4142,15.3479,15.3188,15.3188,15.3188,15.3188,15.3433,15.5024,15.7787,16.0901,16.2459,16.6386,17.0576,17.0576,17.1827,17.3169,17.3169,17.3169,17.3169,17.3169,17.3169,17.3169,17.3169,17.3169,17.3169,17.3169,17.3169,17.3169,17.3169,17.3169,17.3169,17.3169,17.3169,17.3169,17.3169,17.3169,17.2906,17.2183,17.2117,17.1788,17.1038,17.0972,17.1235,17.2051,17.1432,17.1629,17.3103,17.1854,17.1366,17.2051,17.2117,17.1761,17.1038,17.2446,17.3169,17.3169,17.3169,17.2391,17.0773,17.0773,16.9943,16.0984,15.7006,15.2995,15.3313,15.3137,15.4213,15.9634,15.6955,15.304,15.2101,15.2341,15.1625,14.8191,14.9511,15.1326,15.1703,15.3314,15.5927,15.997,16.0735,16.0974,16.139,15.8854,15.7008,15.6619,15.4267,15.2862,15.3188,15.2955,15.2862,15.3188,15.3188,15.3188,15.3188,15.3188,15.5002,15.8809,15.7351,15.7997,16.075,16.0306,15.9569,15.8707,16.1176,15.9686,15.5037,15.3735,15.3735,15.463,15.3618,15.3793,15.4572,15.356,15.3188,15.3188,15.3188,15.3188,15.3188,15.3188,15.5401,15.8218,15.8218,16.2742,16.8104,16.8104,17.0547,17.3169,17.3169,17.3169,17.3169,17.3169,17.3169,17.3169,17.3169,17.3169,17.3169,17.3169,17.3169,17.3169,17.3169,17.3169,17.3169,17.3169,17.2972,17.2709,17.2709,17.2511,17.1854,17.0775,17.0577,17.0183,16.9038,16.8907,16.9367,17.0511,17.0314,17.0709,17.2183,17.0933,17.0248,17.0577,17.0314,17.0248,17.0577,17.2051,17.2906,17.3169,17.3169,17.3169,17.3169,17.3169,17.3169,15.6615,15.7657,15.8431,15.6058,15.5165,15.4126,15.1249,15.0631,15.126,15.3591,15.0906,14.7998,14.7603,14.7747,14.8523,15.0155,15.3025,15.6149,15.9394,16.3416,16.5459,16.3742,16.1776,15.9847,15.8214,15.4006,15.1931,15.3072,15.2106,15.1931,15.313,15.3188,15.3188,15.3188,15.3188,15.3421,15.3794,15.4807,15.5447,15.5837,16.1235,16.1481,15.7225,15.636,15.5683,15.5037,15.3735,15.3211,15.3327,15.3246,15.3246,15.3327,15.3211,15.3188,15.3188,15.3188,15.3188,15.3188,15.3188,15.5401,15.8218,15.8218,16.2742,16.8104,16.8104,17.0547,17.3169,17.3169,17.3169,17.3169,17.3169,17.3169,17.3169,17.3169,17.3169,17.3169,17.3169,17.3169,17.3169,17.3169,17.3169,17.3169,17.3169,17.2117,17.1235,17.1235,17.0117,16.9235,16.9104,16.9104,16.9038,16.8907,16.8907,16.8972,16.9104,16.7908,16.7776,16.9235,16.7973,16.775,16.9038,16.7881,16.7776,16.9104,17.0511,17.1919,17.3169,17.3169,17.3169,17.3169,17.3169,17.3169,15.9578,15.8531,15.7464,15.8014,15.744,15.6064,15.3419,15.2097,15.1983,15.3822,15.2747,15.1526,15.1526,15.0252,15.0281,15.3728,15.3116,15.4647,16.1607,16.2595,16.2952,16.4077,16.2633,16.0765,15.8737,15.5985,15.4017,15.3212,15.2688,15.2629,15.3188,15.3188,15.3188,15.3188,15.3188,15.3188,15.3188,15.4455,15.4746,15.4003,15.721,15.7316,15.483,15.7198,15.6695,15.3909,15.3421,15.3188,15.3328,15.5367,15.6227,15.6227,15.6227,15.5014,15.3188,15.3188,15.3188,15.3188,15.3188,15.4071,15.5161,15.5161,15.9738,16.518,16.518,16.8959,17.3169,17.3169,17.3169,17.3169,17.3169,17.3169,17.3169,17.3169,17.3169,17.3169,17.3169,17.3169,17.3169,17.3169,17.3169,17.2906,17.2051,17.1432,17.0775,16.992,16.9301,16.8907,16.8907,16.8144,16.7618,16.7618,16.6803,16.6606,16.7552,16.7118,16.7355,16.8841,16.7552,16.6566,16.6277,16.6566,16.7053,16.7618,16.9065,17.0051,17.0643,17.1498,17.1919,17.1919,17.2774,17.3169,16.1305,15.9682,15.8117,16.0038,15.9468,15.8086,15.6875,15.4463,15.2456,15.2411,15.2524,15.2969,15.3952,15.2645,15.2291,15.5048,15.4126,15.5414,16.213,16.1995,16.2152,16.4793,16.3242,16.1623,16.102,15.8249,15.639,15.6218,15.4133,15.3401,15.4611,15.3338,15.2746,15.3188,15.3188,15.3188,15.3188,15.4084,15.4084,15.3188,15.5534,15.544,15.3258,15.6699,15.64,15.3188,15.3188,15.3188,15.3468,15.6809,15.8845,15.9734,15.9734,15.8284,15.6057,15.5024,15.467,15.4532,15.3514,15.3188,15.3363,15.4325,15.8554,16.346,16.4449,16.8699,17.3169,17.3169,17.3169,17.3169,17.3169,17.3169,17.3169,17.3169,17.3169,17.3169,17.3169,17.3169,17.3169,17.3169,17.284,17.2248,17.1235,17.038,16.9459,16.8407,16.7855,16.7592,16.7592,16.6671,16.6106,16.6106,16.5093,16.4896,16.5974,16.6106,16.65,16.7526,16.6632,16.5554,16.4476,16.5514,16.6329,16.679,16.775,16.8473,16.8907,16.992,17.0446,17.0446,17.1459,17.2183,15.9768,16.1214,16.2266,16.2266,16.1,15.9789,16.0066,15.6514,15.222,14.8898,14.8783,15.0343,15.3557,15.4146,15.3665,15.2465,15.6408,15.9696,15.9843,16.2451,16.5002,16.6592,16.3807,16.2811,16.5655,16.0408,15.8613,16.2869,15.6372,15.3966,15.7971,15.3777,15.1815,15.313,15.3188,15.3188,15.3188,15.3188,15.3188,15.3223,15.802,15.779,15.3188,15.3223,15.3223,15.3188,15.3188,15.3188,15.3468,15.6809,16.0221,16.3242,16.3242,16.3211,16.2773,15.9408,15.8185,15.7713,15.4325,15.3188,15.3724,15.7078,16.0512,16.3894,16.7104,17.0454,17.3169,17.3169,17.3169,17.3169,17.3169,17.3169,17.3169,17.3169,17.3169,17.3169,17.3169,17.3169,17.3169,17.3169,17.2051,17.1038,17.1038,16.8697,16.679,16.679,16.5488,16.4476,16.4476,16.4476,16.4476,16.4476,16.4476,16.4476,16.4476,16.4476,16.4476,16.4476,16.4476,16.4476,16.4476,16.4476,16.5225,16.6724,16.679,16.7487,16.8907,16.8907,16.8972,16.8972,16.8972,16.9722,15.6834,15.9004,16.0845,16.0845,16.1925,16.2227,15.9329,15.5097,15.16,15.1261,14.9836,15.018,15.5139,15.1752,14.9874,15.4586,15.6085,15.7314,15.9473,16.2516,16.4607,16.5093,16.5158,16.4634,16.323,16.3094,16.2705,16.1748,16.0476,16.0344,16.1606,15.7221,15.4886,15.5303,15.3044,15.1873,15.1873,15.2746,15.3188,15.3188,15.3821,15.3752,15.3188,15.3188,15.3188,15.3188,15.3188,15.4497,15.6876,16.0257,16.3615,16.6629,16.6629,16.5274,16.3148,16.208,16.1667,16.154,16.045,16.0063,16.0257,16.1317,16.3894,16.6807,16.7812,17.0547,17.3169,17.3169,17.3169,17.3169,17.3169,17.3169,17.3169,17.3169,17.3169,17.3169,17.3169,17.3169,17.2906,17.1919,17.1366,17.0446,16.85,16.7381,16.6395,16.5356,16.4765,16.4476,16.4476,16.5356,16.5645,16.4541,16.4476,16.4476,16.4476,16.5422,16.558,16.4476,16.4476,16.4476,16.4476,16.4476,16.4673,16.5159,16.5159,16.5422,16.5882,16.6961,16.7447,16.7487,16.8446,16.917,15.6965,15.8412,15.9596,16.0714,16.2332,16.2529,15.824,15.49,15.2981,15.3543,15.2753,15.2962,15.6286,15.4464,15.2991,15.4514,15.639,15.7737,15.8013,16.0698,16.3101,16.428,16.5291,16.533,16.3797,16.4705,16.502,16.4025,16.2727,16.1939,16.1748,15.7745,15.4893,15.3693,15.2086,15.0966,15.0501,15.135,15.2566,15.4326,15.2239,15.1641,15.2455,15.292,15.3188,15.3188,15.3188,15.4359,15.664,16.1349,16.4448,16.6569,16.9104,16.8843,16.6901,16.5607,16.5152,16.4969,16.3739,16.3304,16.3491,16.4755,16.6509,16.8402,16.965,17.1511,17.3169,17.3169,17.3169,17.3169,17.3169,17.3169,17.3169,17.3169,17.3169,17.3169,17.3169,17.2774,17.2117,17.1235,17.021,16.8894,16.7118,16.6329,16.558,16.4607,16.4476,16.4476,16.4476,16.5291,16.5488,16.4541,16.4476,16.4476,16.4476,16.5908,16.6106,16.4541,16.5028,16.5093,16.4476,16.4476,16.4476,16.4476,16.4476,16.4476,16.4476,16.5422,16.5908,16.5908,16.6803,16.7526,15.8979,15.8938,15.8766,16.124,16.1897,16.0977,15.6965,15.5834,15.557,15.5535,15.6596,15.738,15.6973,16.0542,16.0851,15.2716,15.7387,16.0424,15.5942,15.8381,16.1614,16.4426,16.4673,16.5159,16.6461,16.5422,16.5817,16.8709,16.3648,16.0321,16.0074,15.6509,15.3133,15.0106,15.09,15.0879,14.9772,14.9713,15.179,15.6115,15.2841,15.1279,15.1462,15.2653,15.3095,15.3072,15.3293,15.3456,15.4013,16.0457,16.3304,16.4264,17.0434,17.2978,17.2776,16.965,16.8518,16.8046,16.5061,16.4018,16.451,16.7518,16.8518,16.9132,17.2215,17.3169,17.3169,17.3169,17.3169,17.3169,17.3169,17.3169,17.3169,17.3169,17.3169,17.3169,17.3038,17.1985,17.0972,17.0775,16.8631,16.6724,16.6658,16.5422,16.4476,16.4476,16.4476,16.4476,16.4476,16.4476,16.4476,16.4476,16.4476,16.4476,16.4476,16.5777,16.5974,16.4541,16.5843,16.5974,16.4476,16.4476,16.4476,16.4476,16.4476,16.4476,16.4476,16.4476,16.4476,16.4476,16.4476,16.5225,15.51,15.7401,15.9333,15.7754,15.824,15.8766,15.7779,15.573,15.4352,15.5343,15.4876,15.4902,15.6827,15.9141,15.9018,15.3628,15.8491,16.1543,15.7474,16.3556,16.8249,16.7907,16.6895,16.5908,16.5093,16.5777,16.6961,16.8775,16.7571,16.7251,16.8221,16.1744,15.7664,15.6886,15.4674,15.3844,15.46,15.3545,15.3547,15.4628,15.2327,15.1997,15.3441,15.3293,15.2629,15.1838,15.4338,15.6021,15.726,16.0246,16.3658,16.7163,16.8692,17.0914,17.3087,17.227,17.2021,17.191,17.1148,17.0923,17.1007,17.1772,17.2021,17.2132,17.2978,17.3169,17.3169,17.3169,17.3169,17.3169,17.3169,17.3169,17.3169,17.3169,17.3169,17.2906,17.1788,17.1301,17.0407,16.8171,16.725,16.6395,16.5225,16.4673,16.4476,16.4476,16.4476,16.4476,16.4476,16.4476,16.4476,16.4476,16.4476,16.4476,16.4476,16.4739,16.483,16.4476,16.483,16.483,16.4476,16.4476,16.4476,16.4476,16.4476,16.4476,16.4476,16.4476,16.4476,16.4476,16.4476,16.4607,15.5387,15.7426,15.8675,15.6439,15.699,15.7845,15.7187,15.6781,15.6833,15.7533,15.8042,15.8798,16.0276,16.1127,16.1084,15.9649,15.9506,15.9834,16.0434,16.181,16.4326,16.8416,16.7026,16.5882,16.6474,16.6014,16.6014,16.6803,16.6869,16.6576,16.5935,16.2362,15.8734,15.5202,15.4508,15.3552,15.2311,15.292,15.4015,15.556,15.2606,15.1967,15.3235,15.32,15.2455,15.1406,15.5363,15.6654,15.6235,16.0329,16.3544,16.5996,16.6816,16.9616,17.3103,17.2446,17.2643,17.3169,17.3169,17.3169,17.3169,17.3169,17.3169,17.3169,17.3169,17.3169,17.3169,17.3169,17.3169,17.3169,17.3169,17.2709,17.238,17.3038,17.2709,17.1985,17.1235,17.0511,16.9394,16.7184,16.6171,16.5422,16.4607,16.4476,16.4476,16.4476,16.4476,16.4476,16.4476,16.4476,16.4476,16.4476,16.4476,16.4765,16.5422,16.4896,16.4765,16.5514,16.483,16.4476,16.4476,16.4476,16.4476,16.4476,16.4476,16.4476,16.4476,16.4476,16.4476,16.4476,16.4476,16.4476,15.699,15.7713,15.745,15.6464,15.7122,15.7779,15.6768,15.8387,16.0162,16.0162,16.2266,16.4107,16.4107,16.3399,16.3537,16.5938,16.0073,15.7354,16.3266,15.9192,15.8935,16.7848,16.6474,16.5751,16.7986,16.5948,16.4541,16.4739,16.4567,16.339,16.0965,16.1392,15.877,15.2256,15.3663,15.2524,14.8293,15.1561,15.455,15.7177,15.3414,15.1763,15.1944,15.2554,15.2164,15.1173,15.5873,15.5997,15.3362,15.9413,16.2339,16.3148,16.4716,16.8544,17.3038,17.1854,17.2183,17.3169,17.3169,17.3169,17.3169,17.3169,17.3169,17.3169,17.3169,17.3169,17.3169,17.3169,17.3169,17.3103,17.2906,17.2117,17.1656,17.2643,17.1919,17.0972,17.0775,16.9591,16.8144,16.6698,16.5382,16.4476,16.4476,16.4476,16.4476,16.4476,16.4476,16.4476,16.4476,16.4476,16.4476,16.4476,16.4476,16.5028,16.6329,16.5225,16.5028,16.6303,16.5159,16.4476,16.4476,16.4476,16.4476,16.4476,16.4476,16.4476,16.4476,16.4476,16.4476,16.4476,16.4476,16.4476,15.5782,15.6242,15.6439,15.745,15.7845,15.8305,15.9333,15.9833,16.0162,16.0162,16.1503,16.262,16.262,16.0424,15.9807,16.3541,15.9157,15.7446,16.3508,16.5646,16.7145,16.8734,16.7421,16.6106,16.5199,16.4739,16.5028,16.6329,16.5225,16.4845,16.5632,16.3174,16.1172,16.0033,15.7686,15.4831,15.1515,15.5655,15.7475,15.6873,15.4754,15.258,15.0595,15.1201,15.0792,14.98,15.4435,15.4563,15.1719,15.4472,15.7983,16.1685,16.1927,16.6632,17.3169,17.2972,17.2972,17.3169,17.3169,17.3169,17.3169,17.3169,17.3169,17.3169,17.3169,17.3169,17.3169,17.3169,17.3169,17.2906,17.1722,17.2117,17.2643,17.1629,17.1235,17.0709,16.9498,16.8144,16.6658,16.5093,16.4607,16.4476,16.4476,16.4476,16.4476,16.4476,16.4476,16.4476,16.4476,16.4476,16.4476,16.4476,16.4476,16.4541,16.4739,16.4607,16.4541,16.483,16.4567,16.4476,16.4476,16.4476,16.4476,16.4476,16.4476,16.4476,16.4476,16.4476,16.4476,16.4476,16.4476,16.4476,15.4113,15.5847,15.7253,15.7845,15.8042,15.8437,15.9859,15.9596,15.9201,16.0031,16.0688,16.1371,16.216,16.1129,16.1316,16.4808,16.4492,16.4003,16.4375,16.4926,16.6181,16.8615,16.6869,16.5882,16.6803,16.5396,16.4739,16.5422,16.483,16.4765,16.5488,16.4026,16.1637,15.8289,15.9041,15.7664,15.3852,15.6396,15.6274,15.3299,15.5564,15.5352,15.2841,15.2828,15.2467,15.2092,15.4969,15.5729,15.5014,15.5214,15.8736,16.3548,16.0208,16.3841,17.0906,17.0906,17.1366,17.2183,17.2906,17.3169,17.3038,17.2314,17.2024,17.2024,17.2024,17.2024,17.2183,17.2972,17.2643,17.1919,17.1235,17.0407,16.9749,16.9854,16.9328,16.8565,16.7881,16.725,16.6329,16.4765,16.4476,16.4476,16.4476,16.4476,16.4476,16.4476,16.4476,16.4476,16.4476,16.4476,16.4476,16.4476,16.4476,16.4476,16.4476,16.4476,16.4476,16.4476,16.4476,16.4476,16.4476,16.4476,16.4476,16.4476,16.4476,16.4476,16.4476,16.4476,16.4476,16.4476,16.4476,16.4476,15.3061,0.0,15.7122,15.745,15.7779,15.8437,0.0,15.9596,15.9358,16.0425,16.0688,16.0885,16.17,16.1228,16.1807,16.5173,16.7547,16.787,16.4853,16.4594,16.5914,16.9087,16.7132,16.6277,16.8183,16.6014,16.4476,16.4476,16.4476,16.4476,16.4476,16.4476,16.2264,15.7452,16.058,16.0391,15.6238,15.7825,15.6592,15.2535,15.6935,15.7233,15.3962,15.3789,15.3665,15.3721,15.4391,15.6122,15.8307,15.5712,15.8545,16.3894,15.842,16.0994,16.7744,16.7744,16.9158,17.1235,17.2314,17.2906,17.3038,17.1919,17.1301,17.1038,17.1038,17.084,17.0775,17.1854,17.1656,17.0906,17.0183,16.8697,16.7487,16.8276,16.7552,16.679,16.679,16.6526,16.5908,16.4673,16.4476,16.4476,16.4476,16.4476,16.4476,16.4476,16.4476,16.4476,16.4476,16.4476,16.4476,16.4476,16.4476,16.4476,16.4476,16.4476,16.4476,16.4476,16.4476,16.4476,16.4476,16.4476,16.4476,16.4476,16.4476,16.4476,16.4476,16.4476,16.4476,16.4476,16.4476,16.4476,0.0,15.3916,15.4376,15.5716,15.7056,15.8437,15.9859,16.1108,0.0,16.216,16.216,16.1766,16.0557,15.7962,15.7451,16.1881,16.2595,16.3017,16.4269,16.9034,17.2031,17.1011,16.9525,16.8144,16.7053,16.5422,16.4476,16.4476,16.4476,16.4476,16.4476,16.4476,16.4228,16.3771,16.4085,16.2688,15.9473,16.2382,16.2275,15.911,15.9497,15.6513,15.0645,15.1837,15.2341,15.2241,15.0546,15.3345,15.8621,15.2384,15.3747,15.9503,15.5946,15.8555,16.4396,16.4396,16.7229,17.1038,17.1169,17.2117,17.3169,17.3103,17.2117,17.1038,17.1038,17.0117,16.9104,16.917,17.0117,17.0446,16.7776,16.7947,16.8446,16.725,16.6855,16.679,16.679,16.5645,16.4567,16.4476,16.4476,16.4476,16.4476,16.4476,16.4476,16.4476,16.4476,16.4476,16.4476,16.4476,16.4476,16.4476,16.4476,16.4476,16.4476,16.4476,16.4476,16.4476,16.4476,16.4476,16.4476,16.4476,16.4476,16.4476,16.4476,16.4476,16.4476,16.4476,16.4476,16.4476,16.4476,16.4476,15.339,15.5034,15.6595,15.7122,15.7648,15.8634,16.0977,16.0516,16.0147,16.1963,16.1568,16.1108,16.1437,15.9781,15.9877,16.4372,16.4228,16.502,16.9299,17.1038,17.0939,16.8359,16.5166,16.3747,16.52,16.483,16.4476,16.4476,16.4476,16.4476,16.4476,16.4476,16.4476,16.4476,16.4476,16.2942,15.9843,16.2889,16.1877,15.6876,15.8885,15.8511,15.615,15.4666,15.5558,15.7951,15.5229,15.7079,0.0,15.4142,15.5038,16.0376,15.4216,15.5744,16.15,16.2425,16.5155,16.8565,16.9394,17.0117,17.0709,17.1591,17.0906,16.9722,16.9722,16.9367,16.8907,16.8907,16.9301,16.9262,16.7316,16.7184,16.7224,16.5685,16.5291,16.5291,16.5291,16.4896,16.4476,16.4476,16.4476,16.4476,16.4476,16.4476,16.4476,16.4476,16.4476,16.4476,16.4476,16.4476,16.4476,16.4476,16.4476,16.4107,16.3187,16.3976,16.3687,16.1872,16.3424,16.4016,16.3121,16.3976,16.4476,16.4476,16.4476,16.4476,16.4476,16.4476,16.4476,16.4476,16.4476,16.4476,15.339,15.5519,15.7385,15.7385,15.7713,15.8568,16.0541,15.9818,15.9398,16.1766,16.1503,16.128,16.2752,16.1806,16.1963,16.5448,16.5554,16.6408,16.992,17.0775,16.9875,16.6748,16.3791,16.2844,16.4977,16.4765,16.4476,16.4476,16.4476,16.4476,16.4476,16.4476,16.4476,16.4476,16.4476,16.343,16.1281,16.3404,16.2317,15.8114,16.0258,16.0726,15.9696,15.7544,15.8284,16.0943,15.7675,15.8961,16.2661,15.5231,15.4832,15.8299,15.1926,15.3055,15.8412,15.9392,16.2778,16.6921,16.7881,16.8512,16.9104,17.0051,16.9722,16.8907,16.8907,16.8578,16.8341,16.8775,16.8578,16.7947,16.6434,16.604,16.5777,16.4673,16.4476,16.4476,16.4476,16.4476,16.4476,16.4476,16.4476,16.4476,16.4476,16.4476,16.4476,16.4476,16.4476,16.4476,16.4476,16.4476,16.4476,16.4476,16.4476,16.3844,16.2423,16.2792,16.2266,16.0294,16.2003,16.2661,16.17,16.2595,16.3292,16.3778,16.3778,16.4041,16.4476,16.4476,16.4476,16.4476,16.4476,16.4476,15.3324,15.4771,15.5913,15.5913,15.699,15.7977,15.8042,15.9135,16.0557,16.2029,16.2292,16.2752,16.4147,16.3252,16.2752,16.4239,16.5711,16.6198,16.4699,16.8183,16.992,16.7026,16.6698,16.6724,16.6671,16.5291,16.441,16.4476,16.4476,16.4476,16.4476,16.441,16.441,16.441,16.4476,16.4476,16.4476,16.4476,16.4476,16.4476,16.4384,16.2809,15.9807,15.9815,15.9815,15.964,15.6562,15.7752,16.1405,15.4925,15.2319,15.2036,14.8776,15.0636,15.5095,15.5095,16.0031,16.6724,16.6724,16.7684,16.8907,16.8907,16.8907,16.8907,16.8907,16.7881,16.7053,16.8473,16.7815,16.6395,16.4896,16.4476,16.4476,16.4476,16.4476,16.4476,16.4476,16.4476,16.4476,16.4476,16.4476,16.4476,16.4476,16.4476,16.4476,16.4476,16.4476,16.4476,16.4476,16.4476,16.4476,16.4476,16.441,16.3844,16.2357,16.0977,16.0162,16.0162,16.0162,16.0162,16.0162,16.0162,16.082,16.2226,16.2292,16.3015,16.441,16.441,16.441,16.441,16.441,16.441,15.2123,15.4006,15.5913,15.5913,15.6176,15.6793,15.7779,15.8371,15.9358,16.1766,16.1503,16.1543,16.4016,16.2463,16.1609,16.4081,16.3121,16.2686,16.4213,16.5554,16.4884,16.0825,16.3192,16.3483,15.9257,16.1326,16.3384,16.4344,16.4476,16.4476,16.4476,16.3515,16.2949,16.2949,16.391,16.4476,16.4476,16.4476,16.4476,16.445,16.221,16.1796,16.2995,16.0818,16.1009,16.2995,16.2103,16.1202,16.0112,15.5981,15.2932,15.0557,14.7425,14.9862,15.5095,15.5095,15.9365,16.5159,16.5159,16.5422,16.5948,16.7026,16.7447,16.7447,16.7447,16.6369,16.5488,16.6961,16.5606,16.4027,16.5645,16.6106,16.5843,16.4673,16.4476,16.4476,16.4476,16.4476,16.4476,16.4476,16.4476,16.4476,16.4476,16.4476,16.4476,16.4476,16.4476,16.4476,16.4476,16.4476,16.4476,16.4476,16.2661,16.0845,15.9423,15.9859,15.9307,15.7294,15.9044,15.9727,15.87,15.9661,16.0359,16.082,16.082,16.1017,16.1411,16.1411,16.1411,16.1411,16.1411,16.1411,15.1334,15.3702,15.5913,15.5913,15.5913,15.611,15.699,15.7187,15.7845,16.0147,16.0385,16.0688,16.2438,16.2266,16.2043,16.2661,16.1806,16.124,16.1806,16.1897,16.0667,15.7325,15.9365,15.983,15.6819,15.9024,16.1174,16.2661,16.2726,16.2726,16.2726,16.1937,16.17,16.2292,16.3147,16.3844,16.4476,16.4476,16.4476,16.445,16.2569,16.2649,16.4358,16.2478,16.2676,16.4476,16.4476,16.2703,15.9529,15.6383,15.3175,14.9924,14.6838,14.8672,15.3357,15.4617,15.8256,16.2782,16.4046,16.4476,16.4607,16.558,16.5843,16.5974,16.6592,16.5711,16.4765,16.6303,16.5054,16.3581,16.5382,16.5843,16.5645,16.4673,16.4476,16.4476,16.4476,16.4476,16.4476,16.4476,16.4476,16.4476,16.4476,16.4476,16.4476,16.4476,16.4476,16.4476,16.4476,16.395,16.3581,16.3581,16.1543,15.9596,15.8174,15.828,15.7754,15.5979,15.7491,15.8083,15.7253,15.8017,15.8741,15.9333,15.9333,15.9596,16.0162,16.0162,16.0162,16.0162,16.0162,16.0162,15.0794,15.3636,15.5716,15.5847,15.5913,15.5913,15.5913,15.5913,15.6332,15.7713,15.8938,15.9833,16.0162,16.22,16.3055,16.0557,16.1174,16.1002,15.824,15.7713,15.7187,15.5847,15.5716,15.6242,15.7713,15.7977,15.8568,15.9924,16.0096,16.0031,15.9768,15.9899,16.0582,16.1897,16.2029,16.2792,16.4213,16.4081,16.4081,16.4278,16.4081,16.4081,16.4239,16.4081,16.4081,16.4278,16.4278,16.2507,15.9337,15.6354,15.3236,14.9924,14.6838,14.7471,15.0647,15.3929,15.7078,16.0231,16.3377,16.4476,16.4476,16.4476,16.4476,16.4765,16.6132,16.5514,16.4567,16.6132,16.5448,16.4278,16.441,16.4476,16.4476,16.4476,16.4476,16.4476,16.4476,16.4476,16.4476,16.4476,16.4476,16.4476,16.4476,16.4476,16.4476,16.4476,16.4476,16.4476,16.4476,16.3318,16.2423,16.216,16.0845,15.9398,15.7977,15.6661,15.5913,15.5913,15.5913,15.5913,15.5913,15.5913,15.6505,15.7845,15.7845,15.8503,15.9768,15.9768,15.9768,15.9768,15.9768,15.9768,15.0532,15.2888,15.4442,15.565,15.5913,15.5913,15.5913,15.5913,15.6332,15.7713,15.736,15.7491,15.9768,15.9727,15.9596,16.0096,15.9464,15.8371,15.6571,15.5387,15.4574,15.4245,15.4245,15.4771,15.6176,15.7385,15.8174,15.8437,15.953,15.9176,15.6965,15.7886,15.8634,15.8963,16.0056,16.128,16.2752,16.1674,16.1674,16.2752,16.1609,16.1674,16.2752,16.1609,16.1674,16.2752,16.2752,16.0971,15.7994,15.5949,15.3236,14.9924,14.6838,14.7471,15.0647,15.3899,15.7112,16.0231,16.3377,16.4476,16.4476,16.4476,16.4476,16.4476,16.483,16.391,16.3081,16.4567,16.391,16.3015,16.4173,16.4476,16.4476,16.4476,16.4476,16.4476,16.4476,16.4476,16.4476,16.4476,16.4476,16.4476,16.4476,16.4476,16.4476,16.4476,16.4476,16.4476,16.4476,16.4147,16.3121,16.0885,15.9333,15.7911,15.6464,15.6045,15.5913,15.5913,15.5913,15.5913,15.5913,15.5913,15.6045,15.6308,15.6373,15.6505,15.6834,15.6834,15.6834,15.6834,15.6834,15.6834,14.9591,15.2165,15.3916,15.4705,15.5387,15.5913,15.5913,15.5913,15.611,15.6858,15.699,15.736,15.8872,15.907,15.907,15.9135,15.7952,15.6793,15.5979,15.4072,15.3217,15.4574,15.4179,15.4311,15.5782,15.6595,15.699,15.699,15.7689,15.7491,15.5979,15.6571,15.7319,15.7977,15.8741,15.9859,16.1305,16.0557,16.0557,16.1305,16.0491,16.0557,16.124,16.0491,16.0557,16.1305,16.1305,16.0356,15.8697,15.6314,15.38,15.116,14.8038,14.7328,14.8415,15.1612,15.4796,15.8001,16.1145,16.3154,16.4476,16.4476,16.4476,16.4476,16.4476,16.391,16.3515,16.4213,16.391,16.3515,16.4278,16.4476,16.4476,16.4476,16.4476,16.4476,16.4476,16.4476,16.4476,16.4476,16.4476,16.4476,16.4476,16.4476,16.4476,16.4476,16.4476,16.4476,16.4476,16.4476,16.3358,16.0491,15.953,15.8215,15.6045,15.5913,15.5913,15.5913,15.5913,15.5913,15.5913,15.5913,15.5913,15.5913,15.5913,15.5913,15.5913,15.5913,15.5913,15.5913,15.5913,15.5913,14.8609,15.122,15.3127,15.3653,15.4639,15.5584,15.5847,15.5913,15.5913,15.5913,15.6858,15.7648,15.7648,15.8609,15.9135,15.8174,15.7056,15.6176,15.5913,15.3833,15.3044,15.4927,15.4335,15.4245,15.5387,15.5716,15.5913,15.5913,15.5913,15.5913,15.5913,15.5913,15.6464,15.7648,15.7648,15.8346,15.9793,15.957,15.957,15.9768,15.957,15.957,15.9768,15.957,15.957,15.9768,15.9768,15.9768,15.9566,15.6715,15.4321,15.2136,14.8997,14.6587,14.5298,14.8706,15.1617,15.4515,15.8419,16.1471,16.3653,16.3663,16.3713,16.3753,16.4016,16.4107,16.4147,16.4344,16.4476,16.4476,16.4476,16.4476,16.4476,16.4476,16.4476,16.4476,16.4476,16.4476,16.4476,16.4476,16.4476,16.4476,16.4476,16.4476,16.4476,16.4476,16.4476,16.4476,16.4476,16.4016,16.2701,16.0031,15.9768,15.8741,15.611,15.5913,15.5913,15.5913,15.5913,15.5913,15.5913,15.5913,15.5913,15.5913,15.5913,15.5913,15.5913,15.5913,15.5913,15.5913,15.5913,15.5913,14.8347,14.9732,15.0652,15.3127,15.3916,15.4376,15.5584,15.5913,15.5913,15.5913,15.6045,15.6176,15.6176,15.6308,15.6834,15.7845,15.7845,15.7319,15.6045,15.5584,15.4557,15.2452,15.3086,15.385,15.4048,15.5165,15.5913,15.5913,15.5913,15.5913,15.5913,15.5913,15.5979,15.6176,15.6176,15.6834,15.8305,15.7097,15.7097,15.8305,15.7031,15.7097,15.824,15.7031,15.7097,15.8305,15.8305,15.8305,15.8146,15.6264,15.387,15.0921,14.7692,14.4688,14.2756,14.6973,14.8803,15.0215,15.733,16.0065,16.0421,16.0683,16.0754,16.0951,16.2226,16.262,16.2884,16.4081,16.4476,16.4476,16.4476,16.4476,16.4476,16.4476,16.4476,16.4476,16.4476,16.4476,16.4476,16.4476,16.4476,16.4476,16.4476,16.4476,16.4476,16.4476,16.4476,16.4476,16.4476,16.2266,16.0122,15.8503,15.8305,15.7648,15.6045,15.5913,15.5913,15.5913,15.5913,15.5913,15.5913,15.5913,15.5913,15.5913,15.5913,15.5913,15.5913,15.5913,15.5913,15.5913,15.5913,15.5913,14.7456,14.8811,14.9798,15.1047,15.1968,15.2691,15.3373,15.4138,15.4705,15.4705,15.5979,15.7294,15.8149,15.7623,15.7582,15.9004,15.7886,15.6595,15.5979,15.519,15.4532,15.4072,15.3875,15.4048,15.4861,15.5519,15.5913,15.5913,15.5913,15.6242,15.7056,15.6308,15.5913,15.5913,15.5913,15.6201,15.6858,15.6176,15.6176,15.6858,15.6176,15.6242,15.6793,15.6176,15.6242,15.6858,15.6858,15.6858,15.676,15.603,15.4371,15.2043,14.8917,14.6269,14.4234,14.4478,14.5702,14.7964,15.3097,15.4867,15.5186,15.706,15.8833,16.0294,16.0885,16.1108,16.1214,16.1872,16.2595,16.3252,16.3252,16.3844,16.4476,16.4476,16.4476,16.4476,16.4476,16.4476,16.4476,16.4476,16.4476,16.4476,16.4476,16.4476,16.4476,16.4476,16.3778,16.2924,16.2135,16.0951,15.9661,15.8174,15.8042,15.745,15.5979,15.5913,15.5913,15.5913,15.5913,15.5913,15.5913,15.5124,15.4705,15.4705,15.3899,15.3504,15.3504,15.4269,15.4705,15.4705,15.5519,15.5913,14.6444,14.7693,14.9009,14.9403,15.0258,15.1202,15.1531,15.2428,15.3324,15.3653,15.5453,15.736,15.8781,15.8215,15.7977,15.9398,15.782,15.6464,15.6464,15.5519,15.4993,15.5321,15.4729,15.4466,15.4729,15.5453,15.5716,15.5387,15.5387,15.5979,15.7385,15.6464,15.5913,15.5913,15.5913,15.5913,15.5913,15.5913,15.5913,15.5913,15.5913,15.5913,15.5913,15.5913,15.5913,15.5913,15.5913,15.5913,15.5913,15.5913,15.4684,15.2634,15.0427,14.7738,14.4933,14.3048,14.3355,14.5077,14.7877,14.9392,15.0476,15.3599,15.6613,15.911,15.953,15.9661,15.9727,16.0096,16.0951,16.1766,16.1766,16.2792,16.391,16.391,16.4147,16.4344,16.3976,16.4213,16.4344,16.3976,16.4213,16.4344,16.3976,16.391,16.3778,16.345,16.2726,16.1766,16.0359,15.9505,15.8675,15.7582,15.7516,15.7056,15.5979,15.5913,15.5913,15.5913,15.5519,15.5387,15.5387,15.4006,15.3217,15.3217,15.2189,15.1597,15.1597,15.2691,15.3217,15.3193,15.4269,15.4795,14.55,14.6181,14.7628,14.914,14.9535,14.9929,15.1334,15.1663,15.2123,15.3456,15.385,15.4442,15.5847,15.6045,15.6464,15.7911,15.8042,15.7911,15.7911,15.7845,15.6858,15.4179,15.4993,15.4729,15.2057,15.4293,15.5321,15.3982,15.385,15.4508,15.5913,15.5913,15.5913,15.5913,15.5913,15.5913,15.5913,15.5913,15.5913,15.5913,15.5913,15.5913,15.5913,15.5913,15.5913,15.5913,15.5913,15.5913,15.5913,15.5913,15.4148,15.1518,15.136,14.771,14.2589,14.3733,14.2433,14.0364,14.2288,14.4764,14.7633,15.068,15.3669,15.6373,15.7713,15.8174,15.8437,15.9793,16.0228,16.0294,16.0294,16.1371,16.2423,16.2423,16.345,16.4107,16.2686,16.3515,16.4016,16.2686,16.3515,16.4041,16.2686,16.2423,16.1963,16.0622,16.1503,16.1766,16.0359,15.782,15.611,15.5979,15.5979,15.5979,15.5913,15.5913,15.5913,15.5913,15.4574,15.385,15.385,15.2494,15.1728,15.1728,15.1663,15.1597,15.1597,15.1663,15.1728,15.1728,15.1794,15.186,14.6049,14.6115,14.5895,14.6487,14.6618,14.697,14.8417,14.9535,15.0389,15.0916,15.3217,15.5321,15.5782,15.6661,15.745,15.7977,15.7253,15.6661,15.6661,15.6661,15.6308,15.5256,15.5584,15.5124,15.3193,15.3916,15.4311,15.3785,15.3785,15.4376,15.5847,15.5913,15.5913,15.5913,15.5913,15.5913,15.5913,15.5913,15.5913,15.5913,15.5913,15.5913,15.5913,15.5913,15.5913,15.5913,15.5913,15.5913,15.5913,15.5913,15.5305,15.4148,15.2186,15.0105,14.7724,14.434,14.2379,14.15,14.223,14.3119,14.4491,14.7557,15.0559,15.3488,15.5944,15.6661,15.6768,15.7294,15.8083,15.8807,15.8807,15.9859,16.0911,16.0911,16.1346,16.1543,16.1017,16.1346,16.1543,16.1017,16.1346,16.1543,16.1042,16.0911,16.1108,16.1503,16.0385,15.9029,15.7623,15.6505,15.5913,15.5913,15.5913,15.5913,15.5913,15.5913,15.5519,15.4574,15.4048,15.3349,15.2428,15.0981,15.0258,15.0258,14.9295,14.8769,14.8745,14.9732,15.0258,15.0258,15.1202,15.1597,14.5458,14.5721,14.5632,14.5106,14.4646,14.4646,14.6115,14.7233,14.8262,14.9272,15.177,15.4006,15.4993,15.5979,15.6793,15.7253,15.653,15.5913,15.5913,15.5913,15.5913,15.5913,15.5913,15.5321,15.3916,15.3324,15.2823,15.2338,15.2338,15.2954,15.4401,15.4927,15.519,15.519,15.565,15.5913,15.5913,15.5913,15.5913,15.5913,15.5913,15.5913,15.5913,15.5913,15.5913,15.5913,15.5913,15.5913,15.5913,15.5913,15.5913,15.5675,15.3704,15.2316,15.0968,14.6943,14.5441,14.5064,14.3119,14.306,14.4201,14.6295,14.8961,15.2004,15.4991,15.5913,15.5913,15.5913,15.6595,15.7319,15.7319,15.8346,15.9464,15.9464,15.9833,16.0031,15.953,15.9833,16.0031,15.953,15.9859,16.0031,15.953,15.9464,15.9793,16.0739,15.8832,15.699,15.5979,15.5913,15.5913,15.5913,15.5913,15.5913,15.5913,15.5453,15.4795,15.385,15.2864,15.1902,15.0939,14.9469,14.868,14.868,14.7693,14.7167,14.7167,14.8219,14.868,14.8745,14.969,15.015,14.3507,14.4757,14.651,14.5237,14.3879,14.3179,14.4711,14.504,14.5829,14.8745,14.9403,15.0258,15.3127,15.3653,15.4179,15.5584,15.5847,15.5847,15.5913,15.5913,15.5913,15.5913,15.5913,15.5387,15.3982,15.2494,15.1071,14.9732,14.9535,15.0126,15.1531,15.2954,15.3719,15.3719,15.5058,15.5782,15.5847,15.5847,15.5847,15.5913,15.5913,15.5913,15.5913,15.5913,15.5913,15.5913,15.5913,15.5913,15.5913,15.5913,15.5913,15.5913,15.5913,15.4148,15.1548,15.1484,15.1431,15.0559,14.4722,14.4549,14.6971,14.7055,14.9078,15.2004,15.4991,15.5913,15.5979,15.5979,15.5979,15.5979,15.5979,15.699,15.7977,15.7977,15.9004,15.9636,15.824,15.907,15.9636,15.824,15.907,15.9596,15.824,15.7977,15.7977,15.7977,15.6793,15.5913,15.5913,15.5913,15.5913,15.5913,15.5913,15.5847,15.5847,15.4574,15.3719,15.3653,15.1023,14.9469,14.9403,14.7956,14.7167,14.7167,14.7167,14.7167,14.7167,14.7167,14.7167,14.7167,14.7167,14.7167,13.9737,13.9605,14.0087,14.2784,14.2367,14.2235,14.5721,14.5763,14.5237,14.6092,14.7102,14.8351,15.0324,15.1507,15.2691,15.4113,15.4311,15.4705,15.5716,15.5913,15.5913,15.5913,15.5913,15.5716,15.5387,15.311,15.1926,15.2535,15.0629,15.0126,15.1531,15.1992,15.2189,15.2189,15.2583,15.3283,15.4311,15.4311,15.4861,15.5913,15.5913,15.5913,15.5913,15.5913,15.5913,15.5913,15.5913,15.5913,15.5913,15.5913,15.5913,15.5913,15.5913,15.5404,15.443,15.234,15.0835,14.9656,14.8003,14.7186,14.7306,14.9512,15.0782,15.2004,15.4991,15.6595,15.745,15.745,15.745,15.745,15.745,15.699,15.6505,15.6505,15.6768,15.6965,15.6595,15.6768,15.6965,15.6571,15.6834,15.6965,15.6571,15.6505,15.6505,15.6505,15.611,15.5913,15.5913,15.5913,15.5913,15.5913,15.5913,15.5453,15.4442,15.3982,15.2864,15.076,14.9929,14.9009,14.7825,14.7365,14.7167,14.7167,14.7167,14.7167,14.7167,14.7167,14.7167,14.7167,14.7167,14.7167,13.5462,13.5199,13.5221,13.772,13.7698,13.8027,14.1863,14.2038,14.1775,14.2936,14.3879,14.5326,14.8022,14.9206,15.0455,15.2559,15.339,15.4048,15.4902,15.5519,15.5913,15.5913,15.5913,15.565,15.5034,15.348,15.2362,15.2009,15.0455,14.9535,14.9755,15.0347,15.0742,15.0742,15.1334,15.2057,15.2888,15.2888,15.3283,15.4072,15.4072,15.4072,15.4072,15.4072,15.4072,15.4138,15.4729,15.4993,15.5058,15.565,15.5913,15.5847,15.5256,15.4993,15.4729,15.2452,15.1002,15.0076,14.8843,14.777,14.7312,14.9049,14.9635,15.0179,15.3224,15.5124,15.6242,15.6242,15.6242,15.6373,15.699,15.6045,15.519,15.5782,15.5913,15.5913,15.5913,15.5913,15.5913,15.5913,15.5913,15.5913,15.5913,15.5913,15.5913,15.5913,15.5913,15.5913,15.5913,15.5913,15.5913,15.5913,15.5913,15.5321,15.385,15.2667,15.122,14.96,14.8877,14.8088,14.7167,14.7167,14.7167,14.7167,14.7167,14.7167,14.7167,14.7167,14.7167,14.7167,14.7167,14.7167,13.0662,13.0925,13.0925,13.1385,13.1385,13.2043,0.0,13.5747,13.6536,13.9408,14.0131,14.1578,14.5852,14.6773,14.7825,15.0676,15.2362,15.339,15.3719,15.4837,15.565,15.565,15.565,15.5256,15.4113,15.385,15.2733,15.0389,14.9732,14.8943,14.7693,14.8614,14.9337,14.9469,15.0742,15.1531,15.186,15.1728,15.1728,15.186,15.1728,15.1597,15.1597,15.1597,15.1597,15.1663,15.2954,15.3522,15.3587,15.4861,15.5387,15.5321,15.3982,15.339,15.3127,15.1663,15.1202,15.0999,14.8338,14.7507,14.7635,14.7635,14.7635,14.8155,15.0811,15.2625,15.3785,15.3785,15.385,15.4245,15.5387,15.4705,15.4048,15.5124,15.5519,15.565,15.565,15.5782,15.5913,15.5913,15.5913,15.5913,15.5913,15.5913,15.5913,15.5913,15.5782,15.5716,15.5847,15.5782,15.565,15.565,15.565,15.5058,15.3653,15.1047,14.9403,14.9206,14.7891,14.7167,14.7167,14.7167,14.7167,14.7167,14.7167,14.7167,14.7167,14.7167,14.7167,14.7167,14.7167,14.697,0.0,0.0,0.0,0.0,0.0,0.0,0.0,13.1102,13.1956,13.4936,13.6449,13.8575,14.2915,14.4668,14.5961,14.7693,14.9337,15.1089,15.3456,15.3982,15.4179,15.4179,15.4179,15.4508,15.5387,15.4442,15.3982,15.4598,15.1442,14.9863,15.0676,14.8745,14.8154,14.9469,14.9732,15.0981,15.3324,15.2189,15.2189,15.3324,15.2189,15.1597,15.1597,15.1597,15.1597,15.1663,15.1926,15.2057,15.2057,15.232,15.2452,15.2386,15.2123,15.131,15.0126,14.8614,14.8811,14.9793,14.9205,14.9781,15.0762,15.0762,15.0762,15.0859,15.1454,15.2625,15.3785,15.3785,15.4598,15.5256,15.4376,15.3982,15.3522,15.2649,15.3349,15.4179,15.4179,15.5058,15.5913,15.5913,15.5913,15.5913,15.5913,15.5913,15.5913,15.5913,15.4927,15.4598,15.5716,15.4902,15.4179,15.4179,15.4179,15.3612,15.2189,15.0455,14.8943,14.7693,14.7299,14.7167,14.7167,14.7167,14.7167,14.7167,14.7167,14.7167,14.7167,14.7167,14.7167,14.7167,14.7167,14.5941,0.0,0.0,0.0,0.0,0.0,0.0,0.0,0.0,0.0,0.0,0.0,13.3642,13.8706,0.0,14.2739,14.5655,14.7365,14.9074,15.1286,15.2231,15.2691,15.2691,15.2691,15.2954,15.3702,15.3743,15.3719,15.3767,15.2428,15.1639,15.1597,15.0216,14.9732,15.0545,15.0545,15.1244,15.2691,15.1992,15.1639,15.1615,15.1639,15.0808,14.9427,15.0216,15.015,14.9361,14.9361,14.9821,15.0545,15.0545,15.1005,15.1465,14.9953,14.8943,14.8219,14.743,14.7628,14.8285,14.8285,14.8745,14.9361,14.9361,14.9361,14.9361,14.9361,15.0916,15.2691,15.2691,15.3743,15.4861,15.4861,15.4311,15.3587,15.2888,15.3193,15.3785,15.3785,15.4311,15.5058,15.5782,15.5913,15.5913,15.5913,15.5913,15.611,15.6858,15.5124,15.4311,15.5716,15.4006,15.2691,15.2691,15.2691,15.2099,15.0652,14.9863,14.8811,14.7233,14.7167,14.7167,14.7167,14.7167,14.6838,14.6115,14.6115,14.5721,14.502,14.502,14.502,14.502,14.5721,14.5326,0.0,0.0,0.0,0.0,0.0,0.0,0.0,0.0,0.0,0.0,0.0,0.0,0.0,0.0,0.0,14.3133,14.5195,14.697,14.8811,14.9798,15.0479,15.0742,15.1005,15.1334,15.1597,15.2691,15.2888,15.1728,15.2691,15.2823,15.1663,15.1597,15.1728,15.2057,15.2057,15.2189,15.2452,15.2189,15.1442,15.0324,15.1202,0.0,14.7628,14.8877,14.8614,14.7167,14.7167,14.7891,14.9009,14.9009,14.9732,15.0545,14.844,14.7628,14.7628,14.7891,14.7825,14.7628,14.7628,14.743,14.7167,14.7167,14.7167,14.7167,14.7167,14.8835,0.0,15.0742,15.1836,15.3193,15.4335,15.4006,15.3259,15.2996,15.3127,15.3259,15.2996,15.3127,15.3653,15.4861,15.5321,15.5519,15.5519,15.5256,15.5519,15.699,15.4993,15.4006,15.565,15.3373,15.1597,15.1597,15.14,15.0587,14.914,14.8811,14.8351,14.7628,14.7036,14.6605,14.6423,14.6357,14.5899,14.4822,14.4732,14.4421,14.385,14.3733,14.3705,14.3639,14.2038,14.1687,0.0,0.0,0.0,0.0,0.0,0.0,0.0,0.0,0.0,0.0,0.0,0.0,0.0,0.0,0.0,0.0,14.1578,14.4297,14.7036,14.6444,14.6224,14.7496,14.8877,15.0192,15.1531,15.1794,15.1794,15.1663,15.1794,15.1794,15.1597,15.1597,0.0,0.0,0.0,15.4138,15.5387,15.4113,15.3456,15.3259,15.2165,15.0808,14.9206,14.9403,14.8614,14.7167,14.7167,14.7233,14.743,14.743,14.7496,14.7759,14.8811,14.9206,14.9337,15.0676,15.0347,14.9206,14.9206,0.0,0.0,14.7167,14.7167,14.7167,14.7167,14.7365,14.7628,14.7628,14.8745,14.9995,15.0192,15.1047,15.1531,15.0258,15.0916,15.1531,15.0258,15.0981,15.1926,15.2057,15.3151,15.3982,15.3982,15.2954,15.2583,15.4048,15.2888,15.2847,15.5519,15.3373,15.1597,15.1597,15.0455,0.0,14.7562,14.6247,14.6552,14.9074,14.6684,14.4798,14.3758,14.3687,14.3878,14.4164,14.3689,14.4751,14.7398,14.6918,14.6641,14.6312,13.3687,12.9807,0.0,0.0,0.0,0.0,0.0,0.0,0.0,0.0,0.0,0.0,0.0,0.0,0.0,0.0,0.0,0.0,13.9079,14.0789,14.2016,14.2367,14.309,14.4494,14.5217,14.5875,14.6467,14.8045,14.9032,14.9032,15.061,15.1597,15.1597,15.2428,15.3127,15.3719,15.4574,15.5321,15.5913,15.5321,15.4574,15.3785,15.4006,15.2912,15.0742,15.0742,14.9887,14.8417,14.7562,14.7167,14.7167,14.7167,14.7167,14.7233,0.0,0.0,0.0,0.0,14.8614,14.8285,14.9206,14.9074,14.8482,14.8482,14.8482,14.8351,14.743,14.7759,14.8482,14.8482,14.96,15.0742,15.0742,15.177,15.2296,14.9995,15.0587,15.1202,14.9798,14.9929,15.061,15.1465,15.2123,0.0,15.1442,15.1442,15.2123,15.3522,15.1836,15.1376,15.4245,15.1376,14.9337,15.0282,14.9009,14.7891,14.7233,14.6641,0.0,0.0,0.0,14.602,14.5551,14.4711,0.0,0.0,0.0,13.8271,13.8663,13.5929,0.0,0.0,13.2109,12.9807,0.0,0.0,0.0,0.0,0.0,0.0,0.0,0.0,0.0,0.0,0.0,0.0,0.0,0.0,0.0,0.0,13.5594,13.6953,13.7348,13.8991,14.0394,14.1008,14.2126,14.2587,14.1797,14.4297,14.6115,14.651,14.8966,15.0545,15.1005,15.2362,15.3193,15.3193,15.4574,15.5321,15.5321,15.5716,15.5387,15.4376,15.5387,15.4598,15.2189,15.2189,15.1179,14.9469,14.868,14.7891,14.7167,14.7628,14.7562,14.7167,14.7167,14.7167,14.7233,14.7628,14.7759,14.8022,14.9535,14.9535,14.8943,14.9337,14.9206,14.8548,14.7036,14.7628,14.8745,14.8351,14.9272,15.0479,15.0939,15.177,15.2099,14.9995,15.0282,15.061,14.914,14.8811,14.914,15.0216,15.0413,15.0084,14.9009,14.9666,15.1005,15.2888,15.1047,15.0652,15.3916,15.085,14.8811,14.9929,14.868,14.7628,14.7167,14.6773,14.6904,14.7759,14.7036,14.6904,14.7759,14.5321,14.2991,14.0896,13.7014,13.4297,0.0,0.0,0.0,0.0,0.0,0.0,0.0,0.0,0.0,0.0,0.0,0.0,0.0,0.0,0.0,0.0,0.0,0.0,0.0,0.0,0.0,0.0,0.0,0.0,13.4279,13.6887,13.8158,13.6799,14.0351,14.1797,13.8991,14.1315,14.3551,14.4974,14.6444,14.7956,14.9469,15.0939,15.1663,15.1663,15.3086,15.385,15.385,15.519,15.5847,15.5847,15.5847,15.5124,15.3719,15.3719,15.2141,14.9535,15.0939,14.9821,14.7233,14.8811,14.8482,14.7167,14.7167,14.7167,14.7299,14.8877,14.9403,14.96,15.1071,14.969,14.7496,14.9009,14.8417,14.697,14.55,14.6115,14.6904,14.55,14.6181,14.7628,14.914,14.96,14.96,14.9535,14.9535,14.914,14.7562,14.7233,14.7233,14.7299,14.7299,14.7233,14.7233,14.7233,14.8309,15.1268,15.0455,0.0,15.5256,15.3307,15.1531,15.1531,15.0258,14.8811,14.7299,14.5918,14.6289,14.9206,14.6684,14.6355,14.9272,14.4167,14.1202,14.1068,13.8262,13.6154,13.5011,0.0,0.0,0.0,0.0,0.0,0.0,0.0,0.0,0.0,0.0,0.0,0.0,0.0,0.0,0.0,0.0,0.0,0.0,0.0,0.0,0.0,0.0,0.0,0.0,13.2154,13.3337,13.487,13.5397,13.5265,13.4344,13.6865,13.8838,13.9276,14.2455,14.456,14.5086,14.7388,14.8703,14.8703,15.1071,15.2362,15.2362,15.2847,15.3044,15.311,15.4006,15.4245,15.3785,15.3785,15.3259,15.2207,15.085,14.96,14.8614,14.8154,14.7102,14.5698,14.5698,14.5129,14.4362,14.4889,14.5721,14.6552,14.7102,14.7891,14.8614,14.8088,14.8285,14.8219,14.5763,14.5369,14.5632,14.5172,14.4668,14.4691,14.6158,14.7233,14.8219,14.9206,14.868,14.8088,14.8614,14.7167,14.6049,14.697,14.6378,14.6026,14.697,14.7167,14.7825,14.9863,14.9798,15.0718,15.4048,15.2847,15.1992,15.2954,15.177,15.0258,14.8811,14.8285,14.7956,14.7956,14.697,14.6444,14.6487,14.3805,14.1422,13.9479,13.7534,13.3575,12.7393,0.0,0.0,0.0,0.0,0.0,0.0,0.0,0.0,0.0,0.0,0.0,0.0,0.0,0.0,0.0,0.0,0.0,0.0,0.0,0.0,0.0,0.0,0.0,0.0,0.0,0.0,13.178,13.1517,0.0,13.1327,13.3111,13.49,13.6491,13.9188,14.1117,14.2039,14.3879,14.5063,14.5612,14.8506,15.0018,15.0018,15.1071,15.1597,15.1663,15.2559,15.302,15.302,15.302,15.2691,15.2141,15.085,14.96,14.8548,14.7036,14.526,14.3396,14.2936,14.1841,14.0679,14.114,14.2235,14.3594,14.4646,14.6618,14.8417,14.6904,14.6049,14.5129,14.2696,14.1972,14.2104,14.2607,14.2433,14.2564,14.4514,14.5326,14.5875,14.6904,14.6312,14.6049,14.7562,14.5984,14.48,14.6773,14.6444,14.5895,14.6312,14.6838,14.7693,14.9272,14.9469,15.0718,15.4072,15.3283,15.2757,15.3653,15.2954,15.1573,14.9666,14.9469,14.8614,14.651,14.6378,14.5721,14.434,14.285,14.0526,13.715,13.5133,13.0596,0.0,0.0,0.0,0.0,0.0,0.0,0.0,0.0,0.0,0.0,0.0,0.0,0.0,0.0,0.0,0.0,0.0,0.0,0.0,0.0,0.0,0.0,0.0,0.0,0.0,0.0,0.0,12.7657,12.8558,0.0,0.0,0.0,0.0,13.5983,13.6423,13.7559,13.9978,14.0175,14.0854,14.2389,14.5217,14.6773,14.6904,14.9755,15.1202,15.1268,15.1334,15.1465,15.1531,15.1597,15.0873,14.9666,15.0939,14.9887,14.7036,14.5369,14.309,14.0394,13.8926,13.7413,13.6273,13.7808,13.9189,14.0723,14.3659,14.5589,14.651,14.5106,14.1819,13.8137,13.6667,13.6207,0.0,0.0,13.932,14.1117,14.4054,14.3748,14.285,14.3113,14.3113,14.3376,14.4909,14.4011,14.377,14.6312,14.6707,14.6247,14.4974,0.0,14.7345,14.9238,14.9474,15.1029,15.5361,15.4834,15.4044,15.4044,15.4165,15.3003,15.0141,14.9723,14.8359,14.5303,14.4974,14.4251,14.285,14.1337,13.8487,13.4213,13.1271,0.0,0.0,0.0,0.0,0.0,0.0,0.0,0.0,0.0,0.0,0.0,0.0,0.0,0.0,0.0,0.0,0.0,0.0,0.0,0.0,0.0,0.0,0.0,0.0,0.0,0.0,12.2113,12.2554,12.433,12.2949,12.2412,0.0,0.0,0.0,0.0,0.0,0.0,13.1193,13.2124,13.3818,13.6449,13.932,14.1841,14.3968,14.4691,14.5678,14.6707,14.7759,14.8877,15.0061,15.1137,15.14,15.1071,15.0324,14.8943,14.6773,14.2147,13.9211,13.7391,13.5988,13.3818,13.1825,13.4455,13.4936,13.4805,13.886,14.0504,14.0701,14.0372,13.8071,13.5133,13.3621,0.0,0.0,0.0,0.0,13.6843,14.0789,14.1578,14.2367,14.6773,14.6049,14.5195,14.7759,14.6312,14.4077,14.263,14.0679,13.9759,14.1512,14.1227,0.0,14.9139,14.977,15.118,15.5998,15.73,15.777,15.777,15.9306,15.8845,15.5406,15.3172,15.0408,14.6822,14.4603,14.2784,14.1315,13.8904,13.5462,13.1102,0.0,0.0,0.0,0.0,0.0,0.0,0.0,0.0,0.0,0.0,0.0,0.0,0.0,0.0,0.0,0.0,0.0,0.0,0.0,0.0,0.0,0.0,0.0,0.0,0.0,0.0,0.0,11.8431,11.9746,12.1371,12.0191,12.0126,0.0,0.0,0.0,0.0,0.0,0.0,0.0,0.0,0.0,13.2323,13.3953,13.5835,13.8114,14.0,14.1358,14.2213,14.4274,14.5744,14.6599,14.7454,14.7782,14.7717,14.6927,14.4668,14.1249,13.8071,13.5068,13.2458,0.0,0.0,0.0,0.0,12.9413,12.961,13.2766,13.4276,13.4747,13.407,0.0,0.0,0.0,0.0,0.0,0.0,0.0,13.2458,13.6777,13.8356,13.9868,14.3814,14.3396,14.2805,14.5129,14.2301,13.8794,13.7238,13.612,13.601,13.7632,13.8268,0.0,0.0,0.0,15.095,15.4997,15.7665,15.9175,15.9175,16.1198,16.103,15.7377,15.4997,15.1588,14.6539,14.4099,14.1403,13.8093,13.5725,13.1846,0.0,0.0,0.0,0.0,0.0,0.0,0.0,0.0,0.0,0.0,0.0,0.0,0.0,0.0,0.0,0.0,0.0,0.0,0.0,0.0,0.0,0.0,0.0,0.0,0.0,0.0,0.0,0.0,0.0,11.8365,11.8562,0.0,0.0,0.0,0.0,0.0,0.0,0.0,0.0,0.0,0.0,0.0,0.0,0.0,12.9995,13.204,13.5635,13.7545,13.7742,14.0285,14.1534,14.1732,14.1732,14.1863,14.1995,14.1205,0.0,13.3666,13.3074,0.0,0.0,0.0,0.0,0.0,0.0,0.0,0.0,0.0,0.0,0.0,0.0,0.0,0.0,0.0,0.0,0.0,0.0,0.0,0.0,0.0,0.0,13.5857,13.715,13.772,13.8289,13.9181,13.5343,13.1732,13.1467,13.2415,13.3321,0.0,0.0,0.0,0.0,0.0,0.0,15.3188,15.712,15.9647,15.9647,16.1852,16.1906,15.823,15.617,15.2318,14.583,14.3073,13.9605,13.4855,13.2386,0.0,0.0,0.0,0.0,0.0,0.0,0.0,0.0,0.0,0.0,0.0,0.0,0.0,0.0,0.0,0.0,0.0,0.0,0.0,0.0,0.0,0.0,0.0,0.0,0.0,0.0,0.0,0.0,0.0,0.0,0.0,0.0,0.0,0.0,0.0,0.0,0.0,0.0,0.0,0.0,0.0,0.0,0.0,0.0,0.0,0.0,0.0,0.0,0.0,0.0,13.3621,13.4542,13.5791,13.5791,13.6449,13.7325,13.2458,13.0465,13.0378,12.6828,0.0,0.0,0.0,0.0,0.0,0.0,0.0,0.0,0.0,0.0,0.0,0.0,0.0,0.0,0.0,0.0,0.0,0.0,0.0,0.0,0.0,0.0,13.1102,13.1299,13.3271,13.4541,13.2647,0.0,0.0,0.0,0.0,0.0,0.0,0.0,0.0,0.0,0.0,0.0,15.219,15.8103,16.1962,16.1962,16.5593,16.6445,16.2692,15.8394,15.3487,14.7907,14.0204,13.5959,0.0,0.0,0.0,0.0,0.0,0.0,0.0,0.0,0.0,0.0,0.0,0.0,0.0,0.0,0.0,0.0,0.0,0.0,0.0,0.0,0.0,0.0,0.0,0.0,0.0,0.0,0.0,0.0,0.0,0.0,0.0,0.0,0.0,0.0,0.0,0.0,0.0,0.0,0.0,0.0,0.0,0.0,0.0,0.0,0.0,0.0,0.0,0.0,0.0,0.0,0.0,0.0,0.0,0.0,0.0,0.0,0.0,0.0,12.6388,12.4086,0.0,0.0,0.0,0.0,0.0,0.0,0.0,0.0,0.0,0.0,0.0,0.0,0.0,0.0,0.0,0.0,0.0,0.0,0.0,0.0,0.0,0.0,0.0,0.0,0.0,0.0,0.0,0.0,0.0,0.0,0.0,0.0,0.0,0.0,0.0,0.0,0.0,0.0,0.0,0.0,15.1999,15.8421,16.2977,16.4102,16.7171,16.7555,16.3792,15.964,15.4279,14.744,14.125,0.0,0.0,0.0,0.0,0.0,0.0,0.0,0.0,0.0,0.0,0.0,0.0,0.0,0.0,0.0,0.0,0.0,0.0,0.0,0.0,0.0,0.0,0.0,0.0,0.0,0.0,0.0,0.0,0.0,0.0,0.0,0.0,0.0,0.0,0.0,0.0,0.0,0.0,0.0,0.0,0.0,0.0,0.0,0.0,0.0,0.0,0.0,0.0,0.0,0.0,0.0,0.0,0.0,0.0,0.0,0.0,0.0,0.0,0.0,12.1808,11.957,0.0,0.0,0.0,0.0,0.0,0.0,0.0,0.0,0.0,0.0,0.0,0.0,0.0,0.0,0.0,0.0,0.0,0.0,0.0,0.0,0.0,0.0,0.0,0.0,0.0,0.0,0.0,0.0,0.0,0.0,0.0,0.0,0.0,0.0,0.0,0.0,0.0,0.0,0.0,0.0,15.1593,15.7985,16.2988,16.551,16.7792,16.7656,16.4022,16.0442,15.4956,14.6794,14.229,0.0,0.0,0.0,0.0,0.0,0.0,0.0,0.0,0.0,0.0,0.0,0.0,0.0,0.0,0.0,0.0,0.0,0.0,0.0,0.0,0.0,0.0,0.0,0.0,0.0,0.0,0.0,0.0,0.0,0.0,0.0,0.0,0.0,0.0,0.0,0.0,0.0,0.0,0.0,0.0,0.0,0.0,0.0,0.0,0.0,0.0,0.0,0.0,0.0,0.0,0.0,0.0,0.0,0.0,0.0,0.0,0.0,0.0,0.0,0.0,0.0,0.0,0.0,0.0,0.0,0.0,0.0,0.0,0.0,0.0,0.0,0.0,0.0,0.0,0.0,0.0,0.0,0.0,0.0,0.0,0.0,0.0,0.0,0.0,0.0,0.0,0.0,0.0,0.0,0.0,0.0,0.0,0.0,0.0,0.0,0.0,0.0,0.0,0.0,0.0,0.0,14.9843,15.6457,16.1892,16.544,16.7792,16.7808,16.4648,16.1045,15.5593,14.774,0.0,0.0,0.0,0.0,0.0,0.0,0.0,0.0,0.0,0.0,0.0,0.0,0.0,0.0,0.0,0.0,0.0,0.0,0.0,0.0,0.0,0.0,0.0,0.0,0.0,0.0,0.0,0.0,0.0,0.0,0.0,0.0,0.0,0.0,0.0,0.0,0.0,0.0,0.0,0.0,0.0,0.0,0.0,0.0,0.0,0.0,0.0,0.0,0.0,0.0,0.0,0.0,0.0,0.0,0.0,0.0,0.0,0.0,0.0,0.0,0.0,0.0,0.0,0.0,0.0,0.0,0.0,0.0,0.0,0.0,0.0,0.0,0.0,0.0,0.0,0.0,0.0,0.0,0.0,0.0,0.0,0.0,0.0,0.0,0.0,0.0,0.0,0.0,0.0,0.0,0.0,0.0,0.0,0.0,0.0,0.0,0.0,0.0,0.0,0.0,0.0,0.0,14.8426,15.4886,16.0419,16.4094,16.5612,16.5806,16.4538,16.0283,15.4298,14.6526,0.0,0.0,0.0,0.0,0.0,0.0,0.0,0.0,0.0,0.0,0.0,0.0,0.0,0.0,0.0,0.0,0.0,0.0,0.0,0.0,0.0,0.0,0.0,0.0,0.0,0.0,0.0,0.0,0.0,0.0,0.0,0.0,0.0,0.0,0.0,0.0,0.0,0.0,0.0,0.0,0.0,0.0,0.0,0.0,0.0,0.0,0.0,0.0,0.0,0.0,0.0,0.0,0.0,0.0,0.0,0.0,0.0,0.0,0.0,0.0,0.0,0.0,0.0,0.0,0.0,0.0,0.0,0.0,0.0,0.0,0.0,0.0,0.0,0.0,0.0,0.0,0.0,0.0,0.0,0.0,0.0,0.0,0.0,0.0,0.0,0.0,0.0,0.0,0.0,0.0,0.0,0.0,0.0,0.0,0.0,0.0,0.0,0.0,0.0,0.0,0.0,0.0,14.7593,15.3657,15.8808,16.2589,16.3856,16.4236,16.3808,15.9539,15.3588,14.5808,0.0,0.0,0.0,0.0,0.0,0.0,0.0,0.0,0.0,0.0,0.0,0.0,0.0,0.0,0.0,0.0,0.0,0.0,0.0,0.0,0.0,0.0,0.0,0.0,0.0,0.0,0.0,0.0,0.0,0.0,0.0,0.0,0.0,0.0,0.0,0.0,0.0,0.0,0.0,0.0,0.0,0.0,0.0,0.0,0.0,0.0,0.0,0.0,0.0,0.0,0.0,0.0,0.0,0.0,0.0,0.0,0.0,0.0,0.0,0.0,0.0,0.0,0.0,0.0,0.0,0.0,0.0,0.0,0.0,0.0,0.0,0.0,0.0,0.0,0.0,0.0,0.0,0.0,0.0,0.0,0.0,0.0,0.0,0.0,0.0,0.0,0.0,0.0,0.0,0.0,0.0,0.0,0.0,0.0,0.0,0.0,0.0,0.0,0.0,0.0,0.0,0.0,14.7459,15.2789,15.7324,16.0976,16.3235,16.3808,16.2294,15.9297,15.4074,0.0,0.0,0.0,0.0,0.0,0.0,0.0,0.0,0.0,0.0,0.0,0.0,0.0,0.0,0.0,0.0,0.0,0.0,0.0,0.0,0.0,0.0,0.0,0.0,0.0,0.0,0.0,0.0,0.0,0.0,0.0,0.0,0.0,0.0,0.0,0.0,0.0,0.0,0.0,0.0,0.0,0.0,0.0,0.0,0.0,0.0,0.0,0.0,0.0,0.0,0.0,0.0,0.0,0.0,0.0,0.0,0.0,0.0,0.0,0.0,0.0,0.0,0.0,0.0,0.0,0.0,0.0,0.0,0.0,0.0,0.0,0.0,0.0,0.0,0.0,0.0,0.0,0.0,0.0,0.0,0.0,0.0,0.0,0.0,0.0,0.0,0.0,0.0,0.0,0.0,0.0,0.0,0.0,0.0,0.0,0.0,0.0,0.0,0.0,0.0,0.0,0.0,0.0,14.458,15.0444,15.5152,15.7371,15.9774,16.147,16.208,15.8259,15.2907,14.6029,0.0,0.0,0.0,0.0,0.0,0.0,0.0,0.0,0.0,0.0,0.0,0.0,0.0,0.0,0.0,0.0,0.0,0.0,0.0,0.0,0.0,0.0,0.0,0.0,0.0,0.0,0.0,0.0,0.0,0.0,0.0,0.0,0.0,0.0,0.0,0.0,0.0,0.0,0.0,0.0,0.0,0.0,0.0,0.0,0.0,0.0,0.0,0.0,0.0,0.0,0.0,0.0,0.0,0.0,0.0,0.0,0.0,0.0,0.0,0.0,0.0,0.0,0.0,0.0,0.0,0.0,0.0,0.0,0.0,0.0,0.0,0.0,0.0,0.0,0.0,0.0,0.0,0.0,0.0,0.0,0.0,0.0,0.0,0.0,0.0,0.0,0.0,0.0,0.0,0.0,0.0,0.0,0.0,0.0,0.0,0.0,0.0,0.0,0.0,0.0,0.0,0.0,0.0,14.8843,15.3256,15.4809,15.7156,15.9048,16.0248,15.7133,15.2138,14.5201,0.0,0.0,0.0,0.0,0.0,0.0,0.0,0.0,0.0,0.0,0.0,0.0,0.0,0.0,0.0,0.0,0.0,0.0,0.0,0.0,0.0,0.0,0.0,0.0,0.0,0.0,0.0,0.0,0.0,0.0,0.0,0.0,0.0,0.0,0.0,0.0,0.0,0.0,0.0,0.0,0.0,0.0,0.0,0.0,0.0,0.0,0.0,0.0,0.0,0.0,0.0,0.0,0.0,0.0,0.0,0.0,0.0,0.0,0.0,0.0,0.0,0.0,0.0,0.0,0.0,0.0,0.0,0.0,0.0,0.0,0.0,0.0,0.0,0.0,0.0,0.0,0.0,0.0,0.0,0.0,0.0,0.0,0.0,0.0,0.0,0.0,0.0,0.0,0.0,0.0,0.0,0.0,0.0,0.0,0.0,0.0,0.0,0.0,0.0,0.0,0.0,0.0,0.0,14.7998,15.1838,15.3226,15.5481,15.7041,15.7404,15.5991,15.1725,14.3789,14.1776,0.0,0.0,0.0,0.0,0.0,0.0,0.0,0.0,0.0,0.0,0.0,0.0,0.0,0.0,0.0,0.0,0.0,0.0,0.0,0.0,0.0,0.0,0.0,0.0,0.0,0.0,0.0,0.0,0.0,0.0,0.0,0.0,0.0,0.0,0.0,0.0,0.0,0.0,0.0,0.0,0.0,0.0,0.0,0.0,0.0,0.0,0.0,0.0,0.0,0.0,0.0,0.0,0.0,0.0,0.0,0.0,0.0,0.0,0.0,0.0,0.0,0.0,0.0,0.0,0.0,0.0,0.0,0.0,0.0,0.0,0.0,0.0,0.0,0.0,0.0,0.0,0.0,0.0,0.0,0.0,0.0,0.0,0.0,0.0,0.0,0.0,0.0,0.0,0.0,0.0,0.0,0.0,0.0,0.0,0.0,0.0,0.0,0.0,0.0,0.0,0.0,0.0,14.7896,15.1796,15.1747,15.6157,15.8613,15.757,15.5991,15.1725,14.3789,14.1776,0.0,0.0,0.0,0.0,0.0,0.0,0.0,0.0,0.0,0.0,0.0,0.0,0.0,0.0,0.0,0.0,0.0,0.0,0.0,0.0,0.0,0.0,0.0,0.0,0.0,0.0,0.0,0.0,0.0,0.0,0.0,0.0,0.0,0.0,0.0,0.0,0.0,0.0,0.0,0.0,0.0,0.0,0.0,0.0,0.0,0.0,0.0,0.0,0.0,0.0,0.0,0.0,0.0,0.0,0.0,0.0,0.0,0.0,0.0,0.0,0.0,0.0,0.0,0.0,0.0,0.0,0.0,0.0,0.0,0.0,0.0,0.0,0.0,0.0,0.0,0.0,0.0,0.0,0.0,0.0,0.0,0.0,0.0,0.0,0.0,0.0,0.0,0.0,0.0,0.0,0.0,0.0,0.0,0.0,0.0,0.0,0.0,0.0,0.0,0.0,0.0,0.0,14.4669,14.8649,15.1336,15.4346,15.5974,15.5343,15.3835,14.9839,14.2633,14.0764,0.0,0.0,0.0,0.0,0.0,0.0,0.0,0.0,0.0,0.0,0.0,0.0,0.0,0.0,0.0,0.0,0.0,0.0,0.0,0.0,0.0,0.0,0.0,0.0,0.0,0.0,0.0,0.0,0.0,0.0,0.0,0.0,0.0,0.0,0.0,0.0,0.0,0.0,0.0,0.0,0.0,0.0,0.0,0.0,0.0,0.0,0.0,0.0,0.0,0.0,0.0,0.0,0.0,0.0,0.0,0.0,0.0,0.0,0.0,0.0,0.0,0.0,0.0,0.0,0.0,0.0,0.0,0.0,0.0,0.0,0.0,0.0,0.0,0.0,0.0,0.0,0.0,0.0,0.0,0.0,0.0,0.0,0.0,0.0,0.0,0.0,0.0,0.0,0.0,0.0,0.0,0.0,0.0,0.0,0.0,0.0,0.0,0.0,0.0,0.0,0.0,0.0,0.0,14.429,15.0708,15.2008,15.243,15.2429,15.1094,14.7455,14.0978,0.0,0.0,0.0,0.0,0.0,0.0,0.0,0.0,0.0,0.0,0.0,0.0,0.0,0.0,0.0,0.0,0.0,0.0,0.0,0.0,0.0,0.0,0.0,0.0,0.0,0.0,0.0,0.0,0.0,0.0,0.0,0.0,0.0,0.0,0.0,0.0,0.0,0.0,0.0,0.0,0.0,0.0,0.0,0.0,0.0,0.0,0.0,0.0,0.0,0.0,0.0,0.0,0.0,0.0,0.0,0.0,0.0,0.0,0.0,0.0,0.0,0.0,0.0,0.0,0.0,0.0,0.0,0.0,0.0,0.0,0.0,0.0,0.0,0.0,0.0,0.0,0.0,0.0,0.0,0.0,0.0,0.0,0.0,0.0,0.0,0.0,0.0,0.0,0.0,0.0,0.0,0.0,0.0,0.0,0.0,0.0,0.0,0.0,0.0,0.0,0.0,0.0,0.0,0.0,14.1251,14.7875,15.2169,15.3558,15.0865,15.0452,14.7013,13.9466,0.0,0.0,0.0,0.0,0.0,0.0,0.0,0.0,0.0,0.0,0.0,0.0,0.0,0.0]}],[{"header":{"parameterUnit":"kt","parameterCategory":2,"dx":1,"dy":1,"la1":29.285339999999998,"la2":30.599998999999997,"lo1":-89.70041500000002,"lo2":-87.6738589999976,"nx":112,"ny":82,"refTime":"2022-09-27T06:00:00:Z","depth":0,"parameterNumber":2,"parameterNumberName":"V-component_of_WINDS"},"data":[13.4719,13.4914,13.3717,12.8754,12.6671,12.4172,11.8001,11.569,11.4429,11.2842,11.1135,0.0,0.0,10.7134,10.5077,10.5381,10.4242,10.3332,0.0,10.3836,10.4531,10.5328,10.4899,10.4709,10.5101,10.529,10.5556,10.5836,10.6152,10.7961,11.1782,11.4343,11.7895,12.2775,12.7628,12.8437,12.4843,12.6623,12.7532,12.7532,12.7532,12.9351,13.2719,13.1018,12.908,12.7025,12.5351,12.4154,12.3453,12.3453,12.4481,12.5675,12.2682,12.0479,11.8341,11.3522,10.8694,10.4164,10.1355,10.0372,10.0523,10.1406,10.153,10.1454,10.2203,10.209,10.1786,10.2317,10.209,10.1596,10.1378,10.1027,10.0647,10.0068,9.9916,9.9916,9.9916,9.9916,10.0435,10.2105,10.4965,10.7644,10.9376,11.3657,11.5834,11.2674,11.4859,11.7465,11.9127,12.2034,12.397,12.397,12.6694,12.8469,12.8469,12.8469,12.8469,12.8469,12.8469,12.8469,12.8469,12.8469,12.8469,12.8469,12.8469,12.8469,12.8469,12.8469,12.8469,12.8469,12.8469,12.8469,13.3206,13.4085,13.3185,12.8241,12.6304,12.3359,11.4814,11.1854,11.0059,0.0,0.0,0.0,0.0,10.5722,10.4963,10.4963,10.4015,10.3294,0.0,10.3798,10.4531,10.5366,10.5203,10.5668,10.7416,10.6831,10.675,10.7833,10.8487,11.0414,11.4022,11.6358,12.0897,12.8045,12.9397,13.0015,13.0015,13.0015,13.0015,13.0015,13.0015,13.1191,13.3348,13.3348,13.2415,13.0798,13.0798,13.0121,12.9096,12.9096,12.8852,12.8218,12.5081,12.2896,12.1085,11.7948,11.3657,10.8831,10.3985,10.1253,10.003,10.0647,10.0799,10.0913,10.1396,10.1634,10.1634,10.1634,10.1634,10.152,10.0951,10.0799,10.0647,10.0068,9.9916,9.9916,9.9916,9.9916,9.9992,10.0296,10.2674,10.476,10.5079,10.7523,10.8876,10.7323,10.983,11.2492,11.4102,11.8518,12.1474,12.1474,12.5675,12.8469,12.8469,12.8469,12.8469,12.8469,12.8469,12.8469,12.8469,12.8469,12.8469,12.8469,12.8469,12.8469,12.8469,12.8469,12.8469,12.8469,12.8469,12.8469,13.0438,13.2384,13.1854,12.6992,12.2078,11.7164,11.2089,10.6597,10.2735,0.0,0.0,0.0,0.0,10.4925,10.4925,10.4963,10.4925,0.0,0.0,10.4925,10.477,10.4375,10.4827,10.778,11.4328,11.0013,10.8798,11.3533,11.3964,11.3694,11.3084,12.2218,12.7623,12.7759,13.243,13.4914,13.4914,13.4914,13.4914,13.4914,13.4914,13.4378,13.3397,13.3348,13.2806,13.1781,13.1732,13.1146,13.0164,13.0164,12.9487,12.8469,12.8469,12.5717,12.1646,12.1387,11.843,11.379,10.8648,10.3892,10.0105,9.9963,9.9916,9.9916,9.9916,10.1055,10.2052,10.041,10.1131,10.2041,10.0372,9.9992,9.9992,9.9954,9.9916,9.9954,9.9954,9.9954,10.0182,10.1064,10.0533,10.0182,10.1064,10.0523,10.1565,10.6211,10.69,10.8599,11.3254,11.8166,12.1258,12.1258,12.559,12.8469,12.8469,12.8469,12.8469,12.8469,12.8469,12.8469,12.8469,12.8469,12.8469,12.8469,12.8469,12.8469,12.8469,12.8469,12.8469,12.8469,12.8469,12.8469,13.0287,12.9415,12.5925,12.1535,11.6409,11.126,10.6819,0.0,0.0,0.0,10.3798,0.0,0.0,0.0,10.3521,10.4774,0.0,10.2697,10.3961,10.4113,10.6941,11.4608,11.2542,11.1208,11.3061,11.5657,11.7497,11.8204,11.8849,12.0418,12.3278,12.6031,12.9159,13.274,13.4206,13.4914,13.4914,13.4914,13.4914,13.4914,13.4914,13.4719,13.4426,13.369,13.2806,13.1732,13.0994,13.0017,12.895,12.895,12.8803,12.8469,12.8469,12.7709,12.5717,11.8778,11.764,11.7816,10.598,10.3326,10.4588,10.1056,9.9916,9.9916,9.9916,10.0258,10.0637,10.0837,10.1634,10.2203,10.1178,10.133,10.1434,10.022,9.9916,10.0106,10.0761,10.0372,10.0182,10.1064,10.0533,9.9992,10.022,10.1093,10.2037,10.2727,10.2886,10.3125,10.3778,11.1142,11.6276,11.6276,12.3581,12.8469,12.8469,12.8469,12.8469,12.8469,12.8469,12.8469,12.8469,12.8469,12.8469,12.8469,12.8469,12.8469,12.8469,12.8469,12.8469,12.8469,12.8469,12.8469,12.54,12.6027,12.3905,12.1047,11.6694,0.0,10.6945,0.0,10.2128,0.0,0.0,0.0,0.0,0.0,0.0,0.0,10.3749,10.3893,10.7018,10.7467,11.0596,11.896,11.7399,11.5639,11.5639,11.9058,12.1829,12.3047,12.3941,12.5283,12.7397,12.9474,13.1893,13.4826,13.4914,13.4914,13.4914,13.4914,13.4914,13.4914,13.4914,13.467,13.4231,13.3641,13.2806,13.1732,13.1146,13.0219,12.9243,12.9243,12.895,12.8469,12.8469,12.7289,12.5124,12.1603,11.821,11.4548,10.8188,10.5143,10.3652,10.0821,9.9916,9.9916,9.9916,10.0182,10.0533,10.0647,10.1292,10.1748,10.0913,10.1064,10.1131,10.0144,9.9916,10.0068,10.0609,10.0258,10.0182,10.1064,10.0837,10.0609,10.0903,10.1824,10.2279,10.1824,10.1492,10.1064,10.0571,10.6782,11.2088,11.4102,12.1085,12.6357,12.8343,12.8469,12.8469,12.8469,12.8469,12.8469,12.8469,12.8469,12.8469,12.8469,12.8469,12.8469,12.8469,12.8469,12.8469,12.8469,12.8469,12.8469,11.821,12.1632,0.0,0.0,11.8359,0.0,10.8975,0.0,10.041,10.1102,0.0,10.2138,10.3543,0.0,0.0,10.4963,10.4963,10.6688,11.1911,11.3564,11.6114,12.1057,12.115,12.1057,12.1615,12.1894,12.3799,12.8078,12.9002,12.9095,12.8393,13.2519,13.4914,13.4914,13.4914,13.4914,13.4914,13.4914,13.4914,13.4914,13.4914,13.4329,13.3348,13.3202,13.261,13.1585,13.1488,13.0902,13.0066,13.0066,12.9438,12.8469,12.8469,12.5293,12.1171,12.5378,11.882,10.8375,11.1548,10.741,10.0633,10.0105,9.9916,9.9916,9.9916,10.0448,10.0951,10.0144,10.0571,10.1027,10.0144,9.9992,10.003,9.9954,9.9916,9.9954,10.0068,10.0068,10.0334,10.1216,10.1416,10.1596,10.2317,10.2573,10.2697,10.2621,10.19,10.1378,10.1302,10.4679,10.8739,11.303,11.8254,12.3154,12.7331,12.8218,12.8469,12.8469,12.8469,12.8469,12.8469,12.8469,12.8469,12.8469,12.8469,12.8469,12.8469,12.8469,12.8469,12.8469,12.8469,12.8469,0.0,0.0,0.0,0.0,0.0,10.3196,0.0,0.0,0.0,10.1378,10.2887,10.4178,10.3847,10.382,10.4303,10.586,10.4911,10.6235,11.2591,11.9899,12.6487,13.1448,12.8482,12.7623,13.1627,12.8578,12.8353,13.3098,13.3645,13.3601,13.3452,13.4382,13.4914,13.4914,13.4914,13.4914,13.4914,13.4914,13.4914,13.4914,13.4914,13.4329,13.3299,13.2513,13.1537,13.0505,12.9536,12.9047,12.8852,12.8852,12.8664,12.8469,12.8469,12.3239,11.579,11.6717,11.5302,11.1953,10.5051,10.4024,10.5057,10.1159,9.9916,9.9916,9.9916,10.003,10.0144,9.9992,10.0571,10.1027,10.0144,10.0495,10.0837,10.0106,9.9916,10.0106,10.0837,10.0989,10.1254,10.2052,10.2241,10.2279,10.2431,10.3559,10.4242,10.3619,10.2821,10.1976,10.1378,10.4679,10.7461,10.8375,11.6276,12.1862,12.2768,12.6314,12.8469,12.8469,12.8469,12.8469,12.8469,12.8469,12.8469,12.8469,12.8469,12.8469,12.8469,12.8469,12.8469,12.8469,12.8469,12.8469,10.9376,10.9345,0.0,11.0774,0.0,0.0,0.0,10.2989,10.2478,10.4513,10.6333,10.7507,10.7468,10.9599,11.0905,10.9673,11.0789,11.393,11.9797,12.4608,12.9339,13.4294,13.2696,13.2208,13.4695,13.2652,13.2252,13.4739,13.4914,13.4914,13.4914,13.4914,13.4914,13.4914,13.4914,13.4914,13.4914,13.4914,13.4914,13.4914,13.4914,13.408,13.2519,13.2025,13.0902,12.934,12.8755,12.8469,12.8469,12.8469,12.8469,12.826,12.5886,12.0606,11.428,11.428,11.1233,10.6763,10.4356,10.3513,10.3093,10.068,9.9916,9.9916,9.9916,9.9916,9.9916,9.9916,10.022,10.0609,10.0609,10.0609,10.0609,10.0609,10.022,10.003,10.0533,10.0609,10.0723,10.1093,10.2241,10.3125,10.3125,10.4178,10.4812,10.4443,10.3266,10.2317,10.19,10.2826,10.4449,10.686,11.1416,11.6232,12.1085,12.3624,12.5971,12.8343,12.8469,12.8469,12.8469,12.8469,12.8469,12.8469,12.8469,12.8469,12.8469,12.8469,12.8469,12.8469,12.8469,12.8469,10.4601,10.6279,10.7894,11.1899,11.0039,0.0,10.7155,10.4364,10.288,10.6657,10.9066,11.0704,11.1351,11.555,11.7863,11.4513,11.7304,12.2079,12.8075,12.8979,13.0418,13.4426,13.4914,13.4914,13.4914,13.4914,13.4914,13.4914,13.4914,13.4914,13.4914,13.4914,13.4914,13.4914,13.4914,13.4914,13.4914,13.4914,13.4914,13.4914,13.4914,13.389,13.2122,13.2122,13.0902,12.8852,12.8852,12.8706,12.8469,12.8469,12.7918,12.6736,12.2982,11.7947,11.2896,11.2896,10.7364,10.0482,10.4356,10.314,9.9916,9.9916,9.9916,9.9916,9.9916,9.9916,9.9916,9.9916,9.9916,10.0106,10.0799,10.0495,10.0106,10.0837,10.041,9.9916,9.9916,10.0068,10.0106,9.9954,10.1748,10.3326,10.3326,10.4102,10.4736,10.4736,10.3608,10.2659,10.2469,10.1093,10.1586,10.5288,10.6538,11.0242,11.8035,12.039,12.3111,12.6862,12.796,12.8469,12.8469,12.8469,12.8469,12.8469,12.8469,12.8469,12.8469,12.8469,12.8469,12.8469,12.8469,12.8469,10.0347,10.0803,10.2026,10.6763,10.4984,0.0,10.6326,10.5221,10.3472,10.3156,10.7976,11.2276,11.2398,11.6467,11.9666,11.9191,11.9609,12.3235,13.274,13.4118,13.4294,13.487,13.4914,13.4914,13.4914,13.4914,13.4914,13.4914,13.4914,13.4914,13.4914,13.4914,13.4914,13.4914,13.4914,13.4914,13.4914,13.4914,13.4914,13.4914,13.4914,13.428,13.3153,13.3153,13.2025,13.0066,13.0066,12.9438,12.8469,12.8469,12.6013,12.2209,12.1689,11.5922,10.7918,10.7918,10.4541,9.9963,10.0577,10.0388,9.9916,9.9916,9.9916,9.9916,9.9916,9.9916,9.9916,9.9916,9.9916,9.9954,10.003,9.9992,9.9954,10.003,9.9992,9.9916,9.9916,10.0571,10.0875,10.0068,10.0799,10.1568,10.1568,10.2859,10.3923,10.3923,10.3771,10.3353,10.2545,10.1672,10.1037,10.0756,10.4541,10.7507,10.8603,11.654,12.1689,12.2252,12.6188,12.8469,12.8469,12.8469,12.8469,12.8469,12.8469,12.8469,12.8469,12.8469,12.8469,12.8469,12.8469,12.8469,9.9689,10.2003,10.5242,11.0102,0.0,0.0,11.4458,11.3473,11.2304,11.4857,11.8495,12.1243,12.1243,12.53,12.7712,12.4843,12.6805,13.0102,13.4338,13.4914,13.4914,13.4914,13.4914,13.4914,13.4914,13.4914,13.3673,13.0821,13.3275,13.3629,13.0731,13.332,13.4914,13.4914,13.4914,13.4914,13.4914,13.4914,13.4914,13.4914,13.4914,13.4329,13.3348,13.3348,13.222,13.0212,13.0212,12.9578,12.8469,12.8469,12.7331,12.5293,12.2553,11.7333,11.0962,10.8147,10.4031,9.9916,9.9916,9.9916,9.9916,9.9916,9.9916,9.9916,9.9916,9.9916,9.9916,9.9916,9.9916,10.003,10.0571,10.0296,10.0068,10.0609,10.0296,9.9916,9.9916,10.022,10.0334,9.9992,10.0647,10.1302,10.1302,10.267,10.382,10.382,10.382,10.3657,10.3277,10.21,10.1102,10.0761,10.2031,10.4031,10.686,11.3345,11.8518,12.1301,12.5886,12.8469,12.8469,12.8469,12.8469,12.8469,12.8469,12.8469,12.8469,12.8469,12.8469,12.8469,12.8469,12.8469,9.9081,0.0,0.0,0.0,0.0,0.0,12.0438,11.9433,11.8509,12.1855,12.5246,12.7532,12.7532,13.1582,13.3717,13.015,13.2563,13.4817,13.4524,13.4719,13.4768,13.4524,13.4719,13.4914,13.4914,13.4914,13.3408,12.9833,13.2873,13.3364,12.9744,13.2917,13.4914,13.4914,13.4914,13.4914,13.4914,13.4914,13.4914,13.4914,13.4914,13.4524,13.3787,13.3787,13.2616,13.0701,13.0701,13.0024,12.895,12.8657,12.8469,12.8002,12.3325,11.9347,11.5568,10.9376,10.4872,10.1722,10.0388,9.9916,9.9916,9.9916,9.9916,9.9916,9.9916,9.9916,9.9916,9.9916,9.9916,10.0068,10.0723,10.0372,10.0068,10.0761,10.0372,9.9916,9.9916,9.9916,9.9992,10.022,10.0647,10.0951,10.1226,10.229,10.3087,10.3087,10.3277,10.3429,10.3429,10.2366,10.1482,10.1302,10.0685,10.1616,10.4819,10.9513,11.4326,11.9216,12.397,12.7115,12.8427,12.8469,12.8469,12.8469,12.8469,12.8469,12.8469,12.8469,12.8469,12.8469,12.8469,12.8469,0.0,0.0,0.0,11.2003,11.4193,11.649,12.0532,11.9881,11.815,11.7556,12.2804,12.7532,12.7532,13.1582,13.487,13.4739,13.4826,13.4524,13.3543,13.4231,13.4524,13.3543,13.428,13.4914,13.4914,13.4914,13.487,13.4695,13.4826,13.487,13.4695,13.4826,13.4914,13.4914,13.4914,13.4914,13.4914,13.4914,13.4914,13.4914,13.4914,13.4865,13.4865,13.4865,13.3738,13.1732,13.1732,13.1146,13.0115,12.895,12.8469,12.8002,12.3325,12.1387,12.0129,11.0603,10.7003,10.6216,10.1534,9.9916,9.9916,9.9916,9.9916,9.9916,9.9916,9.9916,9.9916,9.9916,9.9916,9.9954,9.9954,9.9954,9.9954,9.9954,9.9954,9.9916,9.9916,9.9916,10.0182,10.1027,10.0523,10.022,10.1102,10.134,10.134,10.134,10.1976,10.2507,10.2507,10.2431,10.2128,10.1378,10.1264,10.0922,10.0181,10.4541,10.9376,11.4191,11.9042,12.3756,12.8302,12.8469,12.8469,12.8469,12.8469,12.8469,12.8469,12.8469,12.8469,12.8469,12.8469,12.8469,9.758,10.2259,10.8036,11.196,11.6227,12.0445,12.4273,12.6246,12.7008,12.6063,12.9365,13.243,13.243,13.3229,13.4129,13.4768,13.4914,13.4524,13.3494,13.4231,13.4524,13.3494,13.4231,13.4914,13.4914,13.4914,13.354,13.0239,13.3006,13.3452,13.0194,13.3143,13.4914,13.4914,13.4914,13.4914,13.4914,13.4914,13.4914,13.4914,13.4914,13.4524,13.3885,13.4573,13.3787,13.1781,13.1781,13.1238,13.0164,12.8999,12.8469,12.8343,12.6736,12.4226,12.1085,11.786,11.2629,10.6906,10.5242,10.2619,9.9916,9.9916,9.9916,9.9916,9.9916,9.9916,9.9916,9.9916,9.9916,9.9916,9.9916,9.9916,9.9916,9.9916,9.9916,9.9916,9.9916,9.9916,9.9992,10.0296,10.0106,10.003,10.0296,10.0875,10.1302,10.1302,10.1938,10.2469,10.2469,10.1976,10.1606,10.1254,10.0723,10.022,9.9954,10.4356,10.7781,10.9422,11.4014,11.7421,11.8996,12.212,12.3842,12.3842,12.6862,12.6946,12.3885,12.6946,12.8469,12.8469,12.8469,12.8469,9.918,10.4498,11.0534,11.4069,11.9507,12.4637,12.6919,12.9438,13.1091,13.0359,13.2122,13.3933,13.428,13.3787,13.369,13.4719,13.4914,13.4378,13.3006,13.3987,13.4378,13.2958,13.408,13.4914,13.4914,13.4914,13.3585,13.0374,13.2757,13.311,13.0329,13.2801,13.4524,13.4865,13.4914,13.4914,13.4914,13.4914,13.4914,13.4914,13.4914,13.4329,13.3348,13.408,13.3397,13.1781,13.1781,13.1238,13.0164,12.9438,12.8901,12.8469,12.8469,12.6652,12.3752,12.2123,11.7596,11.1776,10.8329,10.5057,10.2198,10.0482,9.9916,9.9916,9.9916,9.9916,9.9916,9.9916,9.9916,9.9916,9.9916,9.9916,9.9916,9.9916,9.9916,9.9916,9.9916,9.9916,10.003,10.0334,10.0144,10.003,10.0334,10.0647,10.0799,10.0799,10.1216,10.1672,10.1976,10.1558,10.1302,10.1302,10.0761,10.0258,9.9954,10.2759,10.5242,10.6997,11.0012,11.2492,11.4236,11.7245,11.8911,11.8911,12.3539,12.3624,11.8911,12.1948,12.4311,12.5971,12.5971,12.6862,10.1966,10.8234,11.4555,11.7783,12.3339,12.8121,12.8329,12.934,13.0212,13.0164,13.1,13.2074,13.3006,13.3202,13.3543,13.4622,13.4768,13.408,13.2074,13.3494,13.3982,13.1927,13.3543,13.4817,13.4817,13.4865,13.4865,13.4817,13.3933,13.3787,13.467,13.3787,13.3738,13.4768,13.4817,13.4817,13.4914,13.4914,13.4914,13.4914,13.4914,13.4329,13.325,13.3299,13.2806,13.1781,13.1732,13.1146,13.0212,13.0212,12.9536,12.8469,12.8469,12.8469,12.7918,12.3453,12.1689,12.0129,11.0739,10.7318,10.6308,10.1487,9.9916,9.9916,9.9916,9.9916,9.9916,9.9916,9.9916,9.9916,9.9916,9.9916,9.9916,9.9916,9.9916,9.9916,9.9916,9.9916,10.0182,10.1027,10.0485,10.0182,10.1074,10.0448,9.9916,9.9916,9.9916,10.022,10.1112,10.1226,10.1226,10.1226,10.1226,10.0837,9.9992,9.9916,10.1863,10.6446,10.6722,10.8785,11.3388,11.379,11.3924,11.3924,11.843,11.8518,11.3924,11.4191,11.6761,12.1474,12.1474,12.4013,10.0967,10.4427,10.8633,11.6611,12.0281,12.2871,12.6496,12.8845,13.0017,12.9096,13.0463,13.1634,13.114,13.1042,13.1634,13.3446,13.3104,13.2415,13.1878,13.2269,13.2122,13.0798,13.2513,13.3738,13.3738,13.4426,13.4573,13.3787,13.3494,13.3104,13.2616,13.2366,13.2665,13.3738,13.3738,13.4129,13.4914,13.4914,13.4914,13.4914,13.4914,13.3982,13.222,13.3006,13.2806,13.1732,13.0994,13.0505,13.0212,13.0212,12.9536,12.8469,12.8469,12.8469,12.8343,12.7163,12.4481,12.0652,11.4548,11.0148,10.6308,10.1487,9.9916,9.9916,9.9916,9.9916,9.9916,9.9916,9.9916,9.9916,9.9916,9.9916,9.9916,9.9916,9.9916,9.9916,9.9916,9.9916,9.9992,10.022,10.0068,9.9992,10.022,10.0068,9.9916,9.9916,9.9916,9.9992,10.022,10.0258,10.0258,10.0258,10.0258,10.0144,9.9954,9.9916,10.0435,10.1675,10.1769,10.2292,10.3513,10.6997,10.8922,10.8922,11.0106,11.0151,10.8922,11.2582,11.6761,12.1474,12.1474,12.4013,9.8178,10.2767,10.8715,11.6465,12.0684,12.3087,12.3632,12.6699,12.9145,12.8023,12.8803,12.9487,12.8894,12.9187,13.0024,13.1732,13.0103,12.9353,13.1524,12.9963,12.9205,13.0738,13.2366,13.3153,13.2714,13.3592,13.3787,13.2714,13.2269,13.1927,13.1781,13.1341,13.1585,13.2616,13.2665,13.2149,13.0956,13.3127,13.3369,13.1671,13.3849,13.408,13.2513,13.261,13.2122,13.1049,13.0505,13.0212,13.0212,13.0212,12.9871,12.9194,12.8664,12.8469,12.8469,12.8469,12.682,12.3885,11.9129,11.4281,10.9467,10.4634,10.1628,9.9916,9.9916,9.9916,9.9916,9.9916,9.9916,9.9916,9.9916,9.9916,9.9916,9.9916,9.9916,9.9916,9.9916,9.9916,9.9916,9.9916,9.9916,9.9916,9.9916,9.9916,9.9916,9.9916,9.9916,9.9916,9.9916,9.9916,9.9916,9.9916,9.9916,9.9916,9.9916,9.9916,9.9916,9.9916,9.9916,9.9916,9.9916,10.2526,10.3938,10.3938,10.3938,10.3938,10.3938,10.6671,11.0465,11.517,11.517,11.7683,9.5899,10.2802,11.1295,11.6695,12.1966,12.4912,12.1518,12.4694,12.8218,12.7144,12.6802,12.6705,12.6705,12.7437,12.8462,12.9626,12.641,12.5275,12.9638,12.6074,12.4847,12.9638,13.1267,13.1871,13.164,13.2562,13.2714,13.1683,13.0749,13.0554,13.1293,13.0505,13.0505,13.1537,13.1585,13.0036,12.6759,13.1151,13.1635,12.8341,13.2781,13.4329,13.3299,13.2226,13.1335,13.0456,13.031,13.0164,13.0017,13.0164,13.0164,12.9919,12.8901,12.8469,12.8469,12.8469,12.8469,12.7793,12.3111,11.8343,11.3522,10.8694,10.3845,9.9916,9.9916,9.9916,9.9916,9.9916,9.9916,9.9916,9.9916,9.9916,9.9916,9.9916,9.9916,9.9916,9.9916,9.9916,9.9916,9.9916,9.9916,9.9916,9.9916,9.9916,9.9916,9.9916,9.9916,9.9916,9.9916,9.9916,9.9916,9.9916,9.9916,9.9916,9.9916,9.984,9.9802,9.9916,9.984,9.9802,9.9916,9.9916,9.9878,9.9764,9.9878,9.9916,9.9916,9.9916,10.2385,10.7094,10.7094,10.9694,10.0433,10.4561,11.0285,11.5855,11.8629,12.0995,12.4829,12.7141,12.8218,12.7144,12.6258,12.5664,12.5664,12.5769,12.6258,12.729,12.3039,12.0234,12.188,11.7966,11.6748,12.1547,12.3745,12.6301,13.0166,13.1439,13.1634,13.0603,13.0359,12.9919,12.9145,12.8901,12.934,13.0456,13.0505,13.0568,13.0771,13.2471,13.3006,13.2323,13.4125,13.4329,13.3299,13.2226,13.1683,13.1488,13.0603,12.9724,12.8852,12.9822,12.9675,12.8803,12.8566,12.8469,12.8469,12.8469,12.8469,12.7793,12.3111,11.8343,11.3522,10.8694,10.3845,9.9916,9.9916,9.9916,9.9916,9.9916,9.9916,9.9916,9.9916,9.9916,9.9916,9.9916,9.9916,9.9916,9.9916,9.9916,9.9916,9.9916,9.9916,9.9916,9.9916,9.9916,9.9916,9.9916,9.9916,9.9916,9.9916,9.9916,9.9916,9.9916,9.9916,9.9916,9.9916,9.9309,9.9195,9.9878,9.9309,9.9233,9.9878,9.9916,9.9613,9.8976,9.9575,9.9916,9.9916,9.9916,10.2385,10.7094,10.7094,10.9694,9.7466,10.2192,10.7941,11.112,11.4897,11.728,11.5517,11.9358,12.4008,12.6397,12.4245,12.2378,12.4241,12.2623,12.1194,12.1717,11.9847,11.7942,11.6716,11.4023,11.3238,11.6245,11.9532,12.2417,12.4732,12.8081,12.9877,12.934,12.934,12.9096,12.8559,12.8469,12.8755,12.9292,12.934,12.8546,12.7061,13.068,13.1211,12.8627,13.2319,13.3836,13.3261,13.0146,12.9593,13.0945,12.978,12.934,12.9389,12.934,12.934,12.934,12.8713,12.8469,12.8469,12.8469,12.8469,12.8176,12.5886,12.2034,11.764,11.5347,10.9607,10.3699,10.3699,10.1909,9.9916,9.9916,9.9916,9.9916,9.9916,9.9916,9.9916,9.9916,9.9916,9.9916,9.9916,9.9916,9.9916,9.9916,9.9916,9.9916,9.9916,9.9916,9.9916,9.9916,9.9916,9.9764,9.9347,9.9309,9.9119,9.8749,9.8711,9.8862,9.9271,9.8976,9.909,9.9878,9.9157,9.8938,9.9271,9.9309,9.9166,9.8749,9.9499,9.9916,9.9916,9.9916,10.1103,10.3373,10.3373,10.4588,9.4886,9.9783,10.5028,10.5369,11.0369,11.4046,10.9713,11.3512,11.9232,12.4064,12.2198,12.054,12.3318,12.087,11.8096,11.6867,11.6385,11.492,11.1363,10.9313,10.8962,11.118,11.5679,11.9054,12.0314,12.5132,12.8267,12.8469,12.8274,12.8267,12.8469,12.8469,12.8469,12.8469,12.8469,12.6995,12.3936,12.8919,12.9449,12.5521,12.9741,13.2198,13.2877,12.878,12.809,13.0164,12.8999,12.8999,12.9822,12.8901,12.9047,12.9773,12.8852,12.8469,12.8469,12.8469,12.8469,12.8469,12.8469,12.5421,12.1474,12.1474,11.4948,10.7094,10.7094,10.3745,9.9916,9.9916,9.9916,9.9916,9.9916,9.9916,9.9916,9.9916,9.9916,9.9916,9.9916,9.9916,9.9916,9.9916,9.9916,9.9916,9.9916,9.9802,9.9651,9.9651,9.9537,9.9157,9.8597,9.8483,9.8255,9.7656,9.758,9.7846,9.8445,9.8331,9.8559,9.9347,9.8626,9.8293,9.8483,9.8331,9.8293,9.8483,9.9271,9.9764,9.9916,9.9916,9.9916,9.9916,9.9916,9.9916,9.8698,10.0317,10.1784,10.014,10.4537,11.1723,12.1254,11.9349,11.6197,11.8522,12.1318,12.343,12.3785,12.3494,12.1483,11.6263,11.2074,10.7946,10.3512,9.9835,9.9541,10.4755,11.0214,11.5604,12.0854,12.4851,12.7486,12.8371,12.7632,12.7486,12.842,12.8469,12.8469,12.8469,12.8469,12.8309,12.798,12.9611,13.0147,12.968,12.7607,12.8519,13.1927,13.0476,12.9984,13.0164,12.8999,12.8559,12.8657,12.8518,12.8518,12.8657,12.8559,12.8469,12.8469,12.8469,12.8469,12.8469,12.8469,12.5421,12.1474,12.1474,11.4948,10.7094,10.7094,10.3745,9.9916,9.9916,9.9916,9.9916,9.9916,9.9916,9.9916,9.9916,9.9916,9.9916,9.9916,9.9916,9.9916,9.9916,9.9916,9.9916,9.9916,9.9309,9.8862,9.8862,9.8217,9.777,9.7694,9.7694,9.7656,9.758,9.758,9.7618,9.7694,9.688,9.6805,9.777,9.6918,9.685,9.7656,9.6926,9.6805,9.7694,9.8445,9.9195,9.9916,9.9916,9.9916,9.9916,9.9916,9.9916,9.5765,9.7923,10.0195,10.0605,10.206,10.5514,11.3459,11.5854,11.6752,11.8098,11.9608,12.0664,12.0664,11.9583,11.7214,11.2912,11.2462,10.9167,9.9154,9.8847,9.9429,9.8892,10.3671,10.9269,11.5065,11.9894,12.4234,12.8204,12.812,12.8071,12.8469,12.8469,12.8469,12.8469,12.8469,12.8469,12.8469,12.9675,12.9919,12.9152,12.8732,12.8962,12.9702,12.6942,12.696,12.9145,12.8664,12.8469,12.8302,12.5463,12.4268,12.4268,12.4268,12.6019,12.8469,12.8469,12.8469,12.8469,12.8469,12.7289,12.5717,12.5717,11.9214,11.1416,11.1416,10.6026,9.9916,9.9916,9.9916,9.9916,9.9916,9.9916,9.9916,9.9916,9.9916,9.9916,9.9916,9.9916,9.9916,9.9916,9.9916,9.9764,9.9271,9.8976,9.8597,9.8103,9.7808,9.758,9.758,9.7078,9.6774,9.6774,9.6364,9.625,9.6736,9.6425,9.6623,9.7542,9.6736,9.6167,9.606,9.6167,9.6387,9.6774,9.761,9.8179,9.8521,9.9014,9.9195,9.9195,9.9689,9.9916,9.313,9.5296,9.7726,9.9095,10.001,10.1197,10.3342,10.9164,11.4624,11.6817,11.9031,12.0186,11.88,11.7261,11.5347,11.2649,11.1723,10.794,9.8443,9.8664,9.8699,9.5743,9.9974,10.4959,10.957,11.4185,11.8989,12.3914,12.4815,12.5474,12.6393,12.7459,12.8169,12.8469,12.8469,12.8469,12.8469,12.9292,12.9292,12.8469,12.8141,12.8135,12.8385,12.5624,12.5875,12.8469,12.8469,12.8469,12.8134,12.341,12.0652,11.9347,11.9347,12.1387,12.4481,12.5886,12.6441,12.661,12.796,12.8469,12.826,12.6862,12.0909,11.4058,11.2627,10.6441,9.9916,9.9916,9.9916,9.9916,9.9916,9.9916,9.9916,9.9916,9.9916,9.9916,9.9916,9.9916,9.9916,9.9916,9.9727,9.9385,9.8862,9.8369,9.7837,9.723,9.6972,9.682,9.682,9.6288,9.5901,9.5901,9.5377,9.5263,9.5825,9.5901,9.6129,9.6782,9.6205,9.5643,9.508,9.5559,9.597,9.6235,9.685,9.7268,9.758,9.8103,9.8407,9.8407,9.893,9.9347,9.23,9.3136,9.3743,9.3743,9.7817,10.0211,9.4051,10.0131,10.839,11.3161,12.008,12.3933,11.9434,11.8548,11.8178,11.7122,10.8504,10.1921,10.1831,9.7912,9.5384,9.6122,10.0504,10.4097,10.5852,10.8579,11.1449,11.4241,11.6106,11.8409,12.1421,12.5013,12.7388,12.842,12.8469,12.8469,12.8469,12.8469,12.8469,12.8427,12.4573,12.4741,12.8469,12.8427,12.8427,12.8469,12.8469,12.8469,12.8134,12.341,11.8692,11.437,11.437,11.4414,11.5036,11.9782,12.1517,12.2252,12.6862,12.8469,12.7709,12.3068,11.8299,11.3433,10.8648,10.3752,9.9916,9.9916,9.9916,9.9916,9.9916,9.9916,9.9916,9.9916,9.9916,9.9916,9.9916,9.9916,9.9916,9.9916,9.9271,9.8749,9.8749,9.7336,9.6235,9.6235,9.5605,9.508,9.508,9.508,9.508,9.508,9.508,9.508,9.508,9.508,9.508,9.508,9.508,9.508,9.508,9.508,9.5453,9.6197,9.6235,9.6698,9.758,9.758,9.7618,9.7618,9.7618,9.7989,9.0548,9.1801,9.2864,9.2864,9.5084,9.6216,9.2452,9.9106,10.6769,10.9206,11.3809,11.6478,11.3428,11.7301,11.9082,11.3283,10.9102,10.5424,10.2269,9.7951,9.5156,9.5377,9.7225,10.0025,10.3864,10.6041,10.8973,11.306,11.4467,11.5564,11.654,12.0028,12.2171,12.25,12.567,12.7437,12.7437,12.8169,12.8469,12.8469,12.6519,12.6602,12.8469,12.8469,12.8469,12.8469,12.8469,12.6652,12.3325,11.8516,11.3702,10.9376,10.9376,11.1413,11.4503,11.6011,11.6585,11.6761,11.8254,11.8778,11.8516,11.7069,11.33,10.9104,10.7552,10.3745,9.9916,9.9916,9.9916,9.9916,9.9916,9.9916,9.9916,9.9916,9.9916,9.9916,9.9916,9.9916,9.9764,9.9195,9.8938,9.8407,9.7222,9.6577,9.6008,9.5529,9.5187,9.508,9.508,9.5529,9.5635,9.5118,9.508,9.508,9.508,9.5567,9.5597,9.508,9.508,9.508,9.508,9.508,9.5194,9.5415,9.5415,9.5567,9.5833,9.6395,9.6615,9.6698,9.7314,9.7732,9.0624,9.1459,9.2143,9.2788,9.3781,9.3895,9.1302,9.7145,10.343,10.436,10.6711,10.8918,11.0005,11.3064,11.568,11.6435,11.091,10.602,10.4649,10.0476,9.6975,9.5266,9.5491,9.7083,10.0375,10.1364,10.3304,10.6837,10.8667,11.0648,11.306,11.7059,12.0066,12.1843,12.5161,12.6746,12.6355,12.6998,12.6607,12.518,12.6406,12.7242,12.7925,12.8315,12.8469,12.8469,12.8469,12.682,12.3624,11.7025,11.2494,10.9467,10.5796,10.6211,10.91,11.0917,11.1593,11.1863,11.3656,11.428,11.4013,11.2178,10.9558,10.6768,10.4918,10.2292,9.9916,9.9916,9.9916,9.9916,9.9916,9.9916,9.9916,9.9916,9.9916,9.9916,9.9916,9.9689,9.9309,9.8862,9.8209,9.745,9.6425,9.597,9.5597,9.5156,9.508,9.508,9.508,9.5491,9.5605,9.5118,9.508,9.508,9.508,9.5787,9.5901,9.5118,9.5339,9.5377,9.508,9.508,9.508,9.508,9.508,9.508,9.508,9.5567,9.5787,9.5787,9.6364,9.6782,9.1844,9.1763,9.1606,9.3092,9.3471,9.294,9.0624,9.4621,9.893,9.9266,10.0003,10.257,10.9023,10.7017,10.9007,12.3185,11.3303,10.4991,10.8244,10.4644,10.001,9.577,9.5194,9.5415,9.6046,9.5567,9.5795,9.7466,10.0038,10.4176,11.0145,11.5283,11.9977,12.422,12.5641,12.5903,12.4979,12.493,12.3123,11.9724,12.4599,12.6727,12.639,12.7807,12.8462,12.8371,12.7988,12.7911,12.7241,11.7989,11.4015,11.2896,10.3931,10.0247,10.0444,10.4918,10.6584,10.7186,11.1728,11.3254,11.2537,10.801,10.6584,10.575,10.1253,9.9916,9.9916,9.9916,9.9916,9.9916,9.9916,9.9916,9.9916,9.9916,9.9916,9.9916,9.984,9.9233,9.8711,9.8597,9.7298,9.6197,9.6159,9.5567,9.508,9.508,9.508,9.508,9.508,9.508,9.508,9.508,9.508,9.508,9.508,9.5711,9.5825,9.5118,9.5749,9.5825,9.508,9.508,9.508,9.508,9.508,9.508,9.508,9.508,9.508,9.508,9.508,9.5453,8.9603,9.0933,9.1991,9.108,9.1302,9.1606,9.1037,9.4499,9.8156,9.9143,10.251,10.6275,10.9366,10.5833,10.4505,11.0596,11.1622,11.1091,10.9499,10.3633,9.8859,9.7185,9.6357,9.5787,9.5377,9.5711,9.6395,9.7504,9.8215,9.9504,10.1577,10.8906,11.3567,11.464,11.8484,12.067,12.1059,12.0436,11.9694,11.8918,12.4388,12.4671,12.0692,12.6084,12.8071,12.7125,12.3592,12.2446,12.2589,11.5959,11.1496,10.8557,10.6308,10.314,10.0058,10.1159,10.1581,10.1769,10.2899,10.3273,10.3133,10.2003,10.1581,10.1394,10.0247,9.9916,9.9916,9.9916,9.9916,9.9916,9.9916,9.9916,9.9916,9.9916,9.9916,9.9764,9.9119,9.89,9.8322,9.7032,9.6501,9.6008,9.5453,9.5194,9.508,9.508,9.508,9.508,9.508,9.508,9.508,9.508,9.508,9.508,9.508,9.5232,9.5225,9.508,9.5225,9.5225,9.508,9.508,9.508,9.508,9.508,9.508,9.508,9.508,9.508,9.508,9.508,9.5156,8.9713,9.089,9.1611,9.032,9.0581,9.1074,9.0695,9.3043,9.5462,9.6064,9.8996,10.1775,10.2846,10.3206,10.2993,10.2136,10.7335,11.0494,10.7452,10.4392,10.1255,9.7971,9.6433,9.5833,9.6174,9.5908,9.5908,9.6364,9.6402,9.751,10.0074,10.4936,10.9414,11.3084,11.6695,11.9564,12.1629,11.9139,11.6718,11.465,12.2959,12.3748,11.8113,12.524,12.7925,12.6694,12.2547,12.2254,12.4136,11.662,11.2335,11.0196,10.7557,10.3814,9.9878,9.9499,9.9613,9.9916,9.9916,9.9916,9.9916,9.9916,9.9916,9.9916,9.9916,9.9916,9.9916,9.9916,9.9916,9.9916,9.9916,9.9651,9.9461,9.984,9.9651,9.9233,9.8862,9.8445,9.7799,9.6463,9.5939,9.5567,9.5156,9.508,9.508,9.508,9.508,9.508,9.508,9.508,9.508,9.508,9.508,9.5187,9.5567,9.5263,9.5187,9.5559,9.5225,9.508,9.508,9.508,9.508,9.508,9.508,9.508,9.508,9.508,9.508,9.508,9.508,9.508,9.0581,9.0999,9.0847,9.0278,9.0657,9.1037,9.051,9.1502,9.2528,9.2528,9.3743,9.4807,9.4807,10.0008,10.281,9.8294,10.3581,10.7264,10.4513,10.493,10.3522,9.8193,9.6174,9.5757,9.7048,9.587,9.5118,9.5232,9.5073,9.6785,10.0766,10.2509,10.6525,11.3243,11.5925,11.9031,12.2719,11.8413,11.4101,11.0057,12.0603,12.2553,11.7052,12.4711,12.7681,12.6499,12.288,12.3947,12.755,11.8634,11.4597,11.3576,10.8829,10.4108,9.984,9.9157,9.9347,9.9916,9.9916,9.9916,9.9916,9.9916,9.9916,9.9916,9.9916,9.9916,9.9916,9.9916,9.9916,9.9878,9.9764,9.9309,9.9043,9.9613,9.9195,9.8711,9.8597,9.7913,9.7078,9.6243,9.5484,9.508,9.508,9.508,9.508,9.508,9.508,9.508,9.508,9.508,9.508,9.508,9.508,9.5339,9.597,9.5453,9.5339,9.6015,9.5415,9.508,9.508,9.508,9.508,9.508,9.508,9.508,9.508,9.508,9.508,9.508,9.508,9.508,8.9941,9.0206,9.032,9.0847,9.1074,9.134,9.1991,9.2338,9.2528,9.2528,9.3244,9.3889,9.3889,9.7887,10.1747,10.3374,10.622,10.7264,10.4417,10.1136,9.864,9.7726,9.666,9.5901,9.5498,9.5232,9.5339,9.597,9.5453,9.5654,9.7018,10.1098,10.398,10.5172,10.9327,11.3591,11.7978,11.4393,11.1744,11.0227,11.6748,11.834,11.5817,12.3606,12.6599,12.5419,12.1883,12.2945,12.6674,12.0483,11.597,11.2885,11.2006,10.686,9.9916,9.9802,9.9802,9.9916,9.9916,9.9916,9.9916,9.9916,9.9916,9.9916,9.9916,9.9916,9.9916,9.9916,9.9916,9.9764,9.9081,9.9309,9.9613,9.909,9.8862,9.8559,9.7922,9.7078,9.6159,9.5377,9.5156,9.508,9.508,9.508,9.508,9.508,9.508,9.508,9.508,9.508,9.508,9.508,9.508,9.5118,9.5232,9.5156,9.5118,9.5225,9.5073,9.508,9.508,9.508,9.508,9.508,9.508,9.508,9.508,9.508,9.508,9.508,9.508,9.508,8.9033,8.9979,9.0733,9.1074,9.1188,9.1416,9.2294,9.2143,9.1915,9.2452,9.2832,9.3168,9.3623,9.5387,9.7588,9.9885,10.1853,10.3353,10.3901,10.1873,9.9666,9.778,9.6402,9.5833,9.6364,9.5612,9.5232,9.5567,9.5225,9.5187,9.5605,9.7646,10.1124,10.6015,10.6393,10.8423,11.2358,11.1427,11.1598,11.2983,11.426,11.3779,11.1939,11.9134,12.2163,12.1658,12.0463,12.1464,12.3719,12.0519,11.5196,10.9215,11.0753,10.6145,9.8673,9.8673,9.8938,9.9347,9.9764,9.9916,9.984,9.9423,9.9318,9.9318,9.9318,9.9318,9.9347,9.9802,9.9613,9.9195,9.8862,9.8322,9.7943,9.8065,9.7761,9.726,9.6926,9.6501,9.597,9.5187,9.508,9.508,9.508,9.508,9.508,9.508,9.508,9.508,9.508,9.508,9.508,9.508,9.508,9.508,9.508,9.508,9.508,9.508,9.508,9.508,9.508,9.508,9.508,9.508,9.508,9.508,9.508,9.508,9.508,9.508,9.508,9.508,8.8426,0.0,9.0657,9.0847,9.1037,9.1416,0.0,9.2143,9.1947,9.268,9.2832,9.2946,9.3357,9.432,9.5134,9.5543,9.7955,10.0244,10.1703,10.1978,10.0989,9.8177,9.6554,9.606,9.7162,9.5908,9.508,9.508,9.508,9.508,9.508,9.508,9.8222,10.5082,10.2794,10.3229,10.6878,10.6705,10.8506,11.2099,11.027,10.9713,11.0392,11.5757,11.8178,11.8354,12.0217,12.0338,11.9225,12.0497,11.5587,10.7454,11.0798,10.6749,9.9117,9.9117,9.896,9.8862,9.9423,9.9764,9.984,9.9195,9.89,9.8749,9.8749,9.8635,9.8597,9.9157,9.9043,9.8673,9.8255,9.7336,9.6698,9.7154,9.6736,9.6235,9.6235,9.6084,9.5787,9.5194,9.508,9.508,9.508,9.508,9.508,9.508,9.508,9.508,9.508,9.508,9.508,9.508,9.508,9.508,9.508,9.508,9.508,9.508,9.508,9.508,9.508,9.508,9.508,9.508,9.508,9.508,9.508,9.508,9.508,9.508,9.508,9.508,0.0,8.892,8.9185,8.9903,9.0619,9.1416,9.2294,9.3016,0.0,9.3623,9.3623,9.3395,9.2756,9.609,9.7791,9.4406,9.8847,10.1062,9.634,9.8269,9.9761,9.8795,9.7875,9.7078,9.6387,9.5567,9.508,9.508,9.508,9.508,9.508,9.508,9.5355,9.5988,9.5752,9.7813,10.2269,9.8173,9.835,10.2834,10.2654,10.6879,11.4878,11.6443,11.7159,11.7413,12.2728,12.0076,11.2752,12.1415,11.9312,11.1103,11.5789,11.1926,10.3726,10.3726,10.1602,9.8749,9.8825,9.9309,9.9916,9.9878,9.9309,9.8749,9.8749,9.8217,9.7694,9.7732,9.8217,9.8407,9.6805,9.6964,9.7314,9.6501,9.6273,9.6235,9.6235,9.5635,9.5073,9.508,9.508,9.508,9.508,9.508,9.508,9.508,9.508,9.508,9.508,9.508,9.508,9.508,9.508,9.508,9.508,9.508,9.508,9.508,9.508,9.508,9.508,9.508,9.508,9.508,9.508,9.508,9.508,9.508,9.508,9.508,9.508,9.508,8.8616,8.9565,9.0353,9.0657,9.0961,9.153,9.294,9.2674,9.2403,9.3509,9.3282,9.3016,9.3206,9.4236,9.5117,9.5259,9.6859,9.8055,9.8115,9.8749,10.0126,10.2666,10.1338,9.8998,9.5799,9.5225,9.508,9.508,9.508,9.508,9.508,9.508,9.508,9.508,9.508,9.7241,10.1831,9.733,9.8713,10.5939,10.3181,10.3616,10.7006,11.0322,11.0639,10.881,11.3819,11.2561,0.0,11.655,11.4591,10.6718,11.3659,11.0771,10.2763,10.329,10.0774,9.726,9.7799,9.8217,9.8559,9.9006,9.8673,9.7989,9.7989,9.7846,9.758,9.758,9.7808,9.7724,9.6539,9.6463,9.6547,9.5719,9.5491,9.5491,9.5491,9.5263,9.508,9.508,9.508,9.508,9.508,9.508,9.508,9.508,9.508,9.508,9.508,9.508,9.508,9.508,9.508,9.4807,9.4275,9.4731,9.4624,9.3516,9.4472,9.4814,9.4237,9.4731,9.508,9.508,9.508,9.508,9.508,9.508,9.508,9.508,9.508,9.508,8.8616,8.9789,9.0809,9.0809,9.0999,9.1492,9.263,9.2213,9.2029,9.3395,9.3244,9.3174,9.3965,9.3478,9.3509,9.5522,9.5643,9.6136,9.8103,9.8597,9.969,10.2246,10.111,9.8877,9.573,9.5187,9.508,9.508,9.508,9.508,9.508,9.508,9.508,9.508,9.508,9.6568,9.9682,9.6613,9.8134,10.422,10.1177,10.0433,10.1921,10.5081,10.5201,10.3212,10.7735,10.76,10.4753,11.343,11.3204,10.8035,11.52,11.2289,10.4045,10.4626,10.116,9.6311,9.6926,9.7352,9.7694,9.8179,9.7989,9.758,9.758,9.739,9.7192,9.7504,9.739,9.6964,9.6091,9.5863,9.5711,9.5194,9.508,9.508,9.508,9.508,9.508,9.508,9.508,9.508,9.508,9.508,9.508,9.508,9.508,9.508,9.508,9.508,9.508,9.508,9.508,9.4655,9.3775,9.4047,9.3743,9.2604,9.3591,9.3971,9.3357,9.3933,9.4396,9.4617,9.4617,9.4769,9.508,9.508,9.508,9.508,9.508,9.508,8.8578,8.9413,9.0016,9.0016,9.0581,9.115,9.1188,9.1877,9.2756,9.3547,9.3699,9.3965,9.489,9.4313,9.3965,9.4883,9.5673,9.5894,9.5149,9.7162,9.8103,9.6433,9.6243,9.6197,9.6288,9.5491,9.5042,9.508,9.508,9.508,9.508,9.5042,9.5042,9.5042,9.508,9.508,9.508,9.508,9.508,9.508,9.5087,9.7463,10.1747,10.1875,10.1875,10.2008,10.6537,10.6405,10.3757,11.3077,11.6813,11.7057,12.1894,11.7624,10.8662,10.8662,10.3368,9.6197,9.6197,9.6812,9.758,9.758,9.758,9.758,9.758,9.6926,9.6387,9.7268,9.6888,9.6008,9.5263,9.508,9.508,9.508,9.508,9.508,9.508,9.508,9.508,9.508,9.508,9.508,9.508,9.508,9.508,9.508,9.508,9.508,9.508,9.508,9.508,9.508,9.5042,9.4655,9.3737,9.294,9.2528,9.2528,9.2528,9.2528,9.2528,9.2528,9.2908,9.3661,9.3699,9.4117,9.5042,9.5042,9.5042,9.5042,9.5042,9.5042,8.7773,8.8915,9.0016,9.0016,9.0168,9.0467,9.1037,9.1378,9.1947,9.3395,9.3244,9.3326,9.4814,9.3857,9.3364,9.4852,9.4237,9.3927,9.4928,9.5643,9.6942,9.8976,9.6969,9.6179,9.8191,9.58,9.4389,9.5004,9.508,9.508,9.508,9.4465,9.4079,9.4079,9.4693,9.508,9.508,9.508,9.508,9.5125,9.8311,9.8845,9.7152,10.0429,10.0122,9.7152,9.8487,10.0242,10.2679,10.8587,11.2841,11.6115,12.0787,11.6888,10.8662,10.8662,10.2999,9.5415,9.5415,9.5567,9.587,9.6433,9.6615,9.6615,9.6615,9.6053,9.5605,9.6395,9.5552,9.4642,9.5635,9.5901,9.5749,9.5194,9.508,9.508,9.508,9.508,9.508,9.508,9.508,9.508,9.508,9.508,9.508,9.508,9.508,9.508,9.508,9.508,9.508,9.508,9.3971,9.2864,9.1985,9.2294,9.2034,9.0814,9.1882,9.2219,9.1568,9.2181,9.2642,9.2908,9.2908,9.3022,9.325,9.325,9.325,9.325,9.325,9.325,8.7924,8.8684,9.0016,9.0016,9.0016,9.013,9.0581,9.0695,9.1074,9.2403,9.2598,9.2832,9.3902,9.3743,9.3674,9.3971,9.3478,9.3092,9.3478,9.3471,9.4227,9.6114,9.4342,9.3853,9.5922,9.4023,9.3054,9.3971,9.4009,9.4009,9.4009,9.3553,9.3357,9.3699,9.4193,9.4655,9.508,9.508,9.508,9.5125,9.7863,9.773,9.5131,9.7868,9.7685,9.508,9.508,9.7641,10.2182,10.6665,11.1224,11.5692,12.0306,11.7664,11.1101,10.9209,10.4004,9.7508,9.5669,9.508,9.5156,9.5597,9.5749,9.5825,9.6122,9.5673,9.5187,9.6015,9.5294,9.4503,9.5484,9.5749,9.5635,9.5194,9.508,9.508,9.508,9.508,9.508,9.508,9.508,9.508,9.508,9.508,9.508,9.508,9.508,9.508,9.508,9.4776,9.4503,9.4503,9.3326,9.2143,9.1264,9.1383,9.108,9.0054,9.0928,9.1269,9.0733,9.1231,9.1649,9.1991,9.1991,9.2143,9.2528,9.2528,9.2528,9.2528,9.2528,9.2528,8.8548,8.8646,8.9903,8.9979,9.0016,9.0016,9.0016,9.0016,9.0202,9.0999,9.1763,9.2338,9.2528,9.3705,9.4199,9.2756,9.3054,9.2896,9.1302,9.0999,9.0695,8.9979,8.9903,9.0206,9.0999,9.115,9.1492,9.2332,9.249,9.2452,9.23,9.2376,9.2712,9.3471,9.3547,9.4047,9.4928,9.4852,9.4852,9.4966,9.4852,9.4852,9.4883,9.4852,9.4852,9.4966,9.4966,9.7524,10.206,10.6708,11.1269,11.5692,12.0306,11.9287,11.4749,11.0177,10.5639,10.122,9.6657,9.508,9.508,9.508,9.508,9.5187,9.5856,9.5559,9.5073,9.5856,9.5522,9.4966,9.5042,9.508,9.508,9.508,9.508,9.508,9.508,9.508,9.508,9.508,9.508,9.508,9.508,9.508,9.508,9.508,9.508,9.508,9.508,9.4351,9.3775,9.3623,9.2864,9.2029,9.115,9.0391,9.0016,9.0016,9.0016,9.0016,9.0016,9.0016,9.0358,9.1074,9.1074,9.1454,9.23,9.23,9.23,9.23,9.23,9.23,8.8394,8.827,8.9223,8.9865,9.0016,9.0016,9.0016,9.0016,9.0202,9.0999,9.0852,9.0928,9.23,9.2219,9.2143,9.249,9.2067,9.1378,9.0396,8.9713,8.9299,8.9109,8.9109,8.9413,9.0168,9.0809,9.1264,9.1416,9.2105,9.1958,9.0624,9.1155,9.153,9.172,9.2408,9.3174,9.3965,9.3402,9.3402,9.3965,9.3364,9.3402,9.3965,9.3364,9.3402,9.3965,9.3965,9.6542,10.12,10.6493,11.1269,11.5692,12.0306,11.9287,11.4749,11.0219,10.5724,10.122,9.6657,9.508,9.508,9.508,9.508,9.508,9.5225,9.4693,9.4155,9.5073,9.4693,9.4117,9.4845,9.508,9.508,9.508,9.508,9.508,9.508,9.508,9.508,9.508,9.508,9.508,9.508,9.508,9.508,9.508,9.508,9.508,9.508,9.489,9.4237,9.2946,9.1991,9.1112,9.0278,9.0092,9.0016,9.0016,9.0016,9.0016,9.0016,9.0016,9.0092,9.0244,9.0282,9.0358,9.0548,9.0548,9.0548,9.0548,9.0548,9.0548,8.7896,8.7852,8.892,8.9375,8.9713,9.0016,9.0016,9.0016,9.013,9.0505,9.0581,9.0852,9.1725,9.1839,9.1839,9.1877,9.1193,9.0467,9.0054,8.8953,8.846,8.9299,8.9071,8.9147,8.9941,9.0353,9.0581,9.0581,9.1042,9.0928,9.0054,9.0396,9.0771,9.115,9.1649,9.2294,9.313,9.2756,9.2756,9.313,9.2718,9.2756,9.3092,9.2718,9.2756,9.313,9.313,9.4457,9.7071,10.2119,10.7068,11.1917,11.6507,11.8375,11.7989,11.3472,10.8956,10.4392,9.9902,9.6886,9.508,9.508,9.508,9.508,9.508,9.4693,9.4465,9.4928,9.4693,9.4465,9.4966,9.508,9.508,9.508,9.508,9.508,9.508,9.508,9.508,9.508,9.508,9.508,9.508,9.508,9.508,9.508,9.508,9.508,9.508,9.508,9.4434,9.2718,9.2105,9.1345,9.0092,9.0016,9.0016,9.0016,9.0016,9.0016,9.0016,9.0016,9.0016,9.0016,9.0016,9.0016,9.0016,9.0016,9.0016,9.0016,9.0016,9.0016,8.7319,8.7362,8.8464,8.8768,8.9337,8.9827,8.9979,9.0016,9.0016,9.0016,9.0505,9.0961,9.0961,9.1573,9.1877,9.1264,9.0619,9.0168,9.0016,8.876,8.8304,8.9447,8.9105,8.9109,8.9713,8.9903,9.0016,9.0016,9.0016,9.0016,9.0016,9.0016,9.0278,9.0961,9.0961,9.1421,9.2256,9.2186,9.2186,9.23,9.2186,9.2186,9.23,9.2186,9.2186,9.23,9.23,9.23,9.2648,9.7393,10.2385,10.7457,11.2023,11.6993,12.0977,11.664,11.2575,10.8696,10.3617,9.9374,9.6039,9.4968,9.4579,9.4662,9.4814,9.4807,9.489,9.5004,9.508,9.508,9.508,9.508,9.508,9.508,9.508,9.508,9.508,9.508,9.508,9.508,9.508,9.508,9.508,9.508,9.508,9.508,9.508,9.508,9.508,9.4814,9.4054,9.2452,9.23,9.1649,9.013,9.0016,9.0016,9.0016,9.0016,9.0016,9.0016,9.0016,9.0016,9.0016,9.0016,9.0016,9.0016,9.0016,9.0016,9.0016,9.0016,9.0016,8.7165,8.6448,8.6979,8.8464,8.892,8.9185,8.9827,9.0016,9.0016,9.0016,9.0092,9.0168,9.0168,9.0244,9.0548,9.1074,9.1074,9.0771,9.0092,8.9827,8.9177,8.7963,8.8384,8.8882,8.8995,8.9641,9.0016,9.0016,9.0016,9.0016,9.0016,9.0016,9.0054,9.0168,9.0168,9.0548,9.134,9.07,9.07,9.134,9.0662,9.07,9.1302,9.0662,9.07,9.134,9.134,9.134,9.1766,9.7112,10.1965,10.6414,11.0978,11.5477,11.8927,11.5281,11.3537,11.1916,10.4443,10.1482,10.006,9.4649,9.287,9.2984,9.3661,9.3889,9.4041,9.4852,9.508,9.508,9.508,9.508,9.508,9.508,9.508,9.508,9.508,9.508,9.508,9.508,9.508,9.508,9.508,9.508,9.508,9.508,9.508,9.508,9.508,9.3743,9.2446,9.1454,9.134,9.0961,9.0092,9.0016,9.0016,9.0016,9.0016,9.0016,9.0016,9.0016,9.0016,9.0016,9.0016,9.0016,9.0016,9.0016,9.0016,9.0016,9.0016,9.0016,8.5832,8.5916,8.6486,8.7207,8.7739,8.8156,8.8494,8.8991,8.9375,8.9375,9.0054,9.0814,9.1307,9.1004,9.0923,9.1801,9.1155,9.0353,9.0054,8.9599,8.9219,8.8953,8.884,8.8995,8.9409,8.9789,9.0016,9.0016,9.0016,9.0206,9.0619,9.0244,9.0016,9.0016,9.0016,9.0126,9.0505,9.0168,9.0168,9.0505,9.0168,9.0206,9.0467,9.0168,9.0206,9.0505,9.0505,9.0505,9.0676,9.3117,9.6989,10.1832,10.6221,11.0974,11.5437,11.6345,11.5055,11.2005,10.6084,10.4029,10.3142,9.7845,9.4495,9.2604,9.2946,9.3016,9.3136,9.3516,9.3933,9.4313,9.4313,9.4655,9.508,9.508,9.508,9.508,9.508,9.508,9.508,9.508,9.508,9.508,9.508,9.508,9.508,9.508,9.4617,9.4123,9.3667,9.2984,9.2181,9.1264,9.1188,9.0847,9.0054,9.0016,9.0016,9.0016,9.0016,9.0016,9.0016,8.9561,8.9375,8.9375,8.8798,8.857,8.857,8.9067,8.9375,8.9375,8.9789,9.0016,8.4549,8.5271,8.603,8.6258,8.6751,8.7242,8.7431,8.8004,8.8578,8.8768,8.9751,9.0852,9.173,9.1345,9.115,9.2029,9.1117,9.0278,9.0278,8.9789,8.9485,8.9675,8.9333,8.9181,8.9333,8.9751,8.9903,8.9713,8.9713,9.0054,9.0809,9.0278,9.0016,9.0016,9.0016,9.0016,9.0016,9.0016,9.0016,9.0016,9.0016,9.0016,9.0016,9.0016,9.0016,9.0016,9.0016,9.0016,9.0016,9.0016,9.3001,9.7884,10.1107,10.6172,11.2093,11.558,11.5441,11.2774,10.818,10.5947,10.4267,9.9749,9.5386,9.192,9.2105,9.2181,9.2219,9.249,9.2984,9.3395,9.3395,9.4047,9.4693,9.4693,9.489,9.5004,9.4731,9.4928,9.5004,9.4731,9.4928,9.5004,9.4731,9.4693,9.4617,9.4427,9.4009,9.3395,9.2642,9.2148,9.1611,9.0923,9.0885,9.0619,9.0054,9.0016,9.0016,9.0016,8.9789,8.9713,8.9713,8.8915,8.846,8.846,8.7811,8.7469,8.7469,8.8156,8.846,8.8502,8.9067,8.9371,8.4058,8.4398,8.5233,8.6106,8.6334,8.6562,8.7318,8.7507,8.7773,8.8654,8.8882,8.9223,8.9979,9.0092,9.0278,9.1112,9.1188,9.1112,9.1112,9.1074,9.0505,8.9071,8.9485,8.9333,8.7735,8.9025,8.9675,8.8957,8.8882,8.9261,9.0016,9.0016,9.0016,9.0016,9.0016,9.0016,9.0016,9.0016,9.0016,9.0016,9.0016,9.0016,9.0016,9.0016,9.0016,9.0016,9.0016,9.0016,9.0016,9.0016,9.2564,9.6528,9.6775,10.1993,10.9536,11.0789,11.3677,11.6222,11.0918,10.6389,10.2238,9.797,9.365,9.0282,9.0999,9.1264,9.1416,9.2256,9.2566,9.2604,9.2604,9.3168,9.3775,9.3775,9.4427,9.4807,9.3927,9.4465,9.4814,9.3927,9.4465,9.4769,9.3927,9.3775,9.3509,9.2794,9.3244,9.3395,9.2642,9.1117,9.013,9.0054,9.0054,9.0054,9.0016,9.0016,9.0016,9.0016,8.9299,8.8882,8.8882,8.8042,8.7545,8.7545,8.7507,8.7469,8.7469,8.7507,8.7545,8.7545,8.7583,8.7621,8.4322,8.436,8.4286,8.4627,8.4703,8.4853,8.5688,8.6334,8.6827,8.7131,8.846,8.9675,8.9941,9.0391,9.0847,9.115,9.0733,9.0391,9.0391,9.0391,9.0244,8.9637,8.9827,8.9561,8.8502,8.892,8.9147,8.8844,8.8844,8.9185,8.9979,9.0016,9.0016,9.0016,9.0016,9.0016,9.0016,9.0016,9.0016,9.0016,9.0016,9.0016,9.0016,9.0016,9.0016,9.0016,9.0016,9.0016,9.0016,9.0016,9.0912,9.2564,9.5328,9.8296,10.1706,10.76,11.0802,11.18,10.9878,10.8215,10.6248,10.1947,9.7599,9.3655,9.1172,9.0391,9.051,9.0814,9.1269,9.1687,9.1687,9.2294,9.2902,9.2902,9.3212,9.3326,9.3022,9.3212,9.3326,9.3022,9.3212,9.3326,9.2978,9.2902,9.3016,9.3244,9.2598,9.1758,9.1004,9.0358,9.0016,9.0016,9.0016,9.0016,9.0016,9.0016,8.9789,8.9299,8.8995,8.8536,8.8004,8.7169,8.6751,8.6751,8.6141,8.5838,8.5878,8.6448,8.6751,8.6751,8.7242,8.7469,8.398,8.4132,8.4134,8.383,8.3564,8.3564,8.436,8.5005,8.5653,8.6182,8.7625,8.8915,8.9485,9.0054,9.0467,9.0733,9.0316,9.0016,9.0016,9.0016,9.0016,9.0016,9.0016,8.9675,8.892,8.8578,8.8232,8.8008,8.8008,8.8308,8.9143,8.9447,8.9599,8.9599,8.9865,9.0016,9.0016,9.0016,9.0016,9.0016,9.0016,9.0016,9.0016,9.0016,9.0016,9.0016,9.0016,9.0016,9.0016,9.0016,9.0016,9.0276,9.3155,9.512,9.7106,10.2831,10.4944,10.5335,10.8215,10.8293,10.6642,10.375,9.9885,9.5618,9.1297,9.0016,9.0016,9.0016,9.0353,9.0771,9.0771,9.1421,9.2067,9.2067,9.2338,9.2452,9.2105,9.2338,9.2452,9.2105,9.2294,9.2452,9.2105,9.2067,9.2256,9.2744,9.1644,9.0581,9.0054,9.0016,9.0016,9.0016,9.0016,9.0016,9.0016,8.9751,8.9371,8.8882,8.8312,8.7701,8.709,8.6296,8.584,8.584,8.5271,8.4967,8.4967,8.5575,8.584,8.5878,8.6369,8.6635,8.2802,8.3523,8.4587,8.3906,8.3069,8.2612,8.3602,8.3792,8.4248,8.5878,8.6258,8.6751,8.8464,8.8768,8.9071,8.9827,8.9979,8.9979,9.0016,9.0016,9.0016,9.0016,9.0016,8.9713,8.8957,8.8042,8.7166,8.6448,8.6334,8.6676,8.7431,8.8308,8.8806,8.8806,8.9523,8.9941,8.9979,8.9979,8.9979,9.0016,9.0016,9.0016,9.0016,9.0016,9.0016,9.0016,9.0016,9.0016,9.0016,9.0016,9.0016,9.0016,9.0016,9.2564,9.6198,9.6158,9.624,9.7599,10.5933,10.6169,10.2791,10.267,9.9846,9.5618,9.1297,9.0016,9.0054,9.0054,9.0054,9.0054,9.0054,9.0581,9.115,9.115,9.1801,9.2224,9.1302,9.1839,9.2224,9.1302,9.1839,9.2143,9.1302,9.115,9.115,9.115,9.0467,9.0016,9.0016,9.0016,9.0016,9.0016,9.0016,8.9979,8.9979,8.9299,8.8806,8.8768,8.7248,8.6296,8.6258,8.5423,8.4967,8.4967,8.4967,8.4967,8.4967,8.4967,8.4967,8.4967,8.4967,8.4967,8.0677,8.0601,8.0829,8.2384,8.2196,8.212,8.4132,8.421,8.3906,8.4399,8.4929,8.565,8.6789,8.7473,8.8156,8.9033,8.9147,8.9375,8.9903,9.0016,9.0016,9.0016,9.0016,8.9903,8.9713,8.8342,8.7659,8.8122,8.702,8.6676,8.7431,8.7697,8.7811,8.7811,8.8039,8.8498,8.9147,8.9147,8.9409,9.0016,9.0016,9.0016,9.0016,9.0016,9.0016,9.0016,9.0016,9.0016,9.0016,9.0016,9.0016,9.0016,9.0016,9.0742,9.1648,9.0408,9.2318,9.5916,9.831,10.0745,10.2309,9.9195,9.7394,9.5618,9.1297,9.0353,9.0847,9.0847,9.0847,9.0847,9.0847,9.0581,9.0358,9.0358,9.051,9.0624,9.0353,9.051,9.0624,9.0396,9.0548,9.0624,9.0396,9.0358,9.0358,9.0358,9.013,9.0016,9.0016,9.0016,9.0016,9.0016,9.0016,8.9751,8.9223,8.8957,8.8312,8.7096,8.6562,8.603,8.5347,8.5081,8.4967,8.4967,8.4967,8.4967,8.4967,8.4967,8.4967,8.4967,8.4967,8.4967,7.8209,7.8057,7.802,7.9462,7.95,7.969,8.1853,8.2006,8.1854,8.2576,8.3069,8.3904,8.5461,8.6144,8.6865,8.808,8.8616,8.8995,8.9489,8.9789,9.0016,9.0016,9.0016,8.9865,8.9565,8.8612,8.7966,8.7818,8.6865,8.6334,8.6407,8.6748,8.6976,8.6976,8.7318,8.7735,8.827,8.827,8.8498,8.8953,8.8953,8.8953,8.8953,8.8953,8.8953,8.8991,8.9333,8.9485,8.9523,8.9865,9.0016,8.9979,8.9637,8.9485,8.9333,8.7963,8.9391,9.2248,9.4083,9.6594,9.8663,9.6159,9.5385,9.4527,9.0256,8.9561,9.0206,9.0206,9.0206,9.0282,9.0581,9.0092,8.9599,8.9941,9.0016,9.0016,9.0016,9.0016,9.0016,9.0016,9.0016,9.0016,9.0016,9.0016,9.0016,9.0016,9.0016,9.0016,9.0016,9.0016,9.0016,9.0016,9.0016,8.9675,8.8882,8.8198,8.7362,8.6372,8.5954,8.5499,8.4967,8.4967,8.4967,8.4967,8.4967,8.4967,8.4967,8.4967,8.4967,8.4967,8.4967,8.4967,7.5438,7.559,7.559,7.5855,7.5855,7.6235,0.0,7.8324,7.8779,8.0487,8.0905,8.174,8.4208,8.4739,8.5347,8.6938,8.7966,8.8616,8.8806,8.9451,8.9865,8.9865,8.9865,8.9637,8.9033,8.8882,8.8236,8.6827,8.6448,8.5992,8.5271,8.5802,8.622,8.6296,8.6976,8.7431,8.7621,8.7545,8.7545,8.7621,8.7545,8.7469,8.7469,8.7469,8.7469,8.7507,8.8308,8.8692,8.873,8.9409,8.9713,8.9675,8.8957,8.8616,8.8464,8.7507,8.7242,8.7895,9.1739,9.307,9.3151,9.3151,9.3151,9.2465,8.8668,8.8118,8.8844,8.8844,8.8882,8.9109,8.9713,8.9375,8.8995,8.9561,8.9789,8.9865,8.9865,8.9941,9.0016,9.0016,9.0016,9.0016,9.0016,9.0016,9.0016,9.0016,8.9941,8.9903,8.9979,8.9941,8.9865,8.9865,8.9865,8.9523,8.8768,8.7207,8.6258,8.6144,8.5385,8.4967,8.4967,8.4967,8.4967,8.4967,8.4967,8.4967,8.4967,8.4967,8.4967,8.4967,8.4967,8.4853,0.0,0.0,0.0,0.0,0.0,0.0,0.0,7.5739,7.6233,7.7905,7.8779,7.9956,8.246,8.3524,8.4323,8.5271,8.622,8.7286,8.8654,8.8957,8.9071,8.9071,8.9071,8.9261,8.9713,8.9223,8.8957,8.9257,8.7435,8.6524,8.6938,8.5878,8.5537,8.6296,8.6448,8.7169,8.8578,8.7811,8.7811,8.8578,8.7811,8.7469,8.7469,8.7469,8.7469,8.7507,8.7659,8.7735,8.7735,8.7887,8.7963,8.7925,8.7773,8.7359,8.6676,8.5802,8.5916,8.6646,8.7505,8.8173,8.875,8.875,8.875,8.8586,8.7717,8.8118,8.8844,8.8844,8.9257,8.9637,8.9185,8.8957,8.8692,8.8077,8.8536,8.9071,8.9071,8.9523,9.0016,9.0016,9.0016,9.0016,9.0016,9.0016,9.0016,9.0016,8.9447,8.9257,8.9903,8.9489,8.9071,8.9071,8.9071,8.8688,8.7811,8.6865,8.5992,8.5271,8.5043,8.4967,8.4967,8.4967,8.4967,8.4967,8.4967,8.4967,8.4967,8.4967,8.4967,8.4967,8.4967,8.4206,0.0,0.0,0.0,0.0,0.0,0.0,0.0,0.0,0.0,0.0,0.0,7.711,8.0032,0.0,8.2462,8.4094,8.5081,8.6068,8.74,8.789,8.8156,8.8156,8.8156,8.8308,8.8684,8.8764,8.8806,8.8722,8.8004,8.7549,8.7469,8.6673,8.6448,8.6862,8.6862,8.7321,8.8156,8.7697,8.7549,8.759,8.7549,8.7014,8.6217,8.6673,8.6635,8.6179,8.6179,8.6445,8.6862,8.6862,8.7128,8.7394,8.6521,8.5992,8.5575,8.5119,8.5233,8.5612,8.5612,8.5878,8.6179,8.6179,8.6179,8.6179,8.6179,8.7131,8.8156,8.8156,8.8764,8.9409,8.9409,8.9147,8.873,8.827,8.8502,8.8844,8.8844,8.9147,8.9523,8.9941,9.0016,9.0016,9.0016,9.0016,9.013,9.0505,8.9561,8.9147,8.9903,8.8915,8.8156,8.8156,8.8156,8.7814,8.6979,8.6524,8.5916,8.5005,8.4967,8.4967,8.4967,8.4967,8.4777,8.436,8.436,8.4132,8.3675,8.3675,8.3675,8.3675,8.4132,8.3904,0.0,0.0,0.0,0.0,0.0,0.0,0.0,0.0,0.0,0.0,0.0,0.0,0.0,0.0,0.0,8.269,8.3828,8.4853,8.5916,8.6486,8.6824,8.6976,8.7128,8.7318,8.7469,8.8156,8.827,8.7545,8.8156,8.8232,8.7507,8.7469,8.7545,8.7735,8.7735,8.7811,8.7963,8.7811,8.7435,8.6789,8.7242,0.0,8.5233,8.5954,8.5802,8.4967,8.4967,8.5385,8.603,8.603,8.6448,8.6862,8.5648,8.5233,8.5233,8.5385,8.5347,8.5233,8.5233,8.5119,8.4967,8.4967,8.4967,8.4967,8.4967,8.5876,0.0,8.6976,8.7663,8.8502,8.9105,8.8915,8.854,8.8388,8.8464,8.854,8.8388,8.8464,8.8768,8.9409,8.9675,8.9789,8.9789,8.9637,8.9789,9.0581,8.9485,8.8915,8.9865,8.8494,8.7469,8.7469,8.7356,8.6941,8.6106,8.5916,8.565,8.5233,8.4891,8.427,8.3211,8.3174,8.2441,8.0793,8.1729,8.197,8.1438,8.241,8.2916,8.2878,8.2006,8.1855,0.0,0.0,0.0,0.0,0.0,0.0,0.0,0.0,0.0,0.0,0.0,0.0,0.0,0.0,0.0,0.0,8.174,8.3257,8.4891,8.4549,8.4475,8.5157,8.5954,8.6713,8.7431,8.7583,8.7583,8.7507,8.7583,8.7583,8.7469,8.7469,0.0,0.0,0.0,8.8991,8.9713,8.9033,8.8654,8.854,8.7852,8.7014,8.6144,8.6258,8.5802,8.4967,8.4967,8.5005,8.5119,8.5119,8.5157,8.5309,8.5916,8.6144,8.622,8.6938,8.6748,8.6144,8.6144,0.0,0.0,8.4967,8.4967,8.4967,8.4967,8.5081,8.5233,8.5233,8.5878,8.66,8.6713,8.7207,8.7431,8.6751,8.7131,8.7431,8.6751,8.7169,8.7659,8.7735,8.8422,8.8957,8.8957,8.8308,8.8039,8.8995,8.827,8.819,8.9789,8.8494,8.7469,8.7469,8.6865,0.0,8.5195,8.4436,8.4665,8.6068,8.4741,8.1766,7.7042,7.6853,7.4699,7.007,7.4402,7.7117,7.7961,8.2489,8.4663,8.4474,7.7184,7.4944,0.0,0.0,0.0,0.0,0.0,0.0,0.0,0.0,0.0,0.0,0.0,0.0,0.0,0.0,0.0,0.0,8.0297,8.1284,8.2044,8.2196,8.2613,8.3371,8.3788,8.4168,8.451,8.542,8.5989,8.5989,8.69,8.7469,8.7469,8.8004,8.8464,8.8806,8.9299,8.9675,9.0016,8.9675,8.9299,8.8844,8.8915,8.8228,8.6976,8.6976,8.6483,8.5688,8.5195,8.4967,8.4967,8.4967,8.4967,8.5005,0.0,0.0,0.0,0.0,8.5802,8.5612,8.6144,8.6068,8.5726,8.5726,8.5726,8.565,8.5119,8.5309,8.5726,8.5726,8.6372,8.6976,8.6976,8.7625,8.7928,8.66,8.6941,8.7242,8.6486,8.6562,8.69,8.7394,8.7773,0.0,8.7435,8.7435,8.7773,8.8692,8.7663,8.7397,8.9109,8.7397,8.622,8.671,8.603,8.5385,8.5005,8.4663,0.0,0.0,0.0,8.3458,8.12,8.068,0.0,0.0,0.0,7.6793,7.6714,7.7395,0.0,0.0,7.6273,7.4944,0.0,0.0,0.0,0.0,0.0,0.0,0.0,0.0,0.0,0.0,0.0,0.0,0.0,0.0,0.0,0.0,7.8285,7.912,7.9348,8.0297,8.1057,8.136,8.2005,8.2271,8.1815,8.3257,8.436,8.4587,8.5952,8.6862,8.7128,8.7966,8.8502,8.8502,8.9299,8.9675,8.9675,8.9903,8.9713,8.9185,8.9713,8.9257,8.7811,8.7811,8.7283,8.6296,8.584,8.5385,8.4967,8.5233,8.5195,8.4967,8.4967,8.4967,8.5005,8.5233,8.5309,8.5461,8.6334,8.6334,8.5992,8.622,8.6144,8.5764,8.4891,8.5233,8.5878,8.565,8.6182,8.6824,8.709,8.7625,8.7814,8.66,8.671,8.69,8.6106,8.5916,8.6106,8.6673,8.6786,8.6597,8.603,8.641,8.7128,8.827,8.7207,8.6979,8.892,8.7093,8.5916,8.6562,8.584,8.5233,8.4967,8.4739,8.4815,8.5309,8.4891,8.4815,8.5309,8.269,8.0643,7.9411,7.7174,7.5499,0.0,0.0,0.0,0.0,0.0,0.0,0.0,0.0,0.0,0.0,0.0,0.0,0.0,0.0,0.0,0.0,0.0,0.0,0.0,0.0,0.0,0.0,0.0,0.0,7.7526,7.9082,7.9766,7.8931,8.098,8.1815,8.0297,8.1588,8.2879,8.3754,8.4549,8.5423,8.6296,8.709,8.7507,8.7507,8.8384,8.8882,8.8882,8.9599,8.9979,8.9979,8.9979,8.9561,8.8806,8.8806,8.7894,8.6334,8.709,8.6445,8.5005,8.5916,8.5726,8.4967,8.4967,8.4967,8.5043,8.5954,8.6258,8.6372,8.7166,8.6369,8.5157,8.603,8.5688,8.4853,8.4058,8.436,8.4815,8.4058,8.4398,8.5233,8.6106,8.6372,8.6372,8.6334,8.6334,8.6106,8.5195,8.5005,8.5005,8.5043,8.5043,8.5005,8.5005,8.5005,8.5572,8.728,8.6865,0.0,8.9637,8.8456,8.7431,8.7431,8.6751,8.5916,8.5043,8.4246,8.4513,8.6144,8.4741,8.4551,8.6182,7.8837,7.4733,7.4662,7.2984,7.1445,7.0189,0.0,0.0,0.0,0.0,0.0,0.0,0.0,0.0,0.0,0.0,0.0,0.0,0.0,0.0,0.0,0.0,0.0,0.0,0.0,0.0,0.0,0.0,0.0,0.0,7.6347,7.7031,7.7867,7.8171,7.8095,7.7564,7.8969,8.0108,8.0411,8.2195,8.3409,8.3713,8.5041,8.58,8.58,8.7166,8.7966,8.7966,8.819,8.8304,8.8342,8.8915,8.9109,8.8844,8.8844,8.854,8.7932,8.7093,8.6372,8.5802,8.5537,8.4929,8.4172,8.4172,8.379,8.3295,8.3599,8.4132,8.4665,8.4929,8.5385,8.5802,8.5499,8.5612,8.5575,8.421,8.3982,8.4134,8.3868,8.3524,8.3485,8.4437,8.5005,8.5575,8.6144,8.584,8.5499,8.5802,8.4967,8.4322,8.4853,8.4511,8.4361,8.4853,8.4967,8.5347,8.6524,8.6486,8.7017,8.8995,8.819,8.7697,8.8308,8.7625,8.6751,8.5916,8.5612,8.5423,8.5423,8.4853,8.4549,8.4627,8.1516,7.9251,7.8212,7.7023,7.4614,7.0888,0.0,0.0,0.0,0.0,0.0,0.0,0.0,0.0,0.0,0.0,0.0,0.0,0.0,0.0,0.0,0.0,0.0,0.0,0.0,0.0,0.0,0.0,0.0,0.0,0.0,0.0,7.6083,7.5931,0.0,7.35,7.4355,7.5355,7.6243,7.78,7.9637,8.1852,8.3069,8.3752,8.4016,8.5686,8.6559,8.6559,8.7166,8.7469,8.7507,8.808,8.8346,8.8346,8.8346,8.8156,8.7894,8.7093,8.6372,8.5764,8.4891,8.3866,8.2842,8.2576,8.1892,8.117,8.1436,8.212,8.2956,8.3564,8.4703,8.5688,8.4815,8.4322,8.379,8.2385,8.1968,8.2044,8.2386,8.2234,8.2309,8.3488,8.3904,8.4168,8.4815,8.4474,8.4322,8.5195,8.4284,8.36,8.4739,8.4549,8.4286,8.4474,8.4777,8.5271,8.6182,8.6296,8.7017,8.8953,8.8498,8.8194,8.8768,8.8308,8.7511,8.641,8.6296,8.5802,8.4587,8.4511,8.4132,8.3335,8.2422,8.1133,7.9234,7.8019,7.54,0.0,0.0,0.0,0.0,0.0,0.0,0.0,0.0,0.0,0.0,0.0,0.0,0.0,0.0,0.0,0.0,0.0,0.0,0.0,0.0,0.0,0.0,0.0,0.0,0.0,0.0,0.0,7.3656,7.4223,0.0,0.0,0.0,0.0,7.1118,7.1586,7.43,8.0257,8.0828,8.1322,8.2157,8.3788,8.4739,8.4815,8.6407,8.7242,8.728,8.7318,8.7394,8.7431,8.7469,8.7052,8.641,8.709,8.6483,8.4891,8.3982,8.2613,8.1057,8.0259,7.9386,7.8628,7.9614,8.0411,8.1246,8.2994,8.4056,8.4587,8.383,8.1931,7.9803,7.8855,7.859,0.0,0.0,8.0487,8.1474,8.3222,8.2993,8.2422,8.2574,8.2574,8.2726,8.3716,8.3145,8.2954,8.4474,8.4701,8.4436,8.3754,0.0,8.4963,8.5783,8.6136,8.7087,8.9302,8.9,8.8546,8.8546,8.8336,8.7614,8.6193,8.6007,8.5332,8.3944,8.3754,8.3336,8.2422,8.155,7.9956,7.7488,7.5598,0.0,0.0,0.0,0.0,0.0,0.0,0.0,0.0,0.0,0.0,0.0,0.0,0.0,0.0,0.0,0.0,0.0,0.0,0.0,0.0,0.0,0.0,0.0,0.0,0.0,0.0,7.0502,7.0801,7.1827,7.1029,6.8905,0.0,0.0,0.0,0.0,0.0,0.0,7.0908,7.4562,7.726,7.8779,8.0487,8.1892,8.3068,8.3485,8.4054,8.4701,8.5309,8.5954,8.6638,8.7204,8.7356,8.7166,8.6789,8.5992,8.4739,8.212,8.0373,7.9273,7.8513,7.726,7.6157,7.7676,7.7905,7.783,8.0221,8.1171,8.1285,8.1095,7.9765,7.8019,7.7146,0.0,0.0,0.0,0.0,7.9006,8.1284,8.174,8.2196,8.4739,8.4322,8.3828,8.5309,8.4474,8.3183,8.2347,8.117,8.0639,8.1702,8.1589,0.0,8.0502,8.3768,8.5751,8.426,8.4244,8.433,8.433,8.1225,8.0119,8.2631,8.1657,8.1984,8.4501,8.3486,8.2384,8.1588,8.0146,7.8209,7.5739,0.0,0.0,0.0,0.0,0.0,0.0,0.0,0.0,0.0,0.0,0.0,0.0,0.0,0.0,0.0,0.0,0.0,0.0,0.0,0.0,0.0,0.0,0.0,0.0,0.0,0.0,0.0,6.8376,6.9135,7.0118,6.7742,6.4715,0.0,0.0,0.0,0.0,0.0,0.0,0.0,0.0,0.0,7.3584,7.6415,7.8474,7.969,8.0829,8.1665,8.2158,8.3297,8.4092,8.4585,8.5079,8.5268,8.5231,8.4775,8.3524,8.155,7.9765,7.7981,7.6427,0.0,0.0,0.0,0.0,7.4716,7.483,7.6653,7.6308,7.5317,7.6822,0.0,0.0,0.0,0.0,0.0,0.0,0.0,7.6427,7.8969,7.988,8.0753,8.3031,8.2842,8.25,8.379,8.2158,8.0183,7.9234,7.8589,7.8476,7.9462,7.9879,0.0,0.0,0.0,8.6002,8.5144,8.3721,8.2806,8.2806,7.8622,7.7401,8.1326,8.0472,8.1078,8.4232,8.3143,8.1588,7.9728,7.8361,7.6121,0.0,0.0,0.0,0.0,0.0,0.0,0.0,0.0,0.0,0.0,0.0,0.0,0.0,0.0,0.0,0.0,0.0,0.0,0.0,0.0,0.0,0.0,0.0,0.0,0.0,0.0,0.0,0.0,0.0,6.8338,6.8452,0.0,0.0,0.0,0.0,0.0,0.0,0.0,0.0,0.0,0.0,0.0,0.0,0.0,7.477,7.5324,7.8062,7.9462,7.9576,8.0942,8.1663,8.1777,8.1777,8.1853,8.1929,8.1474,0.0,7.7221,7.6879,0.0,0.0,0.0,0.0,0.0,0.0,0.0,0.0,0.0,0.0,0.0,0.0,0.0,0.0,0.0,0.0,0.0,0.0,0.0,0.0,0.0,0.0,7.8437,7.9234,7.9613,7.954,7.8895,7.6427,7.4483,7.495,7.5586,7.6296,0.0,0.0,0.0,0.0,0.0,0.0,8.7443,8.4258,8.1893,8.1893,7.7091,7.5552,7.9484,7.9519,8.0351,8.2717,8.2187,8.0297,7.6979,7.6096,0.0,0.0,0.0,0.0,0.0,0.0,0.0,0.0,0.0,0.0,0.0,0.0,0.0,0.0,0.0,0.0,0.0,0.0,0.0,0.0,0.0,0.0,0.0,0.0,0.0,0.0,0.0,0.0,0.0,0.0,0.0,0.0,0.0,0.0,0.0,0.0,0.0,0.0,0.0,0.0,0.0,0.0,0.0,0.0,0.0,0.0,0.0,0.0,0.0,0.0,7.7146,7.7678,7.8399,7.8399,7.8779,7.9235,7.6427,7.5324,7.5321,7.327,0.0,0.0,0.0,0.0,0.0,0.0,0.0,0.0,0.0,0.0,0.0,0.0,0.0,0.0,0.0,0.0,0.0,0.0,0.0,0.0,0.0,0.0,7.5739,7.5853,7.6993,7.5685,6.7314,0.0,0.0,0.0,0.0,0.0,0.0,0.0,0.0,0.0,0.0,0.0,8.1401,7.8719,7.7035,7.7035,6.928,6.5774,6.9898,7.2289,7.486,7.7972,7.8317,7.6726,0.0,0.0,0.0,0.0,0.0,0.0,0.0,0.0,0.0,0.0,0.0,0.0,0.0,0.0,0.0,0.0,0.0,0.0,0.0,0.0,0.0,0.0,0.0,0.0,0.0,0.0,0.0,0.0,0.0,0.0,0.0,0.0,0.0,0.0,0.0,0.0,0.0,0.0,0.0,0.0,0.0,0.0,0.0,0.0,0.0,0.0,0.0,0.0,0.0,0.0,0.0,0.0,0.0,0.0,0.0,0.0,0.0,0.0,7.297,7.1641,0.0,0.0,0.0,0.0,0.0,0.0,0.0,0.0,0.0,0.0,0.0,0.0,0.0,0.0,0.0,0.0,0.0,0.0,0.0,0.0,0.0,0.0,0.0,0.0,0.0,0.0,0.0,0.0,0.0,0.0,0.0,0.0,0.0,0.0,0.0,0.0,0.0,0.0,0.0,0.0,7.9653,7.7214,7.4864,7.2367,6.5798,6.3324,6.7479,7.0816,7.3742,7.6242,7.6095,0.0,0.0,0.0,0.0,0.0,0.0,0.0,0.0,0.0,0.0,0.0,0.0,0.0,0.0,0.0,0.0,0.0,0.0,0.0,0.0,0.0,0.0,0.0,0.0,0.0,0.0,0.0,0.0,0.0,0.0,0.0,0.0,0.0,0.0,0.0,0.0,0.0,0.0,0.0,0.0,0.0,0.0,0.0,0.0,0.0,0.0,0.0,0.0,0.0,0.0,0.0,0.0,0.0,0.0,0.0,0.0,0.0,0.0,0.0,6.9355,6.7607,0.0,0.0,0.0,0.0,0.0,0.0,0.0,0.0,0.0,0.0,0.0,0.0,0.0,0.0,0.0,0.0,0.0,0.0,0.0,0.0,0.0,0.0,0.0,0.0,0.0,0.0,0.0,0.0,0.0,0.0,0.0,0.0,0.0,0.0,0.0,0.0,0.0,0.0,0.0,0.0,7.9282,7.6895,7.3742,6.9086,6.4409,6.284,6.5905,6.9554,7.1949,7.264,7.2305,0.0,0.0,0.0,0.0,0.0,0.0,0.0,0.0,0.0,0.0,0.0,0.0,0.0,0.0,0.0,0.0,0.0,0.0,0.0,0.0,0.0,0.0,0.0,0.0,0.0,0.0,0.0,0.0,0.0,0.0,0.0,0.0,0.0,0.0,0.0,0.0,0.0,0.0,0.0,0.0,0.0,0.0,0.0,0.0,0.0,0.0,0.0,0.0,0.0,0.0,0.0,0.0,0.0,0.0,0.0,0.0,0.0,0.0,0.0,0.0,0.0,0.0,0.0,0.0,0.0,0.0,0.0,0.0,0.0,0.0,0.0,0.0,0.0,0.0,0.0,0.0,0.0,0.0,0.0,0.0,0.0,0.0,0.0,0.0,0.0,0.0,0.0,0.0,0.0,0.0,0.0,0.0,0.0,0.0,0.0,0.0,0.0,0.0,0.0,0.0,0.0,7.8367,7.6045,7.3033,6.9056,6.4409,6.1336,6.0691,6.4149,6.5246,6.2569,0.0,0.0,0.0,0.0,0.0,0.0,0.0,0.0,0.0,0.0,0.0,0.0,0.0,0.0,0.0,0.0,0.0,0.0,0.0,0.0,0.0,0.0,0.0,0.0,0.0,0.0,0.0,0.0,0.0,0.0,0.0,0.0,0.0,0.0,0.0,0.0,0.0,0.0,0.0,0.0,0.0,0.0,0.0,0.0,0.0,0.0,0.0,0.0,0.0,0.0,0.0,0.0,0.0,0.0,0.0,0.0,0.0,0.0,0.0,0.0,0.0,0.0,0.0,0.0,0.0,0.0,0.0,0.0,0.0,0.0,0.0,0.0,0.0,0.0,0.0,0.0,0.0,0.0,0.0,0.0,0.0,0.0,0.0,0.0,0.0,0.0,0.0,0.0,0.0,0.0,0.0,0.0,0.0,0.0,0.0,0.0,0.0,0.0,0.0,0.0,0.0,0.0,7.7472,7.5282,7.2421,6.8337,6.352,6.04,5.9887,6.3187,6.3814,6.0552,0.0,0.0,0.0,0.0,0.0,0.0,0.0,0.0,0.0,0.0,0.0,0.0,0.0,0.0,0.0,0.0,0.0,0.0,0.0,0.0,0.0,0.0,0.0,0.0,0.0,0.0,0.0,0.0,0.0,0.0,0.0,0.0,0.0,0.0,0.0,0.0,0.0,0.0,0.0,0.0,0.0,0.0,0.0,0.0,0.0,0.0,0.0,0.0,0.0,0.0,0.0,0.0,0.0,0.0,0.0,0.0,0.0,0.0,0.0,0.0,0.0,0.0,0.0,0.0,0.0,0.0,0.0,0.0,0.0,0.0,0.0,0.0,0.0,0.0,0.0,0.0,0.0,0.0,0.0,0.0,0.0,0.0,0.0,0.0,0.0,0.0,0.0,0.0,0.0,0.0,0.0,0.0,0.0,0.0,0.0,0.0,0.0,0.0,0.0,0.0,0.0,0.0,7.6935,7.4684,7.1746,6.7606,6.2796,5.9828,5.9672,6.1541,6.1324,5.8079,0.0,0.0,0.0,0.0,0.0,0.0,0.0,0.0,0.0,0.0,0.0,0.0,0.0,0.0,0.0,0.0,0.0,0.0,0.0,0.0,0.0,0.0,0.0,0.0,0.0,0.0,0.0,0.0,0.0,0.0,0.0,0.0,0.0,0.0,0.0,0.0,0.0,0.0,0.0,0.0,0.0,0.0,0.0,0.0,0.0,0.0,0.0,0.0,0.0,0.0,0.0,0.0,0.0,0.0,0.0,0.0,0.0,0.0,0.0,0.0,0.0,0.0,0.0,0.0,0.0,0.0,0.0,0.0,0.0,0.0,0.0,0.0,0.0,0.0,0.0,0.0,0.0,0.0,0.0,0.0,0.0,0.0,0.0,0.0,0.0,0.0,0.0,0.0,0.0,0.0,0.0,0.0,0.0,0.0,0.0,0.0,0.0,0.0,0.0,0.0,0.0,0.0,7.6864,7.4211,7.0972,6.6936,6.2507,5.9672,5.917,5.8078,5.6221,0.0,0.0,0.0,0.0,0.0,0.0,0.0,0.0,0.0,0.0,0.0,0.0,0.0,0.0,0.0,0.0,0.0,0.0,0.0,0.0,0.0,0.0,0.0,0.0,0.0,0.0,0.0,0.0,0.0,0.0,0.0,0.0,0.0,0.0,0.0,0.0,0.0,0.0,0.0,0.0,0.0,0.0,0.0,0.0,0.0,0.0,0.0,0.0,0.0,0.0,0.0,0.0,0.0,0.0,0.0,0.0,0.0,0.0,0.0,0.0,0.0,0.0,0.0,0.0,0.0,0.0,0.0,0.0,0.0,0.0,0.0,0.0,0.0,0.0,0.0,0.0,0.0,0.0,0.0,0.0,0.0,0.0,0.0,0.0,0.0,0.0,0.0,0.0,0.0,0.0,0.0,0.0,0.0,0.0,0.0,0.0,0.0,0.0,0.0,0.0,0.0,0.0,0.0,7.5816,7.3478,7.1526,7.0684,6.3441,5.877,5.9092,5.7601,5.5654,5.324,0.0,0.0,0.0,0.0,0.0,0.0,0.0,0.0,0.0,0.0,0.0,0.0,0.0,0.0,0.0,0.0,0.0,0.0,0.0,0.0,0.0,0.0,0.0,0.0,0.0,0.0,0.0,0.0,0.0,0.0,0.0,0.0,0.0,0.0,0.0,0.0,0.0,0.0,0.0,0.0,0.0,0.0,0.0,0.0,0.0,0.0,0.0,0.0,0.0,0.0,0.0,0.0,0.0,0.0,0.0,0.0,0.0,0.0,0.0,0.0,0.0,0.0,0.0,0.0,0.0,0.0,0.0,0.0,0.0,0.0,0.0,0.0,0.0,0.0,0.0,0.0,0.0,0.0,0.0,0.0,0.0,0.0,0.0,0.0,0.0,0.0,0.0,0.0,0.0,0.0,0.0,0.0,0.0,0.0,0.0,0.0,0.0,0.0,0.0,0.0,0.0,0.0,0.0,7.2948,7.1464,7.2086,6.5247,6.006,5.8573,5.7143,5.5327,5.2849,0.0,0.0,0.0,0.0,0.0,0.0,0.0,0.0,0.0,0.0,0.0,0.0,0.0,0.0,0.0,0.0,0.0,0.0,0.0,0.0,0.0,0.0,0.0,0.0,0.0,0.0,0.0,0.0,0.0,0.0,0.0,0.0,0.0,0.0,0.0,0.0,0.0,0.0,0.0,0.0,0.0,0.0,0.0,0.0,0.0,0.0,0.0,0.0,0.0,0.0,0.0,0.0,0.0,0.0,0.0,0.0,0.0,0.0,0.0,0.0,0.0,0.0,0.0,0.0,0.0,0.0,0.0,0.0,0.0,0.0,0.0,0.0,0.0,0.0,0.0,0.0,0.0,0.0,0.0,0.0,0.0,0.0,0.0,0.0,0.0,0.0,0.0,0.0,0.0,0.0,0.0,0.0,0.0,0.0,0.0,0.0,0.0,0.0,0.0,0.0,0.0,0.0,0.0,7.2083,7.0551,7.1349,6.7252,6.2504,5.7728,5.6728,5.513,5.229,5.1602,0.0,0.0,0.0,0.0,0.0,0.0,0.0,0.0,0.0,0.0,0.0,0.0,0.0,0.0,0.0,0.0,0.0,0.0,0.0,0.0,0.0,0.0,0.0,0.0,0.0,0.0,0.0,0.0,0.0,0.0,0.0,0.0,0.0,0.0,0.0,0.0,0.0,0.0,0.0,0.0,0.0,0.0,0.0,0.0,0.0,0.0,0.0,0.0,0.0,0.0,0.0,0.0,0.0,0.0,0.0,0.0,0.0,0.0,0.0,0.0,0.0,0.0,0.0,0.0,0.0,0.0,0.0,0.0,0.0,0.0,0.0,0.0,0.0,0.0,0.0,0.0,0.0,0.0,0.0,0.0,0.0,0.0,0.0,0.0,0.0,0.0,0.0,0.0,0.0,0.0,0.0,0.0,0.0,0.0,0.0,0.0,0.0,0.0,0.0,0.0,0.0,0.0,6.6574,6.6397,7.0207,6.4084,5.9057,5.7497,5.6728,5.513,5.229,5.1602,0.0,0.0,0.0,0.0,0.0,0.0,0.0,0.0,0.0,0.0,0.0,0.0,0.0,0.0,0.0,0.0,0.0,0.0,0.0,0.0,0.0,0.0,0.0,0.0,0.0,0.0,0.0,0.0,0.0,0.0,0.0,0.0,0.0,0.0,0.0,0.0,0.0,0.0,0.0,0.0,0.0,0.0,0.0,0.0,0.0,0.0,0.0,0.0,0.0,0.0,0.0,0.0,0.0,0.0,0.0,0.0,0.0,0.0,0.0,0.0,0.0,0.0,0.0,0.0,0.0,0.0,0.0,0.0,0.0,0.0,0.0,0.0,0.0,0.0,0.0,0.0,0.0,0.0,0.0,0.0,0.0,0.0,0.0,0.0,0.0,0.0,0.0,0.0,0.0,0.0,0.0,0.0,0.0,0.0,0.0,0.0,0.0,0.0,0.0,0.0,0.0,0.0,6.0665,6.2954,6.6688,6.3096,5.9385,5.6732,5.5991,5.4537,5.1914,5.1277,0.0,0.0,0.0,0.0,0.0,0.0,0.0,0.0,0.0,0.0,0.0,0.0,0.0,0.0,0.0,0.0,0.0,0.0,0.0,0.0,0.0,0.0,0.0,0.0,0.0,0.0,0.0,0.0,0.0,0.0,0.0,0.0,0.0,0.0,0.0,0.0,0.0,0.0,0.0,0.0,0.0,0.0,0.0,0.0,0.0,0.0,0.0,0.0,0.0,0.0,0.0,0.0,0.0,0.0,0.0,0.0,0.0,0.0,0.0,0.0,0.0,0.0,0.0,0.0,0.0,0.0,0.0,0.0,0.0,0.0,0.0,0.0,0.0,0.0,0.0,0.0,0.0,0.0,0.0,0.0,0.0,0.0,0.0,0.0,0.0,0.0,0.0,0.0,0.0,0.0,0.0,0.0,0.0,0.0,0.0,0.0,0.0,0.0,0.0,0.0,0.0,0.0,0.0,5.9997,6.1561,6.1994,6.0332,5.5857,5.5087,5.376,5.1355,0.0,0.0,0.0,0.0,0.0,0.0,0.0,0.0,0.0,0.0,0.0,0.0,0.0,0.0,0.0,0.0,0.0,0.0,0.0,0.0,0.0,0.0,0.0,0.0,0.0,0.0,0.0,0.0,0.0,0.0,0.0,0.0,0.0,0.0,0.0,0.0,0.0,0.0,0.0,0.0,0.0,0.0,0.0,0.0,0.0,0.0,0.0,0.0,0.0,0.0,0.0,0.0,0.0,0.0,0.0,0.0,0.0,0.0,0.0,0.0,0.0,0.0,0.0,0.0,0.0,0.0,0.0,0.0,0.0,0.0,0.0,0.0,0.0,0.0,0.0,0.0,0.0,0.0,0.0,0.0,0.0,0.0,0.0,0.0,0.0,0.0,0.0,0.0,0.0,0.0,0.0,0.0,0.0,0.0,0.0,0.0,0.0,0.0,0.0,0.0,0.0,0.0,0.0,0.0,5.7203,5.5472,5.6563,5.6746,5.505,5.4853,5.3644,5.0847,0.0,0.0,0.0,0.0,0.0,0.0,0.0,0.0,0.0,0.0,0.0,0.0,0.0,0.0]}]]]